[[{"header":{"parameterUnit":"m.s-1","parameterCategory":1,"la1":31.0,"la2":29.5877,"lo1":-88.7671,"lo2":-86.6584,"dy":0.0162,"dx":0.0185,"nx":115,"ny":88,"refTime":"2024-09-03T12:00:00:Z","depth":0,"parameterNumber":2,"parameterNumberName":"U-component_of_WINDS"},"data":[0.0,0.0,0.0,0.0,0.0,0.0,0.0,0.0,0.0,0.0,0.0,0.0,0.0,0.0,0.0,0.0,0.0,0.0,0.0,0.0,0.0,0.0,0.0,0.0,0.0,0.0,0.0,0.0,0.0,0.0,0.0,0.0,0.0,0.0,0.0,0.0,0.0,0.0,0.0,0.0,0.0,0.0,0.0,0.0,0.0,0.0,0.0,0.0,0.0,0.0,0.0,0.0,0.0,0.0,0.0,0.0,0.0,0.0,0.0,0.0,0.0,0.0,0.0,0.0,0.0,0.0,0.0,0.0,0.0,0.0,0.0,0.0,0.0,0.0,0.0,0.0,0.0,0.0,0.0,0.0,0.0,0.0,0.0,0.0,0.0,0.0,0.0,0.0,0.0,0.0,0.0,0.0,0.0,0.0,0.0,0.0,0.0,0.0,0.0,0.0,0.0,0.0,0.0,0.0,0.0,0.0,0.0,0.0,0.0,0.0,0.0,0.0,0.0,0.0,0.0,0.0,0.0,0.0,0.0,0.0,0.0,0.0,0.0,0.0,0.0,0.0,0.0,0.0,0.0,0.0,0.0,0.0,0.0,0.0,0.0,0.0,0.0,0.0,0.0,0.0,0.0,0.0,0.0,0.0,0.0,0.0,0.0,0.0,0.0,0.0,0.0,0.0,0.0,0.0,0.0,0.0,0.0,0.0,0.0,0.0,0.0,0.0,0.0,0.0,0.0,0.0,0.0,0.0,0.0,0.0,0.0,0.0,0.0,0.0,0.0,0.0,0.0,0.0,0.0,0.0,0.0,0.0,0.0,0.0,0.0,0.0,0.0,0.0,0.0,0.0,0.0,0.0,0.0,0.0,0.0,0.0,0.0,0.0,0.0,0.0,0.0,0.0,0.0,0.0,0.0,0.0,0.0,0.0,0.0,0.0,0.0,0.0,0.0,0.0,0.0,0.0,0.0,0.0,0.0,0.0,0.0,0.0,0.0,0.0,0.0,0.0,0.0,0.0,0.0,0.0,0.0,0.0,0.0,0.0,0.0,0.0,0.0,0.0,0.0,0.0,0.0,0.0,0.0,0.0,0.0,0.0,0.0,0.0,0.0,0.0,0.0,0.0,0.0,0.0,0.0,0.0,0.0,0.0,0.0,0.0,0.0,0.0,0.0,0.0,0.0,0.0,0.0,0.0,0.0,0.0,0.0,0.0,0.0,0.0,0.0,0.0,0.0,0.0,0.0,0.0,0.0,0.0,0.0,0.0,0.0,0.0,0.0,0.0,0.0,0.0,0.0,0.0,0.0,0.0,0.0,0.0,0.0,0.0,0.0,0.0,0.0,0.0,0.0,0.0,0.0,0.0,0.0,0.0,0.0,0.0,0.0,0.0,0.0,0.0,0.0,0.0,0.0,0.0,0.0,0.0,0.0,0.0,0.0,0.0,0.0,0.0,0.0,0.0,0.0,0.0,0.0,0.0,0.0,0.0,0.0,0.0,0.0,0.0,0.0,0.0,0.0,0.0,0.0,0.0,0.0,0.0,0.0,0.0,0.0,0.0,0.0,0.0,0.0,0.0,0.0,0.0,0.0,0.0,0.0,0.0,0.0,0.0,0.0,0.0,0.0,0.0,0.0,0.0,0.0,0.0,0.0,0.0,0.0,0.0,0.0,0.0,0.0,0.0,0.0,0.0,0.0,0.0,0.0,0.0,0.0,0.0,0.0,0.0,0.0,0.0,0.0,0.0,0.0,0.0,0.0,0.0,0.0,0.0,0.0,0.0,0.0,0.0,0.0,0.0,0.0,0.0,0.0,0.0,0.0,0.0,0.0,0.0,0.0,0.0,0.0,0.0,0.0,0.0,0.0,0.0,0.0,0.0,0.0,0.0,0.0,0.0,0.0,0.0,0.0,0.0,0.0,0.0,0.0,0.0,0.0,0.0,0.0,0.0,0.0,0.0,0.0,0.0,0.0,0.0,0.0,0.0,0.0,0.0,0.0,0.0,0.0,0.0,0.0,0.0,0.0,0.0,0.0,0.0,0.0,0.0,0.0,0.0,0.0,0.0,0.0,0.0,0.0,0.0,0.0,0.0,0.0,0.0,0.0,0.0,0.0,0.0,0.0,0.0,0.0,0.0,0.0,0.0,0.0,0.0,0.0,0.0,0.0,0.0,0.0,0.0,0.0,0.0,0.0,0.0,0.0,0.0,0.0,0.0,0.0,0.0,0.0,0.0,0.0,0.0,0.0,0.0,0.0,0.0,0.0,0.0,0.0,0.0,0.0,0.0,0.0,0.0,0.0,0.0,0.0,0.0,0.0,0.0,0.0,0.0,0.0,0.0,0.0,0.0,0.0,0.0,0.0,0.0,0.0,0.0,0.0,0.0,0.0,0.0,0.0,0.0,0.0,0.0,0.0,0.0,0.0,0.0,0.0,0.0,0.0,0.0,0.0,0.0,0.0,0.0,0.0,0.0,0.0,0.0,0.0,0.0,0.0,0.0,0.0,0.0,0.0,0.0,0.0,0.0,0.0,0.0,0.0,0.0,0.0,0.0,0.0,0.0,0.0,0.0,0.0,0.0,0.0,0.0,0.0,0.0,0.0,0.0,0.0,0.0,0.0,0.0,0.0,0.0,0.0,0.0,0.0,0.0,0.0,0.0,0.0,0.0,0.0,0.0,0.0,0.0,0.0,0.0,0.0,0.0,0.0,0.0,0.0,0.0,0.0,0.0,0.0,0.0,0.0,0.0,0.0,0.0,0.0,0.0,0.0,0.0,0.0,0.0,0.0,0.0,0.0,0.0,0.0,0.0,0.0,0.0,0.0,0.0,0.0,0.0,0.0,0.0,0.0,0.0,0.0,0.0,0.0,0.0,0.0,0.0,0.0,0.0,0.0,0.0,0.0,0.0,0.0,0.0,0.0,0.0,0.0,0.0,0.0,0.0,0.0,0.0,0.0,0.0,0.0,0.0,0.0,0.0,0.0,0.0,0.0,0.0,0.0,0.0,0.0,0.0,0.0,0.0,0.0,0.0,0.0,0.0,0.0,0.0,0.0,0.0,0.0,0.0,0.0,0.0,0.0,0.0,0.0,0.0,0.0,0.0,0.0,0.0,0.0,0.0,0.0,0.0,0.0,0.0,0.0,0.0,0.0,0.0,0.0,0.0,0.0,0.0,0.0,0.0,0.0,0.0,0.0,0.0,0.0,0.0,0.0,0.0,0.0,0.0,0.0,0.0,0.0,0.0,0.0,0.0,0.0,0.0,0.0,0.0,0.0,0.0,0.0,0.0,0.0,0.0,0.0,0.0,0.0,0.0,0.0,0.0,0.0,0.0,0.0,0.0,0.0,0.0,0.0,0.0,0.0,0.0,0.0,0.0,0.0,0.0,0.0,0.0,0.0,0.0,0.0,0.0,0.0,0.0,0.0,0.0,0.0,0.0,0.0,0.0,0.0,0.0,0.0,0.0,0.0,0.0,0.0,0.0,0.0,0.0,0.0,0.0,0.0,0.0,0.0,0.0,0.0,0.0,0.0,0.0,0.0,0.0,0.0,0.0,0.0,0.0,0.0,0.0,0.0,0.0,0.0,0.0,0.0,0.0,0.0,0.0,0.0,0.0,0.0,0.0,0.0,0.0,0.0,0.0,0.0,0.0,0.0,0.0,0.0,0.0,0.0,0.0,0.0,0.0,0.0,0.0,0.0,0.0,0.0,0.0,0.0,0.0,0.0,0.0,0.0,0.0,0.0,0.0,0.0,0.0,0.0,0.0,0.0,0.0,0.0,0.0,0.0,0.0,0.0,0.0,0.0,0.0,0.0,0.0,0.0,0.0,0.0,0.0,0.0,0.0,0.0,0.0,0.0,0.0,0.0,0.0,0.0,0.0,0.0,0.0,0.0,0.0,0.0,0.0,0.0,0.0,0.0,0.0,0.0,0.0,0.0,0.0,0.0,0.0,0.0,0.0,0.0,0.0,0.0,0.0,0.0,0.0,0.0,0.0,0.0,0.0,0.0,0.0,0.0,0.0,0.0,0.0,0.0,0.0,0.0,0.0,0.0,0.0,0.0,0.0,0.0,0.0,0.0,0.0,0.0,0.0,0.0,0.0,0.0,0.0,0.0,0.0,0.0,0.0,0.0,0.0,0.0,0.0,0.0,0.0,0.0,0.0,0.0,0.0,0.0,0.0,0.0,0.0,0.0,0.0,0.0,0.0,0.0,0.0,0.0,0.0,0.0,0.0,0.0,0.0,0.0,0.0,0.0,0.0,0.0,0.0,0.0,0.0,0.0,0.0,1.7886,0.0,0.0,0.0,0.0,0.0,0.0,0.0,0.0,0.0,0.0,0.0,0.0,0.0,0.0,0.0,0.0,0.0,0.0,0.0,0.0,0.0,0.0,0.0,0.0,0.0,0.0,0.0,0.0,0.0,0.0,0.0,0.0,0.0,0.0,0.0,0.0,0.0,0.0,0.0,0.0,0.0,0.0,0.0,0.0,0.0,0.0,0.0,0.0,0.0,0.0,0.0,0.0,0.0,0.0,0.0,0.0,0.0,0.0,0.0,0.0,0.0,0.0,0.0,0.0,0.0,0.0,0.0,0.0,0.0,0.0,0.0,0.0,0.0,0.0,0.0,0.0,0.0,0.0,0.0,0.0,0.0,0.0,0.0,0.0,0.0,0.0,0.0,0.0,0.0,0.0,0.0,0.0,0.0,0.0,0.0,0.0,0.0,0.0,0.0,0.0,0.0,0.0,0.0,0.0,0.0,0.0,0.0,0.0,0.0,0.0,2.0516,2.0878,1.9993,1.9273,1.8779,0.0,0.0,0.0,0.0,0.0,0.0,0.0,0.0,0.0,0.0,0.0,0.0,0.0,0.0,0.0,0.0,0.0,0.0,0.0,0.0,0.0,0.0,0.0,0.0,0.0,0.0,0.0,0.0,0.0,0.0,0.0,0.0,0.0,0.0,0.0,0.0,0.0,0.0,0.0,0.0,0.0,0.0,0.0,0.0,0.0,0.0,0.0,0.0,0.0,0.0,0.0,0.0,0.0,0.0,0.0,0.0,0.0,0.0,0.0,0.0,0.0,0.0,0.0,0.0,0.0,0.0,0.0,0.0,0.0,0.0,0.0,0.0,0.0,0.0,0.0,0.0,0.0,0.0,0.0,0.0,0.0,0.0,0.0,0.0,0.0,0.0,0.0,0.0,0.0,0.0,0.0,0.0,0.0,0.0,0.0,0.0,0.0,0.0,0.0,0.0,0.0,0.0,0.0,0.0,0.0,0.0,0.0,0.0,0.0,0.0,0.0,0.0,2.0995,1.9934,1.8745,0.0,0.0,0.0,0.0,0.0,0.0,0.0,0.0,0.0,0.0,0.0,0.0,0.0,0.0,0.0,0.0,0.0,0.0,0.0,0.0,0.0,0.0,0.0,0.0,0.0,0.0,0.0,0.0,0.0,0.0,0.0,0.0,0.0,0.0,0.0,0.0,0.0,0.0,0.0,0.0,0.0,0.0,0.0,0.0,0.0,0.0,0.0,0.0,0.0,0.0,0.0,0.0,0.0,0.0,0.0,0.0,0.0,0.0,0.0,0.0,0.0,0.0,0.0,0.0,0.0,0.0,0.0,0.0,0.0,0.0,0.0,0.0,0.0,0.0,0.0,0.0,0.0,0.0,0.0,0.0,0.0,0.0,0.0,0.0,0.0,0.0,0.0,0.0,0.0,0.0,0.0,0.0,0.0,0.0,0.0,0.0,0.0,0.0,0.0,0.0,0.0,0.0,0.0,0.0,0.0,0.0,0.0,0.0,0.0,0.0,2.1842,2.1712,2.0929,0.0,1.7209,0.0,0.0,0.0,0.0,0.0,0.0,0.0,0.0,0.0,0.0,0.0,0.0,0.0,0.0,0.0,0.0,0.0,0.0,0.0,0.0,0.0,0.0,0.0,0.0,0.0,0.0,0.0,0.0,0.0,0.0,0.0,0.0,0.0,0.0,0.0,0.0,0.0,0.0,0.0,0.0,0.0,0.0,0.0,0.0,0.0,0.0,0.0,0.0,0.0,0.0,0.0,0.0,0.0,0.0,0.0,0.0,0.0,0.0,0.0,0.0,0.0,0.0,0.0,0.0,0.0,0.0,0.0,0.0,0.0,0.0,0.0,0.0,0.0,0.0,0.0,0.0,0.0,0.0,0.0,0.0,0.0,0.0,0.0,0.0,0.0,0.0,0.0,0.0,0.0,0.0,0.0,0.0,0.0,0.0,0.0,0.0,0.0,0.0,0.0,0.0,0.0,0.0,0.0,0.0,0.0,0.0,0.0,0.0,0.0,0.0,0.0,2.3166,2.1821,1.9912,0.0,0.0,0.0,0.0,0.0,0.0,0.0,0.0,0.0,0.0,0.0,0.0,0.0,0.0,0.0,0.0,0.0,0.0,0.0,0.0,0.0,0.0,0.0,0.0,0.0,0.0,0.0,0.0,0.0,0.0,0.0,0.0,0.0,0.0,0.0,0.0,0.0,0.0,0.0,0.0,0.0,0.0,0.0,0.0,0.0,0.0,0.0,0.0,0.0,0.0,0.0,0.0,0.0,0.0,0.0,0.0,0.0,0.0,0.0,0.0,0.0,0.0,0.0,0.0,0.0,0.0,0.0,0.0,0.0,0.0,0.0,0.0,0.0,0.0,0.0,0.0,0.0,0.0,0.0,0.0,0.0,0.0,0.0,0.0,0.0,0.0,0.0,0.0,0.0,0.0,0.0,0.0,0.0,0.0,0.0,0.0,0.0,0.0,0.0,0.0,0.0,0.0,0.0,0.0,0.0,0.0,0.0,0.0,0.0,0.0,2.2793,0.0,2.3658,2.2227,2.025,1.7755,0.0,0.0,0.0,0.0,0.0,0.0,0.0,0.0,0.0,0.0,0.0,0.0,0.0,0.0,0.0,0.0,0.0,0.0,0.0,0.0,0.0,0.0,0.0,0.0,0.0,0.0,0.0,0.0,0.0,0.0,0.0,0.0,0.0,0.0,0.0,0.0,0.0,0.0,0.0,0.0,0.0,0.0,0.0,0.0,0.0,0.0,0.0,0.0,0.0,0.0,0.0,0.0,0.0,0.0,0.0,0.0,0.0,0.0,0.0,0.0,0.0,0.0,0.0,0.0,0.0,0.0,0.0,0.0,0.0,0.0,0.0,0.0,0.0,0.0,0.0,0.0,0.0,0.0,0.0,0.0,0.0,0.0,0.0,0.0,0.0,0.0,0.0,0.0,0.0,0.0,0.0,0.0,0.0,0.0,0.0,0.0,0.0,0.0,0.0,0.0,0.0,0.0,0.0,0.0,0.0,0.0,0.0,0.0,0.0,2.3299,2.3672,2.274,2.1719,2.0079,0.0,0.0,0.0,0.0,0.0,0.0,0.0,0.0,0.0,0.0,0.0,0.0,0.0,0.0,0.0,0.0,0.0,0.0,0.0,0.0,0.0,0.0,0.0,0.0,0.0,0.0,0.0,0.0,0.0,0.0,0.0,0.0,0.0,0.0,0.0,0.0,0.0,0.0,0.0,0.0,0.0,0.0,0.0,0.0,0.0,0.0,0.0,0.0,0.0,0.0,0.0,0.0,0.0,0.0,0.0,0.0,0.0,0.0,0.0,0.0,0.0,0.0,0.0,0.0,0.0,0.0,0.0,0.0,0.0,0.0,0.0,0.0,0.0,0.0,0.0,0.0,0.0,0.0,0.0,0.0,0.0,0.0,0.0,0.0,0.0,0.0,0.0,0.0,0.0,0.0,0.0,0.0,0.0,0.0,0.0,0.0,0.0,0.0,0.0,0.0,0.0,0.0,0.0,0.0,0.0,0.0,0.0,0.0,0.0,2.1773,2.3172,2.3679,2.3151,2.1887,2.0252,0.0,0.0,0.0,0.0,0.0,0.0,0.0,0.0,0.0,0.0,0.0,0.0,0.0,0.0,0.0,0.0,0.0,0.0,0.0,0.0,0.0,0.0,0.0,0.0,0.0,0.0,0.0,0.0,0.0,0.0,0.0,0.0,0.0,0.0,0.0,0.0,0.0,0.0,0.0,0.0,0.0,0.0,0.0,0.0,0.0,0.0,0.0,0.0,0.0,0.0,0.0,0.0,0.0,0.0,0.0,0.0,0.0,0.0,0.0,0.0,0.0,0.0,0.0,0.0,0.0,0.0,0.0,0.0,0.0,0.0,0.0,0.0,0.0,0.0,0.0,0.0,0.0,0.0,0.0,0.0,0.0,0.0,0.0,0.0,0.0,0.0,0.0,0.0,0.0,0.0,0.0,0.0,0.0,0.0,0.0,0.0,0.0,0.0,0.0,0.0,0.0,0.0,0.0,0.0,0.0,0.0,0.0,0.0,0.0,2.2747,0.0,2.4032,0.0,2.2303,2.0655,0.0,0.0,0.0,0.0,0.0,0.0,0.0,0.0,0.0,0.0,0.0,0.0,0.0,0.0,0.0,0.0,0.0,0.0,0.0,0.0,0.0,0.0,0.0,0.0,0.0,0.0,0.0,0.0,0.0,0.0,0.0,0.0,0.0,0.0,0.0,0.0,0.0,0.0,0.0,0.0,0.0,0.0,0.0,0.0,0.0,0.0,0.0,0.0,0.0,0.0,0.0,0.0,0.0,0.0,0.0,0.0,0.0,0.0,0.0,0.0,0.0,0.0,0.0,0.0,0.0,0.0,0.0,0.0,0.0,0.0,0.0,0.0,0.0,0.0,0.0,0.0,0.0,0.0,0.0,0.0,0.0,0.0,0.0,0.0,0.0,0.0,0.0,0.0,0.0,0.0,0.0,0.0,0.0,0.0,0.0,0.0,0.0,0.0,0.0,0.0,0.0,0.0,0.0,0.0,0.0,0.0,0.0,0.0,2.2774,2.4867,2.4829,2.4778,2.4682,2.2994,2.1316,0.0,0.0,0.0,0.0,0.0,0.0,0.0,0.0,0.0,0.0,0.0,0.0,0.0,0.0,0.0,0.0,0.0,0.0,0.0,0.0,0.0,0.0,0.0,0.0,0.0,0.0,0.0,0.0,0.0,0.0,0.0,0.0,0.0,0.0,0.0,0.0,0.0,0.0,0.0,0.0,0.0,0.0,0.0,0.0,0.0,0.0,0.0,0.0,0.0,0.0,0.0,0.0,0.0,0.0,0.0,0.0,0.0,0.0,0.0,0.0,0.0,0.0,0.0,0.0,0.0,0.0,0.0,0.0,0.0,0.0,0.0,0.0,0.0,0.0,0.0,0.0,0.0,0.0,0.0,0.0,0.0,0.0,0.0,0.0,0.0,0.0,0.0,0.0,0.0,0.0,0.0,0.0,0.0,0.0,0.0,0.0,0.0,0.0,0.0,0.0,0.0,0.0,0.0,0.0,0.0,0.0,0.0,0.0,0.0,2.5625,2.6084,2.621,2.5969,2.4435,2.2544,0.0,0.0,0.0,0.0,0.0,0.0,0.0,0.0,0.0,0.0,0.0,0.0,0.0,0.0,0.0,0.0,0.0,0.0,0.0,0.0,0.0,0.0,0.0,0.0,0.0,0.0,0.0,0.0,0.0,0.0,0.0,0.0,0.0,0.0,0.0,0.0,0.0,0.0,0.0,0.0,0.0,0.0,0.0,0.0,0.0,0.0,0.0,0.0,0.0,0.0,0.0,0.0,0.0,0.0,0.0,0.0,0.0,0.0,0.0,0.0,0.0,0.0,0.0,0.0,0.0,0.0,0.0,0.0,0.0,0.0,0.0,0.0,0.0,0.0,0.0,0.0,0.0,0.0,0.0,0.0,0.0,0.0,0.0,0.0,0.0,0.0,0.0,0.0,0.0,0.0,0.0,0.0,0.0,0.0,0.0,0.0,0.0,0.0,0.0,0.0,0.0,0.0,0.0,0.0,0.0,0.0,0.0,0.0,0.0,2.7072,2.7239,2.7208,2.7016,2.5439,2.3445,2.0991,0.0,0.0,0.0,0.0,0.0,0.0,0.0,0.0,0.0,0.0,0.0,0.0,0.0,0.0,0.0,0.0,0.0,0.0,0.0,0.0,0.0,0.0,0.0,0.0,0.0,0.0,0.0,0.0,0.0,0.0,0.0,0.0,0.0,0.0,0.0,0.0,0.0,0.0,0.0,0.0,0.0,0.0,0.0,0.0,0.0,0.0,0.0,0.0,0.0,0.0,0.0,0.0,0.0,0.0,0.0,0.0,0.0,0.0,0.0,0.0,0.0,0.0,0.0,0.0,0.0,0.0,0.0,0.0,0.0,0.0,0.0,0.0,0.0,0.0,0.0,0.0,0.0,0.0,0.0,0.0,0.0,0.0,0.0,0.0,0.0,0.0,0.0,0.0,0.0,0.0,0.0,0.0,0.0,0.0,0.0,0.0,0.0,0.0,0.0,0.0,0.0,0.0,0.0,0.0,0.0,0.0,0.0,0.0,2.9122,2.8415,2.8014,2.7872,2.6178,2.4102,0.0,0.0,0.0,0.0,0.0,0.0,0.0,0.0,0.0,0.0,0.0,0.0,0.0,0.0,0.0,0.0,0.0,0.0,0.0,0.0,0.0,0.0,0.0,0.0,0.0,0.0,0.0,0.0,0.0,0.0,0.0,0.0,0.0,0.0,0.0,0.0,0.0,0.0,0.0,0.0,0.0,0.0,0.0,0.0,0.0,0.0,0.0,0.0,0.0,0.0,0.0,0.0,0.0,0.0,0.0,0.0,0.0,0.0,0.0,0.0,0.0,0.0,0.0,0.0,0.0,0.0,0.0,0.0,0.0,0.0,0.0,0.0,0.0,0.0,0.0,0.0,0.0,0.0,0.0,0.0,0.0,0.0,0.0,0.0,0.0,0.0,0.0,0.0,0.0,0.0,0.0,0.0,0.0,0.0,0.0,0.0,0.0,0.0,0.0,0.0,0.0,0.0,0.0,0.0,0.0,0.0,0.0,0.0,0.0,2.9685,3.0444,3.0551,2.9951,2.7875,2.5629,0.0,0.0,0.0,0.0,0.0,0.0,0.0,0.0,0.0,0.0,0.0,0.0,0.0,0.0,0.0,0.0,0.0,0.0,0.0,0.0,0.0,0.0,0.0,0.0,0.0,0.0,0.0,0.0,0.0,0.0,0.0,0.0,0.0,0.0,0.0,0.0,0.0,0.0,0.0,0.0,0.0,0.0,0.0,0.0,0.0,0.0,0.0,0.0,0.0,0.0,0.0,0.0,0.0,0.0,0.0,0.0,0.0,0.0,0.0,0.0,0.0,0.0,0.0,0.0,0.0,0.0,0.0,0.0,0.0,0.0,0.0,0.0,0.0,0.0,0.0,0.0,0.0,0.0,0.0,0.0,0.0,0.0,0.0,0.0,0.0,0.0,0.0,0.0,0.0,0.0,0.0,0.0,0.0,0.0,0.0,0.0,0.0,0.0,0.0,0.0,0.0,0.0,0.0,0.0,0.0,0.0,0.0,0.0,2.8175,3.0328,3.1661,3.2086,3.1564,2.9377,2.6885,0.0,0.0,0.0,0.0,0.0,0.0,0.0,0.0,0.0,0.0,0.0,0.0,0.0,0.0,0.0,0.0,0.0,0.0,0.0,0.0,0.0,0.0,0.0,0.0,0.0,0.0,0.0,0.0,0.0,0.0,0.0,0.0,0.0,0.0,0.0,0.0,0.0,0.0,0.0,0.0,0.0,0.0,0.0,0.0,0.0,0.0,0.0,0.0,0.0,0.0,0.0,0.0,0.0,0.0,0.0,0.0,0.0,0.0,0.0,0.0,0.0,0.0,0.0,0.0,0.0,0.0,0.0,0.0,0.0,0.0,0.0,0.0,0.0,0.0,0.0,0.0,0.0,0.0,0.0,0.0,0.0,0.0,0.0,0.0,0.0,0.0,0.0,0.0,0.0,0.0,0.0,0.0,0.0,0.0,0.0,0.0,0.0,0.0,0.0,0.0,0.0,0.0,0.0,0.0,0.0,0.0,0.0,0.0,2.8877,3.1063,3.227,3.2803,3.2632,3.0522,2.787,0.0,0.0,0.0,0.0,0.0,0.0,0.0,0.0,0.0,0.0,0.0,0.0,0.0,0.0,0.0,0.0,0.0,0.0,0.0,0.0,0.0,0.0,0.0,0.0,0.0,0.0,0.0,0.0,0.0,0.0,0.0,0.0,0.0,0.0,0.0,0.0,0.0,0.0,0.0,0.0,0.0,0.0,0.0,0.0,0.0,0.0,0.0,0.0,0.0,0.0,0.0,0.0,0.0,0.0,0.0,0.0,0.0,0.0,0.0,0.0,0.0,0.0,0.0,0.0,0.0,0.0,0.0,0.0,0.0,0.0,0.0,0.0,0.0,0.0,0.0,0.0,0.0,0.0,0.0,0.0,0.0,0.0,0.0,0.0,0.0,0.0,0.0,0.0,0.0,0.0,0.0,0.0,0.0,0.0,0.0,0.0,0.0,0.0,0.0,0.0,0.0,0.0,0.0,0.0,0.0,0.0,0.0,0.0,2.9777,3.2388,3.2585,3.2844,3.3205,3.0534,2.7859,0.0,0.0,0.0,0.0,0.0,0.0,0.0,0.0,0.0,0.0,0.0,0.0,0.0,0.0,0.0,0.0,0.0,0.0,0.0,0.0,0.0,0.0,0.0,0.0,0.0,0.0,0.0,0.0,0.0,0.0,0.0,0.0,0.0,0.0,0.0,0.0,0.0,0.0,0.0,0.0,0.0,0.0,0.0,0.0,0.0,0.0,0.0,0.0,2.095,0.0,0.0,0.0,0.0,0.0,0.0,0.0,0.0,0.0,0.0,0.0,0.0,0.0,0.0,0.0,0.0,0.0,0.0,0.0,0.0,0.0,0.0,0.0,0.0,0.0,0.0,0.0,0.0,0.0,0.0,0.0,0.0,0.0,0.0,0.0,0.0,0.0,0.0,0.0,0.0,0.0,0.0,0.0,0.0,0.0,0.0,0.0,0.0,0.0,0.0,0.0,0.0,0.0,0.0,0.0,0.0,0.0,0.0,0.0,2.9722,3.213,3.2324,3.2459,3.2559,3.0326,2.8067,0.0,0.0,0.0,0.0,0.0,0.0,0.0,0.0,0.0,0.0,0.0,0.0,0.0,0.0,0.0,0.0,0.0,0.0,0.0,0.0,0.0,0.0,0.0,0.0,0.0,0.0,0.0,0.0,0.0,0.0,0.0,0.0,0.0,0.0,0.0,0.0,0.0,0.0,0.0,0.0,0.0,0.0,0.0,0.0,0.0,0.0,0.0,0.0,0.0,0.0,0.0,0.0,0.0,0.0,0.0,0.0,0.0,0.0,0.0,0.0,0.0,0.0,0.0,0.0,0.0,0.0,0.0,0.0,0.0,0.0,0.0,0.0,0.0,0.0,0.0,0.0,0.0,0.0,0.0,0.0,0.0,0.0,0.0,0.0,0.0,0.0,0.0,0.0,0.0,0.0,0.0,0.0,0.0,0.0,0.0,0.0,0.0,0.0,0.0,0.0,0.0,0.0,0.0,0.0,0.0,0.0,0.0,2.772,2.9393,3.1346,3.1722,3.1819,3.1703,2.9924,2.8056,2.6096,0.0,0.0,0.0,0.0,0.0,0.0,0.0,0.0,0.0,0.0,0.0,0.0,0.0,0.0,0.0,0.0,0.0,0.0,0.0,0.0,0.0,0.0,0.0,0.0,0.0,0.0,0.0,0.0,0.0,0.0,0.0,0.0,0.0,0.0,0.0,0.0,0.0,0.0,1.7301,1.952,0.0,0.0,0.0,0.0,0.0,0.0,0.0,0.0,2.2546,0.0,0.0,0.0,0.0,0.0,0.0,0.0,0.0,0.0,0.0,0.0,0.0,0.0,0.0,0.0,0.0,0.0,0.0,0.0,0.0,0.0,0.0,0.0,0.0,0.0,0.0,0.0,0.0,0.0,0.0,0.0,0.0,0.0,0.0,0.0,0.0,0.0,0.0,0.0,0.0,0.0,0.0,0.0,0.0,0.0,0.0,0.0,0.0,0.0,0.0,0.0,0.0,0.0,0.0,0.0,0.0,2.6137,2.8064,2.9717,3.1034,3.0982,3.1058,3.1309,2.9157,2.7164,2.5457,0.0,0.0,0.0,0.0,0.0,0.0,0.0,0.0,0.0,0.0,0.0,0.0,0.0,0.0,0.0,0.0,0.0,0.0,0.0,0.0,0.0,0.0,0.0,0.0,0.0,0.0,0.0,0.0,0.0,0.0,0.0,0.0,0.0,0.0,0.0,0.0,0.0,0.0,0.0,2.1949,2.3475,0.0,0.0,0.0,0.0,0.0,0.0,0.0,0.0,2.3471,0.0,0.0,0.0,0.0,0.0,0.0,0.0,0.0,0.0,0.0,0.0,0.0,0.0,0.0,0.0,0.0,0.0,0.0,0.0,0.0,0.0,0.0,0.0,0.0,0.0,0.0,0.0,0.0,0.0,0.0,0.0,0.0,0.0,0.0,0.0,0.0,0.0,0.0,0.0,0.0,0.0,0.0,0.0,0.0,0.0,0.0,0.0,0.0,0.0,0.0,0.0,0.0,0.0,0.0,0.0,2.5826,2.7428,2.882,3.0069,3.0197,3.0097,2.9821,2.7953,2.6168,0.0,0.0,0.0,0.0,0.0,0.0,0.0,0.0,0.0,0.0,0.0,0.0,0.0,0.0,0.0,0.0,0.0,0.0,0.0,0.0,0.0,0.0,0.0,0.0,0.0,0.0,0.0,0.0,0.0,0.0,0.0,0.0,0.0,0.0,0.0,0.0,0.0,0.0,0.0,0.0,2.2971,2.4187,2.4974,0.0,0.0,0.0,0.0,0.0,0.0,2.4995,2.478,0.0,0.0,0.0,0.0,0.0,0.0,0.0,0.0,0.0,0.0,0.0,0.0,0.0,0.0,0.0,0.0,0.0,0.0,0.0,0.0,0.0,0.0,0.0,0.0,0.0,0.0,0.0,0.0,0.0,0.0,0.0,0.0,0.0,0.0,0.0,0.0,0.0,0.0,0.0,0.0,0.0,0.0,0.0,0.0,0.0,0.0,0.0,0.0,0.0,0.0,0.0,0.0,0.0,0.0,0.0,2.5328,2.6599,2.7767,2.8897,2.9426,2.9262,2.8365,2.6898,2.5276,0.0,0.0,0.0,0.0,0.0,0.0,0.0,0.0,0.0,0.0,0.0,0.0,0.0,0.0,0.0,0.0,0.0,0.0,0.0,0.0,0.0,0.0,0.0,0.0,0.0,0.0,0.0,0.0,0.0,0.0,0.0,0.0,0.0,0.0,0.0,0.0,0.0,0.0,0.0,0.0,0.0,2.4702,2.5894,2.6147,0.0,0.0,0.0,0.0,2.6002,2.611,0.0,0.0,0.0,0.0,0.0,0.0,0.0,0.0,0.0,0.0,0.0,0.0,0.0,0.0,0.0,0.0,0.0,0.0,0.0,0.0,0.0,0.0,0.0,0.0,0.0,0.0,0.0,0.0,0.0,0.0,0.0,0.0,0.0,0.0,0.0,0.0,0.0,0.0,0.0,0.0,0.0,0.0,0.0,0.0,0.0,0.0,0.0,0.0,0.0,0.0,0.0,0.0,0.0,0.0,0.0,0.0,2.4358,2.6072,2.7202,2.7721,2.8798,2.8903,2.7893,2.6501,2.4692,0.0,0.0,0.0,0.0,0.0,0.0,0.0,0.0,0.0,0.0,0.0,0.0,0.0,0.0,0.0,0.0,0.0,0.0,0.0,0.0,0.0,0.0,0.0,0.0,0.0,0.0,0.0,0.0,0.0,0.0,0.0,0.0,0.0,0.0,0.0,0.0,0.0,0.0,0.0,0.0,0.0,2.5811,2.5985,2.6564,2.6743,0.0,0.0,2.6734,2.6019,2.6508,0.0,0.0,0.0,0.0,0.0,0.0,0.0,0.0,0.0,0.0,0.0,0.0,0.0,0.0,0.0,0.0,0.0,0.0,0.0,0.0,0.0,0.0,0.0,0.0,0.0,0.0,0.0,0.0,0.0,0.0,0.0,0.0,0.0,0.0,0.0,0.0,0.0,0.0,0.0,0.0,0.0,0.0,0.0,0.0,0.0,0.0,0.0,0.0,0.0,0.0,0.0,0.0,0.0,0.0,0.0,2.1711,2.4295,2.5329,2.6412,2.7573,2.8387,2.8155,2.6822,2.5521,2.3928,0.0,0.0,0.0,0.0,0.0,0.0,0.0,0.0,0.0,0.0,0.0,0.0,0.0,0.0,0.0,0.0,0.0,0.0,0.0,0.0,0.0,0.0,0.0,0.0,0.0,0.0,0.0,0.0,0.0,0.0,0.0,0.0,0.0,0.0,0.0,0.0,0.0,0.0,0.0,0.0,0.0,0.0,2.7819,2.8467,0.0,0.0,0.0,2.8687,2.8326,0.0,0.0,0.0,0.0,0.0,0.0,0.0,0.0,0.0,0.0,0.0,0.0,0.0,0.0,0.0,0.0,0.0,0.0,0.0,0.0,0.0,0.0,0.0,0.0,0.0,0.0,0.0,0.0,0.0,0.0,0.0,0.0,0.0,0.0,0.0,0.0,0.0,0.0,0.0,0.0,0.0,0.0,0.0,0.0,0.0,0.0,0.0,0.0,0.0,0.0,0.0,0.0,0.0,0.0,0.0,0.0,0.0,2.4311,2.4868,2.59,2.7434,2.7919,2.74,2.5851,2.4737,0.0,0.0,0.0,0.0,0.0,0.0,0.0,0.0,0.0,0.0,0.0,0.0,0.0,0.0,0.0,0.0,0.0,0.0,0.0,0.0,0.0,0.0,0.0,0.0,0.0,0.0,0.0,1.392,0.0,0.0,0.0,0.0,0.0,0.0,0.0,0.0,0.0,0.0,0.0,0.0,0.0,0.0,2.8596,2.9652,3.0034,3.0259,0.0,0.0,3.0263,3.0087,2.9601,2.8959,0.0,0.0,0.0,0.0,0.0,0.0,0.0,0.0,0.0,0.0,0.0,0.0,0.0,0.0,0.0,0.0,0.0,0.0,0.0,0.0,0.0,0.0,0.0,0.0,0.0,0.0,0.0,0.0,0.0,0.0,0.0,0.0,0.0,0.0,0.0,0.0,0.0,0.0,0.0,0.0,0.0,0.0,0.0,0.0,0.0,0.0,0.0,0.0,0.0,0.0,0.0,0.0,0.0,0.0,0.0,2.3977,2.4981,2.5962,2.6939,2.7283,2.6763,2.5295,2.4432,2.2798,0.0,0.0,0.0,0.0,0.0,0.0,0.0,0.0,0.0,0.0,0.0,0.0,0.0,0.0,0.0,0.0,0.0,0.0,0.0,0.0,0.0,0.0,0.0,0.0,0.0,0.0,0.0,0.0,0.0,0.0,0.0,0.0,0.0,0.0,0.0,0.0,0.0,0.0,0.0,0.0,0.0,2.8719,3.0871,3.0452,3.0211,0.0,0.0,3.0703,3.003,2.9946,2.9449,2.7974,0.0,0.0,0.0,0.0,0.0,0.0,0.0,0.0,0.0,0.0,0.0,0.0,0.0,0.0,0.0,0.0,0.0,0.0,0.0,0.0,0.0,0.0,0.0,0.0,0.0,0.0,0.0,0.0,0.0,0.0,0.0,0.0,0.0,0.0,0.0,0.0,0.0,0.0,0.0,0.0,0.0,0.0,0.0,0.0,0.0,0.0,0.0,0.0,0.0,0.0,0.0,0.0,0.0,2.2024,2.4215,2.4799,2.5724,2.7011,2.7021,2.6484,2.5456,2.4389,2.2936,0.0,0.0,0.0,0.0,0.0,0.0,0.0,0.0,0.0,0.0,0.0,0.0,0.0,0.0,0.0,0.0,0.0,0.0,0.0,0.0,0.0,0.0,0.0,0.0,0.0,0.0,0.0,0.0,1.8483,1.9589,2.0608,0.0,0.0,0.0,0.0,0.0,0.0,0.0,0.0,0.0,0.0,3.087,3.1732,3.2257,0.0,0.0,3.2414,3.2117,3.1428,3.0964,3.0323,2.9294,2.8245,0.0,0.0,0.0,0.0,0.0,0.0,0.0,0.0,0.0,0.0,0.0,0.0,0.0,0.0,0.0,0.0,0.0,0.0,0.0,0.0,0.0,0.0,0.0,0.0,0.0,0.0,0.0,0.0,0.0,0.0,0.0,0.0,0.0,0.0,0.0,0.0,0.0,0.0,0.0,0.0,0.0,0.0,0.0,0.0,0.0,0.0,0.0,0.0,0.0,0.0,0.0,0.0,2.2305,2.4204,2.4688,2.561,2.6954,2.6644,2.6143,2.5489,2.454,2.3312,0.0,0.0,0.0,0.0,0.0,0.0,0.0,0.0,0.0,0.0,0.0,0.0,0.0,0.0,0.0,0.0,0.0,0.0,0.0,0.0,0.0,0.0,0.0,0.0,0.0,0.0,0.0,0.0,1.9478,2.0671,2.2093,0.0,0.0,0.0,0.0,0.0,0.0,0.0,0.0,0.0,0.0,3.2597,3.3047,3.3686,3.409,3.4014,3.3516,3.3002,3.258,3.1716,3.0928,3.0401,0.0,0.0,0.0,0.0,0.0,0.0,0.0,0.0,0.0,0.0,0.0,0.0,0.0,0.0,0.0,0.0,0.0,0.0,0.0,0.0,0.0,0.0,0.0,0.0,0.0,0.0,0.0,1.892,0.0,0.0,1.7802,0.0,0.0,0.0,0.0,0.0,0.0,0.0,0.0,0.0,0.0,0.0,0.0,0.0,0.0,0.0,0.0,0.0,0.0,0.0,0.0,0.0,0.0,2.24,2.3799,2.4797,2.5675,2.648,2.6138,2.5693,2.5246,2.4926,2.3951,2.2236,0.0,0.0,0.0,0.0,0.0,0.0,0.0,0.0,0.0,0.0,0.0,0.0,0.0,0.0,0.0,0.0,0.0,0.0,0.0,0.0,0.0,0.0,0.0,0.0,0.0,0.0,1.9781,2.1402,2.2738,0.0,0.0,0.0,0.0,0.0,0.0,0.0,0.0,0.0,0.0,3.2168,3.3515,3.4894,3.4424,3.4299,3.5203,3.4106,3.3136,3.3196,3.2048,3.1095,0.0,0.0,0.0,0.0,0.0,0.0,0.0,0.0,0.0,0.0,0.0,0.0,0.0,0.0,0.0,0.0,0.0,0.0,0.0,0.0,0.0,0.0,0.0,0.0,0.0,0.0,0.0,2.1937,2.1848,0.0,0.0,0.0,0.0,0.0,0.0,0.0,0.0,0.0,0.0,0.0,2.5525,2.536,0.0,0.0,0.0,0.0,0.0,0.0,0.0,0.0,0.0,0.0,0.0,0.0,2.3178,2.413,2.5084,2.5752,2.6082,2.5866,2.5659,2.5396,2.487,2.3827,2.2194,0.0,0.0,0.0,0.0,0.0,0.0,0.0,0.0,0.0,0.0,0.0,0.0,0.0,0.0,0.0,0.0,0.0,0.0,0.0,0.0,0.0,0.0,0.0,0.0,0.0,1.9717,0.0,0.0,0.0,0.0,0.0,0.0,0.0,0.0,0.0,0.0,0.0,3.1426,3.2136,3.335,3.4401,3.4995,3.5207,3.5338,0.0,0.0,0.0,0.0,0.0,0.0,0.0,0.0,0.0,0.0,0.0,0.0,0.0,0.0,3.086,3.0075,2.9325,2.8698,2.832,0.0,0.0,0.0,0.0,0.0,0.0,0.0,0.0,0.0,0.0,0.0,0.0,0.0,0.0,2.507,0.0,2.3783,0.0,0.0,0.0,0.0,0.0,0.0,0.0,0.0,2.6207,2.6801,2.8037,2.7538,2.7182,0.0,2.5828,2.4387,0.0,0.0,0.0,0.0,0.0,0.0,0.0,0.0,2.3569,2.4144,2.5038,2.5603,2.5824,2.5619,2.5522,2.5481,2.4927,2.3912,2.2421,2.1278,1.9971,0.0,0.0,0.0,0.0,0.0,0.0,0.0,0.0,0.0,0.0,0.0,0.0,0.0,0.0,0.0,0.0,0.0,0.0,0.0,0.0,0.0,0.0,0.0,2.0953,0.0,0.0,0.0,0.0,0.0,0.0,0.0,0.0,0.0,2.9948,3.155,3.2921,3.3327,3.4361,3.5112,3.5192,0.0,0.0,0.0,0.0,0.0,0.0,0.0,3.4644,3.4417,3.3955,3.352,3.321,3.3057,3.3298,3.4341,0.0,0.0,3.2447,3.1605,3.0891,3.0212,2.9605,2.9146,2.8876,2.8641,2.8381,0.0,0.0,0.0,0.0,0.0,0.0,0.0,0.0,2.836,2.8263,0.0,2.6141,0.0,0.0,0.0,0.0,0.0,2.5555,0.0,0.0,2.8603,2.9201,3.0352,2.938,2.8801,2.8571,2.7045,2.6144,2.5768,2.297,0.0,0.0,0.0,0.0,0.0,0.0,2.3621,2.3884,2.472,2.5329,2.5702,2.5383,2.53,2.5467,2.5036,2.4213,2.302,2.2656,2.1444,1.9137,1.8691,0.0,0.0,0.0,0.0,0.0,0.0,0.0,0.0,0.0,0.0,0.0,0.0,0.0,0.0,0.0,0.0,0.0,0.0,0.0,0.0,2.1297,0.0,0.0,0.0,0.0,0.0,0.0,0.0,0.0,0.0,0.0,3.1878,3.3031,3.4041,3.4507,0.0,0.0,0.0,0.0,3.5984,3.6324,3.6242,3.6249,3.6433,3.5759,3.5452,3.6133,0.0,0.0,3.547,3.5628,3.5819,3.626,3.6192,3.5519,3.365,3.3177,3.2513,3.0849,3.0172,2.9721,2.9675,2.9424,2.8979,3.4275,0.0,0.0,0.0,0.0,3.0846,3.0759,3.0506,3.0731,3.0696,3.0446,2.9454,0.0,0.0,0.0,0.0,0.0,0.0,2.8539,3.0414,3.0179,3.047,3.1172,3.0687,3.0331,3.0027,2.8447,2.7612,2.7353,2.5015,2.3535,2.292,0.0,0.0,0.0,0.0,2.42,2.4833,2.539,2.584,2.6187,2.5561,2.5174,2.5132,2.5107,2.4764,2.4071,2.3309,2.2491,2.1501,1.9806,0.0,0.0,0.0,0.0,0.0,0.0,0.0,0.0,0.0,0.0,0.0,0.0,0.0,0.0,0.0,0.0,0.0,0.0,0.0,2.1564,2.299,2.4041,0.0,0.0,0.0,0.0,0.0,0.0,0.0,0.0,0.0,3.4097,3.4905,3.5671,0.0,0.0,3.6778,3.688,3.7082,3.7312,3.7621,3.7711,0.0,3.7761,3.75,3.7336,3.7467,3.7107,3.6777,3.6716,3.6665,3.6804,3.7345,3.7336,3.6976,3.6263,3.5278,3.4444,3.3799,3.3173,3.2586,3.2185,3.1848,3.1499,3.7998,3.5909,3.4276,3.3539,3.3517,3.3738,3.3596,3.3263,3.3553,3.3335,3.2681,3.1944,3.1213,3.0472,2.9502,0.0,0.0,0.0,3.0043,3.169,3.1366,3.1503,3.1959,3.1485,3.1063,3.072,2.9416,2.8657,2.8439,2.6797,2.5655,2.4965,0.0,0.0,2.3993,2.4348,2.4722,2.5133,2.5544,2.5814,2.5906,2.5393,2.5075,2.5005,2.5118,2.497,2.4515,2.3848,2.316,2.2485,2.0968,1.9682,0.0,0.0,0.0,0.0,0.0,0.0,0.0,0.0,0.0,0.0,0.0,1.583,1.6572,0.0,0.0,0.0,2.0702,2.2077,2.309,2.4487,0.0,0.0,0.0,0.0,0.0,0.0,0.0,3.3738,3.5244,3.6265,3.6282,3.6982,3.7239,3.6541,3.6746,3.7014,3.7153,0.0,3.7658,3.7909,3.8252,3.8486,3.8459,3.8398,3.8287,3.8088,3.8204,3.817,3.7884,3.7771,3.7814,3.8075,3.8071,3.7907,3.7702,3.6807,3.5894,3.5302,3.4685,3.404,3.3465,3.3033,3.2566,4.0855,4.0592,3.7731,3.6436,3.6344,3.6741,3.6474,3.583,3.6449,3.5925,3.4482,3.3887,3.3184,3.2398,3.1283,0.0,3.144,3.105,3.1546,3.2672,3.2292,3.2328,3.2689,3.1817,3.1243,3.0871,2.9963,2.9349,2.9002,2.8194,2.7738,2.7557,2.5562,2.468,2.4933,2.5148,2.519,2.504,2.5328,2.5383,2.5188,2.5116,2.5059,2.4991,2.5132,2.4984,2.4598,2.4172,2.3521,2.2588,2.2063,2.1062,1.9502,0.0,0.0,0.0,0.0,0.0,0.0,0.0,0.0,0.0,0.0,0.0,0.0,0.0,0.0,0.0,2.2627,0.0,2.4495,2.5955,0.0,0.0,0.0,3.081,3.164,3.3074,3.4449,3.5622,0.0,0.0,3.8169,3.8905,3.8602,3.6402,3.6559,3.6908,3.7062,3.7419,3.7628,3.804,3.8489,3.8895,3.895,3.8778,3.8533,3.8258,3.8768,3.9049,3.8761,3.8682,3.8678,3.8539,3.8434,3.829,3.8148,3.7616,3.6962,3.5613,3.5051,3.4554,3.394,3.3226,3.2535,4.2076,4.1958,4.0687,3.9283,3.792,3.7518,3.723,3.7076,3.7244,3.7008,3.649,3.6348,3.5696,3.4655,3.3615,3.3338,3.3617,3.3332,3.3269,3.3423,3.3187,3.275,3.2191,3.1813,3.1398,3.0937,3.0129,2.9593,2.9262,2.8326,2.7797,2.764,2.7046,2.6465,2.5937,2.5317,2.5389,2.619,2.5591,2.5188,2.5061,2.5453,2.5466,2.5004,2.5033,2.5119,2.5246,2.425,2.3737,2.3736,2.2415,2.1521,2.1268,1.9748,0.0,0.0,0.0,0.0,0.0,0.0,0.0,0.0,0.0,1.9103,2.0098,0.0,2.169,0.0,2.3926,2.566,2.7325,2.8122,0.0,0.0,3.1656,3.3101,3.3653,3.5327,3.6615,3.7064,3.7699,3.8109,3.8196,3.8513,3.8536,3.795,3.8645,3.9244,3.9373,3.9907,4.0315,4.0428,4.0735,4.0876,4.0184,3.9418,3.886,3.8682,3.8816,3.8846,3.8672,3.856,3.8462,3.8307,3.8135,3.7902,3.7654,3.7403,3.6964,3.6183,3.583,3.5456,3.4772,3.402,3.3283,4.2552,4.2486,4.1753,4.081,3.9778,3.9053,3.853,3.8166,3.8166,3.7851,3.7297,3.6852,3.6238,3.5551,3.4779,3.4489,3.4551,3.4246,3.4034,3.392,3.3658,3.303,3.2119,3.1929,3.1427,3.0673,3.0072,2.9704,2.9464,2.8763,2.8397,2.8307,2.7995,2.7583,2.7129,2.6329,2.6216,2.6765,2.5942,2.5348,2.5018,2.5331,2.5358,2.5004,2.5061,2.5216,2.5467,2.4333,2.3836,2.4112,2.2748,2.1901,2.1765,2.0683,1.984,0.0,0.0,0.0,0.0,0.0,0.0,0.0,0.0,0.0,0.0,0.0,2.3858,2.4904,2.6043,2.7398,2.898,2.9901,3.0761,3.1511,3.3334,3.4646,3.4979,3.6598,3.7725,3.7922,3.8481,3.8872,3.8872,3.9043,3.9212,3.9281,3.9832,4.0166,4.0048,4.0496,4.0956,4.1083,4.1314,4.1373,4.0814,4.0294,3.9846,3.9687,3.9601,3.9503,3.936,3.8972,3.8618,3.844,3.8009,3.7581,3.7237,3.6937,3.6569,3.6101,3.5671,3.5264,3.4771,3.4167,3.3479,4.2507,4.2443,4.1798,4.1461,4.1314,4.0613,3.9841,3.9029,3.892,3.8393,3.7459,3.6495,3.5986,3.5834,3.5386,3.51,3.4925,3.4558,3.4318,3.4197,3.3879,3.3245,3.2316,3.2089,3.1444,3.0448,3.0111,2.9921,2.9763,2.9362,2.9191,2.915,2.8569,2.8264,2.8222,2.7682,2.7235,2.6978,2.6341,2.5724,2.5141,2.5046,2.4991,2.5005,2.5118,2.5272,2.5453,2.4469,2.4013,2.4213,2.3251,2.2463,2.2012,2.1643,2.1243,0.0,2.0377,0.0,0.0,0.0,0.0,0.0,0.0,0.0,0.0,2.5202,2.63,2.7903,2.8469,2.9154,3.0178,3.1496,3.2514,3.3073,3.4589,3.5665,3.5949,3.7237,3.8186,3.8379,3.9104,3.9592,3.9529,3.9783,3.998,4.0063,4.0261,4.0287,3.9992,4.0382,4.0826,4.086,4.0975,4.114,4.1014,4.0918,4.0745,4.0581,4.0401,4.0379,4.0147,3.9563,3.8998,3.8752,3.816,3.7539,3.7125,3.6707,3.6234,3.5803,3.5197,3.468,3.4363,3.3842,3.3234,4.2028,4.1996,4.1691,4.1229,4.0674,4.053,4.0023,3.9269,3.8572,3.8021,3.7623,3.7158,3.6843,3.6635,3.6351,3.6045,3.5751,3.5531,3.4992,3.4184,3.3964,3.3369,3.248,3.2086,3.1661,3.1206,3.0963,3.0795,3.0649,2.9934,2.9586,2.9572,2.8871,2.8536,2.8536,0.0,0.0,0.0,2.6714,2.6333,2.5752,2.5249,2.4991,2.4991,2.5019,0.0,2.5467,2.4776,2.4614,2.5082,2.4474,0.0,0.0,0.0,0.0,0.0,0.0,0.0,0.0,0.0,0.0,0.0,2.6805,2.6465,2.6556,2.7357,2.8428,2.9751,3.0313,3.1067,3.2218,3.2925,3.3674,3.458,3.545,3.6199,3.6721,3.7615,3.8251,3.8451,3.8774,3.898,3.8998,3.9283,3.9532,3.9589,3.9968,4.0263,4.0325,4.1015,4.1646,4.1773,4.1556,4.1356,4.1264,4.0765,4.0447,4.0167,4.0106,4.0046,3.9893,3.9658,3.9345,3.9125,3.8747,3.8303,3.7963,3.7485,3.6711,3.5809,3.505,3.4404,3.3988,3.3371,3.265,4.1519,0.0,4.1289,4.0986,0.0,4.0182,3.9798,3.9377,3.8516,3.7794,3.7195,3.6861,3.6616,3.643,3.6147,3.5861,3.5589,3.5329,3.4938,3.4447,3.4041,3.3392,3.2538,3.2177,3.1691,3.116,3.0945,3.0827,3.0729,3.0282,2.9898,2.9615,2.922,2.8902,2.86,2.8587,2.8153,2.7255,2.7242,2.6809,2.5956,2.5886,2.5751,2.5453,2.5497,0.0,0.0,0.0,0.0,0.0,0.0,0.0,0.0,0.0,0.0,2.5252,2.5187,2.5585,2.6492,2.6398,2.7101,2.8926,2.9344,2.9271,2.8687,2.9549,3.0504,3.1437,3.192,3.255,3.3445,3.4064,3.4584,3.5111,3.5891,3.6581,3.6973,3.7448,3.7825,3.8028,3.8206,3.8393,3.8486,3.8775,3.9031,3.9228,3.9574,3.9879,4.0141,4.0901,4.1571,4.1802,4.1709,4.1534,4.1438,4.1167,4.0864,4.0801,4.0706,4.0578,4.0417,3.9972,3.9542,3.9251,3.8708,3.8179,3.7709,3.7166,3.6529,3.5788,3.5023,3.4375,3.3871,3.2987,3.2037,4.0949,4.0916,4.0746,4.0677,4.0614,3.9854,3.9412,3.9197,0.0,0.0,0.0,3.624,3.5942,3.5782,3.5489,3.5228,3.4999,3.4716,3.4563,3.4496,3.3957,3.3345,3.2661,3.2287,3.1778,3.1137,3.0883,3.078,3.0763,3.056,3.0193,2.9754,2.9602,2.928,2.8741,2.8592,2.8311,2.7879,2.7759,2.7216,2.6268,2.6604,2.6577,2.6077,2.6167,2.624,2.6241,2.5564,2.5438,2.5967,2.5752,2.5832,2.6299,2.6398,2.6455,2.654,2.6554,2.7013,2.8101,2.8049,2.8666,3.0297,3.1209,3.1394,3.0646,3.1464,3.2272,3.2859,3.3302,3.3755,3.4265,3.4899,3.5294,3.538,3.6101,3.6668,3.6861,3.7109,3.7322,3.7476,3.7711,3.792,3.8071,3.8273,3.8519,3.8852,3.9104,3.9352,3.9646,4.037,4.1038,4.1306,4.131,4.1375,4.1391,4.1327,4.1406,4.1263,4.1178,4.1105,4.0842,4.03,3.9707,3.9253,3.8542,3.7955,3.7375,3.6851,3.6201,3.5723,3.4994,3.4265,3.3646,3.2617,3.1565,4.032,4.0303,4.0174,4.0119,4.0086,3.9804,3.9143,3.8232,3.744,3.6948,3.6645,3.5745,3.5231,3.505,3.4883,3.4599,3.4264,3.4182,3.4023,3.3744,3.3501,3.322,3.2915,3.2429,3.2132,3.1996,3.1635,3.1466,3.1412,3.0931,3.0606,3.0472,3.0014,2.9552,2.911,2.8589,2.8387,2.8451,2.7963,2.7608,2.7447,2.7025,2.6781,2.6686,2.6687,2.6764,2.6858,2.6738,2.6872,2.7232,2.7207,2.7208,2.7305,2.7779,2.8248,2.8654,2.9119,2.97,3.0378,3.0264,3.0426,3.1107,3.2005,3.2402,3.2135,3.2595,3.3157,3.3685,3.4204,3.4597,3.4733,3.5241,3.5674,3.5915,3.6077,3.6252,3.649,3.6811,3.7051,3.7076,3.7419,3.7629,3.7687,3.7844,3.8052,3.8296,3.8519,3.8756,3.918,3.9829,4.037,4.061,4.0662,4.0646,4.0663,4.0662,4.0679,4.0662,4.0627,4.0457,4.0128,3.9934,3.9599,3.9179,3.873,3.8341,3.7802,3.7306,3.6474,3.5612,3.4804,3.396,3.3067,3.206,3.1227,4.0057,3.977,3.9559,3.9502,3.9499,3.9289,3.8872,3.8244,3.7473,3.6924,3.6522,3.5762,3.5248,3.4913,3.444,3.4091,3.3833,3.3597,3.3409,3.3231,3.2888,3.2656,3.2534,3.2109,3.1872,3.1853,3.1701,3.159,3.1564,3.1316,3.1023,3.0694,3.0099,2.9695,2.9501,2.8926,2.8679,2.8748,2.8379,2.803,2.7718,2.7743,2.7608,2.7296,2.7282,2.7313,2.7378,2.7141,2.7234,2.7685,2.7819,2.803,2.8347,2.8835,2.9194,2.9421,2.9928,3.0497,3.1086,3.1249,3.1527,3.2018,3.234,3.2798,3.334,3.359,3.3787,3.405,3.462,3.4996,3.5116,3.5379,3.5622,3.5844,3.6012,3.6146,3.6246,3.6476,3.6674,3.6707,3.6831,3.7046,3.7245,3.7347,3.7539,3.782,3.8033,3.8315,3.8701,3.9068,3.9487,3.9915,4.0071,4.0071,4.0071,4.0053,4.0003,3.9932,3.9915,3.9722,3.94,3.931,3.9056,3.8579,3.8296,3.7905,3.7318,3.6696,3.6039,3.5418,3.4537,3.3671,3.2874,3.1527,3.0205,3.9906,3.9477,3.9109,3.8907,3.8815,3.8668,3.8482,3.8248,3.7579,3.7036,3.6545,3.5877,3.5353,3.4943,3.4182,3.3737,3.3544,3.3075,3.286,3.2771,3.2336,3.2091,3.1968,3.1633,3.1429,3.1405,3.1355,3.1317,3.1336,3.1336,3.1098,3.0609,3.0019,2.9777,2.9852,2.9265,2.9008,2.9084,2.8943,2.8544,2.7886,2.834,2.8386,2.7949,2.7879,2.7908,2.7881,2.7557,2.7646,2.8222,2.84,2.8752,2.9373,2.9676,2.9908,3.0071,3.0354,3.0779,3.1338,3.1774,3.2192,3.2589,3.2636,3.3045,3.3913,3.4064,3.4191,3.4419,3.4826,3.5161,3.527,3.5325,3.5399,3.5622,3.5817,3.5932,3.6012,3.6206,3.6345,3.6331,3.6371,3.6549,3.6772,3.687,3.7031,3.7413,3.7634,3.7901,3.8217,3.8292,3.8594,3.9056,3.9397,3.9451,3.9433,3.9397,3.934,3.9166,3.9144,3.8929,3.8653,3.8538,3.8248,3.7715,3.7429,3.7023,3.6401,3.5797,3.527,3.4746,3.3964,3.3173,3.2355,3.0716,2.9118,3.9826,3.9626,3.8891,3.8333,3.8037,3.8014,3.7882,3.7668,3.7419,3.7184,3.68,3.5872,3.5321,3.5002,3.4258,3.3779,3.3509,3.2804,3.2395,3.2259,3.2036,3.173,3.1384,3.1142,3.0949,3.0792,3.0628,3.0558,3.0539,3.052,3.0463,3.036,2.9839,2.9735,2.9962,2.9475,2.9333,2.9696,2.9708,2.9224,2.8333,2.8481,2.856,2.8535,2.8521,2.8519,2.8505,2.8467,2.8728,2.9287,2.9358,2.9658,3.0167,3.0313,3.0585,3.1074,3.1019,3.1119,3.1549,3.2054,3.2349,3.2482,3.3028,3.3391,3.3587,3.3687,3.4118,3.4733,3.5012,3.5072,3.5113,3.5127,3.5216,3.5399,3.546,3.5521,3.5723,3.5958,3.6112,3.6132,3.6246,3.6411,3.6451,3.649,3.6634,3.6993,3.7206,3.7419,3.7629,3.7687,3.7763,3.8113,3.8505,3.8727,3.8668,3.8608,3.8553,3.8371,3.8315,3.8127,3.7844,3.7672,3.7443,3.6736,3.6466,3.6143,3.5453,3.4846,3.4364,3.386,3.3095,3.2164,3.1045,2.9711,2.8508,3.972,3.9025,3.8654,3.8208,3.7739,3.7596,3.7424,3.7211,3.7031,3.6758,3.6368,3.5825,3.5405,3.5051,3.4269,3.3615,3.3061,3.2612,3.2149,3.1669,3.1471,3.123,3.0949,3.0748,3.0539,3.0343,3.0247,3.0139,3.0005,2.9967,3.0056,3.0196,2.9954,2.9997,3.0209,2.968,2.9481,2.96,2.9507,2.9245,2.8887,2.8926,2.8776,2.8509,2.8863,2.9132,2.9159,2.9455,2.9767,3.0011,2.9909,2.9953,3.0192,3.0425,3.0681,3.0954,3.1213,3.1576,3.203,3.2068,3.2337,3.2995,3.3092,3.3282,3.3571,3.3682,3.3894,3.4209,3.4397,3.4556,3.4667,3.4818,3.5003,3.5175,3.5229,3.5297,3.5501,3.5602,3.5717,3.5858,3.5938,3.6058,3.6192,3.6331,3.6451,3.6628,3.6733,3.685,3.7031,3.7056,3.7153,3.7347,3.7601,3.7806,3.7915,3.7972,3.7839,3.7596,3.75,3.7347,3.6964,3.6833,3.6559,3.5736,3.5615,3.5237,3.4426,3.3903,3.3416,3.2859,3.1867,3.0813,2.9897,2.8741,2.7639,3.9672,3.8828,3.8414,3.7963,3.7514,3.718,3.6934,3.6705,3.6508,3.6224,3.5844,3.5642,3.5312,3.4859,3.4247,3.3624,3.301,3.2626,3.207,3.1399,3.1095,3.0802,3.0464,3.0216,3.0024,2.9863,2.9812,2.9703,2.9542,2.9542,2.9632,2.9805,2.9825,2.994,3.0069,2.9738,2.9616,2.9666,2.9582,2.946,2.9301,2.9328,2.9152,2.8795,2.9265,2.9592,2.9605,3.0007,3.03,3.0479,3.0344,3.0341,3.0516,3.0793,3.0907,3.0838,3.1336,3.1764,3.2065,3.2084,3.2421,3.3105,3.3034,3.3085,3.3327,3.3386,3.3343,3.3377,3.3654,3.3928,3.4189,3.4452,3.4694,3.4887,3.497,3.5106,3.5277,3.5318,3.5392,3.5521,3.5541,3.5602,3.5777,3.5918,3.6018,3.6112,3.6132,3.6198,3.6363,3.6429,3.6488,3.6626,3.6646,3.6861,3.7245,3.7269,3.7109,3.6856,3.6685,3.6474,3.6084,3.5984,3.5669,3.4922,3.4791,3.4356,3.3543,3.2966,3.2283,3.1615,3.0701,2.9692,2.9001,2.7957,2.6988,3.9704,3.9438,3.8188,3.7532,3.7287,3.6693,3.6278,3.6051,3.5831,3.5609,3.5399,3.5195,3.484,3.4425,3.4204,3.4,3.3647,3.2948,3.2234,3.1481,3.1078,3.0517,2.9843,2.9567,2.9353,2.9189,2.9189,2.9131,2.9099,2.9111,2.9131,2.915,2.9157,2.9248,2.9477,2.9646,2.9864,2.9942,3.0107,3.0047,2.958,2.9667,2.975,2.9706,2.9771,2.9801,2.9815,2.9841,3.0121,3.0659,3.0668,3.0903,3.1422,3.1479,3.1294,3.1075,3.1489,3.1636,3.1538,3.2221,3.2746,3.2653,3.2874,3.2975,3.2806,3.268,3.2584,3.2509,3.293,3.3292,3.3683,3.3992,3.4243,3.4439,3.466,3.4893,3.5086,3.5127,3.5113,3.5134,3.5175,3.5216,3.5175,3.5154,3.5318,3.544,3.546,3.5541,3.5743,3.5784,3.577,3.577,3.5831,3.5971,3.6547,3.6514,3.6282,3.6044,3.5817,3.5629,3.5358,3.5065,3.4543,3.4092,3.3882,3.3416,3.2643,3.1845,3.107,3.034,2.968,2.885,2.8267,2.7702,2.6785,3.9679,3.9213,3.8172,3.7483,3.6982,3.6538,3.6062,3.5602,3.5209,3.4956,3.4763,3.4556,3.4272,3.3932,3.3785,3.3509,3.3193,3.2764,3.2176,3.145,3.1117,3.0588,2.9915,2.9766,2.9339,2.8793,2.8729,2.859,2.8351,2.8311,2.8471,2.8677,2.8709,2.8875,2.9157,2.9287,2.9397,2.9463,2.9664,2.9731,2.9701,2.9884,3.0065,3.0175,3.0174,3.0228,3.0383,3.0743,3.099,3.1084,3.0969,3.0932,3.1011,3.0911,3.0948,3.1119,3.1313,3.1601,3.1985,3.2287,3.2517,3.2623,3.262,3.2615,3.2519,3.2431,3.24,3.2444,3.2497,3.2766,3.3077,3.3513,3.3937,3.4181,3.4285,3.4528,3.4797,3.4921,3.4942,3.5065,3.5093,3.5093,3.5072,3.5093,3.5113,3.5175,3.5195,3.5236,3.5277,3.5318,3.5236,3.51,3.5059,3.5087,3.5127,3.5467,3.5467,3.5209,3.4997,3.4675,3.4397,3.4251,3.3839,3.3202,3.2945,3.2435,3.1659,3.0801,3.0,2.9359,2.8664,2.8196,2.7641,2.7003,2.6194,3.9316,3.8858,3.81,3.7526,3.7104,3.6557,3.5953,3.535,3.4944,3.4546,3.4194,3.3971,3.3738,3.3492,3.327,3.3008,3.2752,3.2605,3.216,3.1456,3.1124,3.06,2.9996,2.9791,2.9429,2.8848,2.8601,2.8309,2.7933,2.7901,2.8042,2.8291,2.8311,2.8431,2.8689,2.8835,2.8914,2.8966,2.9157,2.9404,2.9573,2.9708,2.9889,3.0037,3.0097,3.0243,3.0587,3.1014,3.1155,3.1011,3.0879,3.0742,3.0603,3.0567,3.0656,3.0947,3.1249,3.159,3.2089,3.2243,3.2326,3.2457,3.2288,3.2135,3.206,3.2006,3.1972,3.2038,3.2147,3.2245,3.2516,3.3022,3.3513,3.3823,3.4013,3.4202,3.4515,3.4611,3.4722,3.4791,3.4846,3.4846,3.488,3.4867,3.4825,3.4797,3.4777,3.4777,3.4681,3.4626,3.4605,3.4405,3.4397,3.4293,3.423,3.4335,3.4543,3.4343,3.4217,3.3873,3.3543,3.3394,3.304,3.2404,3.1825,3.1339,3.0633,2.9795,2.9106,2.849,2.8021,2.756,2.6931,2.625,2.5502,3.8589,3.8491,3.7967,3.7639,3.7431,3.6717,3.5974,3.5309,3.4955,3.4375,3.3781,3.3475,3.3249,3.3068,3.2788,3.2568,3.2423,3.2463,3.2148,3.1525,3.1104,3.0612,3.0001,2.9697,2.9449,2.9256,2.8847,2.8378,2.7985,2.7985,2.7993,2.796,2.8004,2.8032,2.7953,2.8331,2.849,2.857,2.8847,2.9045,2.9091,2.9111,2.9248,2.9399,2.9447,2.9724,3.0317,3.0413,3.0413,3.0406,3.0368,3.0387,3.042,3.0602,3.0721,3.0773,3.1319,3.1653,3.1626,3.2056,3.2171,3.1981,3.1783,3.1594,3.1417,3.1229,3.1196,3.1385,3.1606,3.1805,3.2047,3.2441,3.2927,3.3356,3.3759,3.4034,3.4139,3.4272,3.4377,3.4384,3.441,3.4397,3.4397,3.4397,3.4335,3.4222,3.4181,3.4118,3.3979,3.3903,3.3789,3.3747,3.3704,3.362,3.342,3.3283,3.342,3.3492,3.3386,3.3172,3.2806,3.2578,3.2208,3.1605,3.088,3.0363,2.9818,2.9024,2.842,2.7844,2.7394,2.6931,2.6322,2.5688,2.4946,3.8063,3.8027,3.7701,3.7306,3.6908,3.6511,3.5865,3.5069,3.4492,3.3972,3.3505,3.295,3.2671,3.254,3.2201,3.1981,3.1893,3.1673,3.1555,3.153,3.1178,3.0663,3.0206,3.0005,2.9665,2.9166,2.8819,2.8615,2.8464,2.843,2.8365,2.8212,2.8174,2.8058,2.7951,2.8022,2.8082,2.8102,2.8203,2.8331,2.8478,2.863,2.8808,2.8969,2.9118,2.9326,2.9502,2.9767,2.9832,2.9754,2.971,2.9807,3.0082,3.0492,3.0869,3.1169,3.1403,3.1642,3.1656,3.1772,3.1739,3.1419,3.1275,3.1196,3.1107,3.1017,3.0995,3.1095,3.1296,3.1528,3.1783,3.2025,3.2472,3.3111,3.3454,3.3696,3.3844,3.3915,3.3915,3.3924,3.3915,3.3937,3.3937,3.3937,3.3915,3.3818,3.381,3.3747,3.367,3.3513,3.3441,3.3347,3.3163,3.2923,3.2732,3.2516,3.2503,3.2578,3.2513,3.2426,3.2111,3.1759,3.1361,3.0791,3.0068,2.9451,2.8885,2.835,2.7796,2.7228,2.6764,2.6284,2.5766,2.5139,2.4459,3.7523,3.75,3.7294,3.6985,3.6629,3.6317,3.5747,3.506,3.4482,3.3861,3.3241,3.2675,3.2252,3.1974,3.1584,3.1429,3.1407,3.1028,3.1005,3.1239,3.1016,3.0639,3.0347,3.0235,2.9857,2.9275,2.9064,2.8884,2.87,2.8677,2.8615,2.8457,2.8443,2.8368,2.8221,2.8259,2.8301,2.831,2.8439,2.8519,2.8662,2.8765,2.8896,2.9006,2.914,2.9201,2.9229,2.946,2.959,2.9599,2.9697,2.9885,3.0098,3.0441,3.0786,3.1043,3.1245,3.1346,3.1426,3.1417,3.134,3.1074,3.0905,3.0848,3.0826,3.0793,3.0713,3.0848,3.0971,3.115,3.1429,3.1705,3.2113,3.2506,3.3025,3.3377,3.3607,3.3691,3.3713,3.3734,3.3713,3.3691,3.3691,3.362,3.3556,3.3492,3.3386,3.3292,3.3215,3.3099,3.2939,3.2766,3.259,3.2307,3.2035,3.1815,3.1627,3.1627,3.1615,3.156,3.1361,3.1049,3.069,3.0,2.9301,2.8792,2.8233,2.7844,2.7333,2.675,2.6163,2.5742,2.528,2.4716,2.411,3.7015,3.7004,3.6745,3.6615,3.653,3.6153,3.5655,3.5153,3.4807,3.3976,3.3006,3.2619,3.2091,3.1461,3.1225,3.1111,3.0927,3.069,3.0578,3.0645,3.0578,3.0531,3.0451,3.0294,2.9973,2.9607,2.9527,2.9297,2.8976,2.8941,2.8758,2.8801,2.8801,2.8722,2.866,2.8859,2.8875,2.8862,2.9114,2.922,2.9242,2.9286,2.9308,2.9317,2.9357,2.9367,2.9385,2.9487,2.9636,2.9853,3.0087,3.0274,3.0377,3.0467,3.0593,3.0686,3.0847,3.0956,3.0995,3.1017,3.0972,3.0883,3.0679,3.06,3.0555,3.042,3.0374,3.0567,3.0645,3.0747,3.1028,3.1362,3.1651,3.1793,3.2506,3.3133,3.3535,3.3543,3.3458,3.3501,3.3586,3.3607,3.3479,3.3364,3.3227,3.3056,3.284,3.2646,3.2516,3.2429,3.2232,3.2079,3.1957,3.1715,3.1439,3.1205,3.1026,3.0859,3.0825,3.0735,3.0623,3.0329,3.0011,2.9324,2.8664,2.8149,2.7702,2.7323,2.6798,2.6177,2.5693,2.5255,2.479,2.4257,2.3852,3.5991,3.5991,3.5919,3.5895,3.5871,3.5752,3.5391,3.4884,3.4412,3.3826,3.3161,3.2688,3.218,3.1617,3.1388,3.1098,3.0739,3.042,3.0306,3.0306,3.0306,3.0306,3.0306,3.0238,3.0124,3.0009,2.9975,2.9941,2.9825,2.9745,2.9574,2.9297,2.9274,2.9101,2.8791,2.8823,2.8765,2.8786,2.8853,2.894,2.8973,2.9081,2.9098,2.9131,2.9307,2.9404,2.9449,2.9799,2.9805,2.9569,2.9993,3.0257,3.0304,3.0609,3.078,3.0805,3.0877,3.0905,3.0747,3.0702,3.0612,3.0431,3.0363,3.0306,3.0306,3.0227,3.0238,3.0352,3.0487,3.0623,3.0724,3.1005,3.1229,3.1461,3.2091,3.2605,3.2745,3.2757,3.2745,3.2745,3.2788,3.2776,3.2776,3.2689,3.2636,3.254,3.2354,3.2167,3.2013,3.1771,3.1572,3.1484,3.135,3.1128,3.087,3.0623,3.0408,3.0171,3.0068,2.9943,2.9806,2.9588,2.9278,2.8839,2.8196,2.7641,2.7251,2.688,2.6259,2.5659,2.5304,2.4922,2.4406,2.3895,2.3546,3.5548,3.5416,3.532,3.5199,3.5102,3.5017,3.4799,3.4495,3.4184,3.3694,3.3156,3.2839,3.2335,3.174,3.1379,3.109,3.0732,3.0365,3.0216,3.0216,3.0216,3.0216,3.0216,3.0216,3.0216,3.0216,3.0193,3.0204,3.0193,3.0216,3.0055,2.9848,2.9791,2.9608,2.9412,2.9332,2.931,2.9355,2.931,2.931,2.9332,2.9453,2.9509,2.9541,2.9662,2.974,2.9798,2.9965,2.995,2.9855,3.0132,3.0381,3.0382,3.0539,3.0668,3.0646,3.0668,3.0567,3.0465,3.0363,3.0227,3.0091,3.0,2.992,2.9897,2.9886,2.992,2.992,3.0057,3.017,3.0341,3.0623,3.0916,3.1162,3.1574,3.1928,3.2157,3.2366,3.24,3.2366,3.231,3.2232,3.2223,3.2069,3.1959,3.1893,3.1717,3.1594,3.1506,3.1205,3.0959,3.0859,3.0702,3.0476,3.0261,3.0057,2.9829,2.9588,2.9301,2.9197,2.9105,2.8896,2.8594,2.8233,2.7665,2.719,2.6856,2.6438,2.5873,2.5377,2.4996,2.4578,2.4069,2.3721,2.3381,3.5308,3.5078,3.4823,3.4592,3.4396,3.4187,3.4162,3.4075,3.404,3.3646,3.3088,3.2935,3.256,3.1871,3.1561,3.1169,3.1065,3.0606,3.0296,3.0227,3.0193,3.0205,3.0159,3.0205,3.0182,3.0159,3.0159,3.0114,3.0057,3.008,3.0102,2.9977,3.0022,3.0091,2.9885,2.9977,3.0079,2.9965,2.9885,2.9851,2.984,2.9874,2.9874,2.9908,2.9919,2.9953,2.9954,2.9966,2.9885,3.0105,3.0357,3.0361,3.0385,3.0227,3.0148,3.0125,3.0125,3.0125,3.008,2.9954,2.9886,2.9817,2.9657,2.9508,2.9577,2.96,2.96,2.96,2.9531,2.9725,3.0045,3.0376,3.0743,3.0995,3.1072,3.1351,3.1793,3.2108,3.2257,3.2257,3.2013,3.1913,3.1791,3.156,3.1239,3.1306,3.1117,3.0893,3.0792,3.0555,3.0352,3.0227,3.0023,2.9817,2.9634,2.9485,2.9232,2.9012,2.8617,2.8454,2.8501,2.829,2.7961,2.7584,2.7238,2.688,2.651,2.6042,2.5509,2.5143,2.4833,2.4341,2.387,2.3621,2.3331,3.4383,3.4334,3.4261,3.4211,3.4174,3.4113,3.3977,3.3803,3.3779,3.3549,3.3258,3.3221,3.2873,3.2352,3.2144,3.1972,3.157,3.1077,3.0629,3.0227,3.0216,3.0102,3.0045,3.0114,3.0102,2.9988,2.9943,2.9852,2.9715,2.9715,2.9646,2.9692,2.9715,2.9669,2.9692,2.9715,2.9646,2.9669,2.9669,2.9692,2.9715,2.9692,2.9715,2.9715,2.9692,2.9669,2.9635,2.96,2.9624,2.967,2.9704,2.9783,2.9795,2.9726,2.9715,2.9715,2.9692,2.9669,2.9646,2.9623,2.9588,2.9565,2.952,2.9508,2.952,2.9485,2.9485,2.9508,2.9508,2.9698,3.0116,3.058,3.0801,3.0954,3.1094,3.1247,3.1378,3.1386,3.1392,3.1343,3.1275,3.1206,3.1184,3.0925,3.0735,3.0702,3.0488,3.0205,3.0057,2.9943,2.9783,2.9657,2.9439,2.9232,2.9094,2.8932,2.8746,2.8524,2.8173,2.7831,2.7878,2.782,2.7536,2.7262,2.6938,2.6592,2.6221,2.5761,2.525,2.4956,2.4637,2.4168,2.3746,2.353,2.3256,3.4026,3.3915,3.3927,3.3841,3.3729,3.3729,3.3655,3.353,3.3505,3.3431,3.3342,3.3281,3.3145,3.2869,3.2617,3.2329,3.2065,3.1605,3.1156,3.0765,3.0524,3.0272,3.0008,2.9908,2.9817,2.9714,2.9714,2.9611,2.9531,2.9508,2.9531,2.9508,2.9508,2.9554,2.9508,2.9508,2.9531,2.9531,2.9508,2.9508,2.9508,2.9508,2.9508,2.9508,2.9508,2.9508,2.9531,2.9359,2.9324,2.9289,2.9243,2.9301,2.9462,2.9508,2.9508,2.9508,2.9508,2.9508,2.9508,2.9405,2.9312,2.9312,2.9232,2.9186,2.9163,2.9174,2.9307,2.9451,2.9562,2.9717,3.0326,3.0667,3.0879,3.0938,3.1035,3.1107,3.1079,3.1019,3.0973,3.0869,3.0673,3.0557,3.0409,3.0261,3.0125,3.0045,2.9988,2.9726,2.9646,2.9508,2.9278,2.9117,2.8885,2.8699,2.856,2.842,2.8267,2.8055,2.7844,2.7534,2.7367,2.732,2.7214,2.6928,2.6664,2.6294,2.5931,2.5445,2.5039,2.4711,2.4365,2.3969,2.3621,2.3347,2.3071,3.3853,3.363,3.3655,3.3505,3.3306,3.3306,3.3342,3.3306,3.3281,3.3306,3.3281,3.3281,3.3283,3.3191,3.2858,3.2604,3.2314,3.2038,3.1562,3.1061,3.0767,3.0501,3.0224,2.991,2.9606,2.9494,2.945,2.9405,2.937,2.9405,2.9301,2.937,2.937,2.9324,2.937,2.9393,2.9324,2.9336,2.9324,2.9324,2.9347,2.9347,2.9347,2.9347,2.9324,2.9324,2.9278,2.9163,2.9058,2.9046,2.8896,2.9035,2.9255,2.9393,2.9393,2.9393,2.9347,2.9324,2.9278,2.9174,2.9058,2.9058,2.9029,2.8947,2.8969,2.9157,2.9376,2.9571,2.9768,3.0049,3.057,3.0922,3.0996,3.0985,3.0951,3.0943,3.0878,3.0834,3.0718,3.0661,3.0285,3.0011,2.9829,2.968,2.952,2.9382,2.9347,2.9267,2.9186,2.9047,2.8792,2.8653,2.8466,2.8279,2.8139,2.8068,2.7891,2.7678,2.7499,2.7272,2.6972,2.6808,2.6726,2.663,2.6366,2.6018,2.563,2.5177,2.4809,2.448,2.4168,2.382,2.3497,2.3197,2.2921,3.3406,3.3392,3.3381,3.3342,3.3281,3.3281,3.3281,3.3281,3.3281,3.3281,3.3281,3.3281,3.3281,3.3247,3.3249,3.2815,3.2311,3.2056,3.1705,3.1192,3.0908,3.0732,3.0463,3.0038,2.9746,2.9473,2.9323,2.916,2.8989,2.8919,2.9012,2.8966,2.8966,2.8966,2.8955,2.8908,2.8989,2.9012,2.9001,2.9001,2.8989,2.8989,2.8978,2.8978,2.9012,2.8989,2.8966,2.8896,2.885,2.885,2.8803,2.885,2.8932,2.8966,2.8966,2.8989,2.8989,2.9012,2.8989,2.8941,2.8884,2.8937,2.9175,2.937,2.9469,2.9685,2.9787,3.0038,3.0332,3.069,3.0841,3.1104,3.1298,3.1204,3.1088,3.1012,3.082,3.0554,3.0305,3.0271,2.9887,2.9474,2.9266,2.9105,2.8989,2.8816,2.8712,2.8619,2.8526,2.8386,2.8233,2.8162,2.8115,2.7904,2.7726,2.7678,2.7584,2.7381,2.719,2.701,2.6723,2.6414,2.6235,2.6149,2.6004,2.5727,2.5314,2.4898,2.4652,2.4406,2.4069,2.3705,2.3431,2.3147,2.2896,3.3281,3.3281,3.3281,3.3281,3.3281,3.3281,3.3281,3.3281,3.3281,3.3281,3.3281,3.3281,3.3281,3.3256,3.3142,3.276,3.2415,3.2284,3.1988,3.1528,3.1231,3.0989,3.0726,3.0259,3.0035,2.9777,2.9498,2.9116,2.8825,2.8827,2.8803,2.8803,2.8803,2.8803,2.8803,2.8827,2.8803,2.8803,2.8803,2.8803,2.8803,2.8803,2.8803,2.8803,2.8803,2.8803,2.8803,2.8803,2.8803,2.8803,2.8803,2.8803,2.8803,2.8803,2.8814,2.8825,2.8814,2.8814,2.888,2.8966,2.9174,2.9241,2.9611,2.9838,2.9855,2.9921,3.0092,3.0227,3.0579,3.0859,3.0834,3.1075,3.1105,3.1023,3.0972,3.0931,3.0732,3.0366,3.0095,2.9829,2.938,2.8989,2.863,2.8513,2.843,2.8279,2.8139,2.8011,2.794,2.788,2.7786,2.7739,2.7715,2.7584,2.7404,2.7309,2.7286,2.7095,2.688,2.6723,2.6496,2.6197,2.5907,2.5698,2.5518,2.5362,2.5118,2.475,2.4554,2.4307,2.392,2.3555,2.3356,2.313,2.2846,3.3281,3.3281,3.3281,3.3281,3.3281,3.3281,3.3281,3.3281,3.3281,3.3256,3.3206,3.3206,3.3156,3.3069,3.2894,3.2656,3.2418,3.237,3.2148,3.1821,3.1527,3.1226,3.0969,3.0614,3.0341,3.0264,2.9884,2.9403,2.9032,2.8869,2.8803,2.8803,2.8803,2.8803,2.8803,2.8803,2.8803,2.8803,2.8803,2.8803,2.8803,2.8803,2.8803,2.8803,2.8803,2.8803,2.8803,2.8803,2.8803,2.8803,2.8803,2.8803,2.878,2.8734,2.8754,2.8843,2.8822,2.8824,2.9021,2.9228,2.9443,2.9535,2.9981,3.0174,3.0181,3.0116,3.0135,3.0278,3.0551,3.0811,3.0794,3.0817,3.0801,3.0724,3.0724,3.0651,3.051,3.0205,2.9773,2.9409,2.8922,2.8567,2.8275,2.8068,2.8021,2.7961,2.7809,2.7749,2.7668,2.7607,2.7536,2.7418,2.7333,2.7214,2.7071,2.6938,2.6914,2.6842,2.6616,2.6424,2.6207,2.598,2.5698,2.5406,2.5128,2.4971,2.4775,2.4603,2.4365,2.4069,2.3696,2.3397,2.3197,2.3005,2.2728,3.3281,3.3281,3.3281,3.3281,3.3281,3.3281,3.3281,3.3281,3.3281,3.3167,3.2967,3.2942,3.2818,3.2631,3.2569,3.2367,3.2153,3.2052,3.1961,3.1688,3.1586,3.1516,3.1418,3.1014,3.0843,3.0734,3.0351,2.9882,2.9491,2.9086,2.8858,2.8869,2.8836,2.8803,2.8803,2.8803,2.8803,2.8803,2.8803,2.8803,2.8803,2.8803,2.8803,2.8803,2.8803,2.8803,2.8803,2.878,2.8757,2.8757,2.878,2.8803,2.878,2.8547,2.8724,2.8879,2.8943,2.8989,2.9277,2.9504,2.9626,2.9826,3.0198,3.0289,3.0281,3.0404,3.0551,3.0674,3.0739,3.0724,3.0698,3.075,3.0672,3.0531,3.0453,3.0323,3.0177,3.0193,2.9753,2.9113,2.8669,2.833,2.7992,2.7812,2.7644,2.7584,2.7513,2.7441,2.7381,2.7286,2.7214,2.7095,2.7023,2.6938,2.6808,2.6651,2.6578,2.6554,2.6352,2.6125,2.5907,2.5713,2.5479,2.5186,2.4883,2.4627,2.448,2.4316,2.4127,2.3854,2.3506,2.3272,2.3046,2.282,2.2628,3.3281,3.3281,3.3281,3.3281,3.3281,3.3281,3.3206,3.3117,3.3056,3.293,3.2718,3.2667,3.2505,3.2266,3.2204,3.2052,3.1823,3.1772,3.1721,3.1629,3.1593,3.1593,3.1549,3.1396,3.1313,3.116,3.0865,3.0559,3.0114,2.96,2.9195,2.9152,2.8946,2.8803,2.8836,2.8814,2.8803,2.8803,2.8803,2.8803,2.8803,2.8803,2.8803,2.8803,2.8803,2.8803,2.8757,2.8617,2.8571,2.8547,2.8443,2.835,2.8402,2.8468,2.8708,2.8815,2.9072,2.9228,2.9421,2.9693,2.9845,3.0038,3.0348,3.0523,3.0382,3.041,3.0479,3.0323,3.0323,3.036,3.036,3.0334,3.0271,3.0219,3.0219,3.0141,3.0036,2.9995,2.9735,2.9064,2.8435,2.8077,2.7733,2.7501,2.7309,2.7214,2.7143,2.7071,2.6952,2.6798,2.676,2.6712,2.6688,2.6651,2.6544,2.6424,2.6304,2.6231,2.6072,2.5844,2.565,2.543,2.5211,2.4917,2.4538,2.4307,2.4168,2.4019,2.3879,2.363,2.3356,2.3147,2.2946,2.2795,2.2619,3.3106,3.3094,3.3256,3.3256,3.3206,3.3217,3.3031,3.283,3.2804,3.2642,3.2429,3.2291,3.2102,3.195,3.1899,3.1797,3.1593,3.1593,3.1593,3.1593,3.1593,3.1593,3.1582,3.156,3.156,3.1593,3.1244,3.1061,3.081,3.033,2.9862,2.9642,2.925,2.9042,2.8967,2.8869,2.8803,2.8803,2.8803,2.8803,2.8803,2.8803,2.8803,2.8803,2.8803,2.8769,2.8687,2.8535,2.8418,2.8267,2.8333,2.8314,2.8356,2.8623,2.8865,2.9021,2.9254,2.9401,2.9624,2.9854,3.0066,3.0242,3.0309,3.0416,3.0307,3.0287,3.0235,3.0073,3.0073,3.0047,2.9994,3.002,3.0047,3.0047,3.002,2.9994,2.9968,2.9858,2.9595,2.9019,2.8349,2.7745,2.7429,2.7177,2.6996,2.6842,2.677,2.6675,2.6602,2.6472,2.6424,2.6424,2.64,2.6362,2.6217,2.611,2.6038,2.5965,2.5795,2.5601,2.5455,2.5235,2.5015,2.4661,2.4242,2.3994,2.382,2.3721,2.363,2.3381,2.3147,2.3021,2.2846,2.2695,2.2594,3.2544,3.2606,3.3069,3.3142,3.293,3.2916,3.2779,3.253,3.253,3.2331,3.2052,3.1823,3.1721,3.1655,3.1669,3.1644,3.1593,3.1593,3.1593,3.1593,3.1593,3.1593,3.1593,3.1593,3.1593,3.1593,3.1451,3.1473,3.1418,3.0985,3.0526,3.0155,2.9731,2.951,2.937,2.9185,2.8989,2.8946,2.8913,2.8847,2.8825,2.8803,2.8803,2.8803,2.878,2.8687,2.8465,2.8395,2.8329,2.813,2.8299,2.854,2.8552,2.8821,2.909,2.9327,2.9399,2.9588,2.9823,2.997,3.0166,3.0238,3.0214,3.0151,3.0125,3.0047,2.9994,2.9994,2.9994,2.9994,2.9994,2.9994,2.9994,2.9916,2.9863,2.9837,2.9748,2.9643,2.9376,2.887,2.8264,2.7617,2.7041,2.679,2.6661,2.653,2.641,2.6338,2.6386,2.6304,2.6231,2.6207,2.6159,2.6038,2.583,2.5781,2.5844,2.5795,2.5674,2.5489,2.5318,2.5088,2.4818,2.4449,2.4044,2.3771,2.3497,2.3372,2.3247,2.3122,2.2971,2.2846,2.272,2.2569,2.251,3.2493,3.2519,3.2732,3.2757,3.2642,3.2667,3.2468,3.2204,3.2179,3.2026,3.1746,3.1644,3.1593,3.1593,3.1593,3.1593,3.1593,3.1593,3.1593,3.1593,3.1593,3.1593,3.1593,3.1593,3.1593,3.1593,3.1593,3.1593,3.1538,3.1342,3.1287,3.0908,3.0308,3.0024,2.9827,2.9685,2.9502,2.9261,2.9195,2.9119,2.8825,2.8803,2.8803,2.8803,2.8803,2.8664,2.8441,2.8243,2.8179,2.8198,2.824,2.8432,2.8726,2.903,2.9292,2.9516,2.959,2.9787,2.9922,3.0026,3.0073,3.0099,3.0062,2.9994,2.9994,2.9994,2.9994,2.9994,2.9994,2.9968,2.9994,2.9968,2.9942,2.98,2.9722,2.9643,2.9538,2.9406,2.9195,2.8743,2.8075,2.7387,2.6859,2.6368,2.6292,2.6207,2.612,2.6024,2.6096,2.612,2.6038,2.5989,2.5941,2.5917,2.5732,2.5708,2.5708,2.5635,2.5552,2.5333,2.5137,2.4833,2.4538,2.4192,2.382,2.3497,2.3222,2.3013,2.2862,2.2761,2.2745,2.2695,2.2569,2.2392,2.2333,3.224,3.224,3.2229,3.2291,3.2342,3.2367,3.2153,3.1913,3.1874,3.1797,3.1604,3.1593,3.1593,3.1593,3.1593,3.1593,3.1593,3.1593,3.1593,3.1593,3.1593,3.1593,3.1593,3.1593,3.1593,3.1593,3.1593,3.1593,3.1593,3.1593,3.1527,3.1309,3.1007,3.0654,3.0384,3.0242,3.001,2.9784,2.9663,2.9576,2.9261,2.9261,2.9272,2.9283,2.9305,2.9102,2.8862,2.8644,2.8489,2.8429,2.8441,2.8524,2.8856,2.9197,2.9456,2.9622,2.9766,2.9984,2.9994,2.9994,2.9994,3.002,3.002,2.9994,2.9994,2.9994,2.9994,2.9968,2.9931,2.9879,2.9853,2.9748,2.9617,2.9422,2.9432,2.938,2.9248,2.9105,2.8922,2.8633,2.7903,2.7179,2.6793,2.6315,2.6025,2.5965,2.5927,2.5854,2.5854,2.5854,2.5805,2.5781,2.5757,2.5732,2.5708,2.5708,2.5659,2.5489,2.5382,2.5128,2.4883,2.4603,2.4316,2.3994,2.3621,2.3247,2.2912,2.2661,2.2535,2.2459,2.2384,2.2316,2.2207,2.2055,2.203,3.1618,3.1629,3.1629,3.1797,3.2015,3.2015,3.1837,3.1644,3.1644,3.1618,3.1604,3.1593,3.1593,3.1593,3.1593,3.1593,3.1593,3.1593,3.1593,3.1593,3.1593,3.1593,3.1593,3.1593,3.1593,3.1593,3.1593,3.1593,3.1593,3.1593,3.1593,3.1593,3.1385,3.12,3.0876,3.045,3.0242,3.0199,3.0199,3.0133,2.9989,2.9969,2.9947,2.9936,2.9925,2.9664,2.9264,2.9118,2.8933,2.8747,2.8948,2.9104,2.9311,2.9663,2.987,2.9922,2.9953,2.9994,2.9994,2.9994,2.9994,2.9994,2.9994,2.9994,2.9994,2.9994,2.9942,2.9889,2.9748,2.9633,2.9491,2.9359,2.9237,2.9132,2.9142,2.9062,2.893,2.8824,2.8625,2.843,2.7678,2.6979,2.666,2.6318,2.5908,2.5732,2.5708,2.5708,2.5708,2.5708,2.5708,2.5708,2.5708,2.5708,2.5708,2.5708,2.5635,2.544,2.522,2.4981,2.4686,2.4365,2.4069,2.3795,2.3422,2.3046,2.2661,2.2274,2.2156,2.2004,2.1928,2.1852,2.1751,2.1725,2.17,3.1593,3.1593,3.1593,3.1644,3.1721,3.1721,3.1669,3.1618,3.1593,3.1593,3.1593,3.1593,3.1593,3.1593,3.1593,3.1593,3.1593,3.1593,3.1593,3.1593,3.1593,3.1593,3.1593,3.1593,3.1593,3.1593,3.1593,3.1593,3.1593,3.1593,3.1593,3.1593,3.1593,3.1542,3.1375,3.1124,3.1003,3.0723,3.0635,3.0526,3.0275,3.0253,3.0264,3.0275,3.0297,3.0002,2.9533,2.9505,2.9312,2.9118,2.9332,2.9456,2.9653,2.9984,2.9984,2.9994,2.9994,2.9994,2.9994,2.9994,2.9994,2.9994,2.9968,2.9968,2.9994,2.9827,2.9784,2.9669,2.9459,2.9317,2.9211,2.9185,2.9089,2.8887,2.8807,2.8691,2.8584,2.8504,2.8356,2.813,2.7588,2.6758,2.6245,2.6147,2.5825,2.5708,2.5708,2.5708,2.5708,2.5708,2.5708,2.5708,2.5708,2.5708,2.5708,2.5708,2.5552,2.5308,2.5088,2.4867,2.4538,2.4168,2.387,2.3605,2.3222,2.2846,2.2358,2.1903,2.1674,2.1522,2.1522,2.1573,2.1598,2.1522,2.1428,3.1593,3.1593,3.1593,3.1593,3.1593,3.1593,3.1593,3.1593,3.1593,3.1593,3.1593,3.1593,3.1593,3.1593,3.1593,3.1593,3.1593,3.1593,3.1593,3.1593,3.1593,3.1593,3.1593,3.1593,3.1593,3.1593,3.1593,3.1593,3.1593,3.1593,3.1593,3.1593,3.1593,3.1571,3.1549,3.1484,3.1407,3.1181,3.1116,3.105,3.0829,3.0742,3.0731,3.0706,3.0617,3.0356,2.9988,2.9783,2.9655,2.9564,2.957,2.9653,2.9891,2.9994,2.9994,2.9994,2.9994,2.9994,2.9994,2.9853,2.9827,2.9827,2.9853,2.9863,2.98,2.959,2.9448,2.9317,2.9105,2.9009,2.8956,2.8956,2.8797,2.8604,2.8541,2.8424,2.8398,2.8344,2.8198,2.7956,2.749,2.6625,2.5923,2.5845,2.5718,2.5708,2.5708,2.5708,2.5708,2.5708,2.5708,2.5708,2.5708,2.5708,2.5708,2.5708,2.5504,2.5201,2.4981,2.4809,2.4365,2.3994,2.3705,2.3356,2.2921,2.2434,2.1928,2.1547,2.1351,2.1249,2.1249,2.1326,2.142,2.1326,2.1173,3.1593,3.1593,3.1593,3.1593,3.1593,3.1593,3.1593,3.1593,3.1593,3.1593,3.1593,3.1593,3.1593,3.1593,3.1593,3.1593,3.1593,3.1593,3.1593,3.1593,3.1593,3.1593,3.1593,3.1593,3.1593,3.1593,3.1593,3.1593,3.1593,3.1593,3.1593,3.1593,3.1593,3.1593,3.1593,3.1582,3.1549,3.1462,3.144,3.1385,3.1287,3.1396,3.1342,3.128,3.1113,3.088,3.0572,3.0383,3.0099,2.9953,2.988,2.9891,2.9922,2.9963,2.9973,2.9994,2.9994,2.9942,2.9889,2.9722,2.958,2.9554,2.9538,2.9564,2.9501,2.929,2.9142,2.9036,2.885,2.8781,2.8711,2.8541,2.8398,2.8354,2.8354,2.8318,2.8308,2.822,2.8034,2.7731,2.7246,2.6567,2.5932,2.5708,2.5708,2.5708,2.5708,2.5708,2.5708,2.5708,2.5708,2.5708,2.5708,2.5708,2.5708,2.5708,2.543,2.5113,2.4981,2.476,2.4291,2.3879,2.3605,2.3197,2.256,2.2047,2.1623,2.13,2.1019,2.0994,2.1019,2.1045,2.1121,2.0994,2.0873,3.1593,3.1593,3.1593,3.1593,3.1593,3.1593,3.1593,3.1593,3.1593,3.1593,3.1593,3.1593,3.1593,3.1593,3.1593,3.1593,3.1593,3.1593,3.1593,3.1593,3.1593,3.1593,3.1593,3.1593,3.1593,3.1593,3.1593,3.1593,3.1593,3.1593,3.1593,3.1593,3.1593,3.1593,3.1593,3.1593,3.1593,3.1593,3.1593,3.1593,3.1593,3.1593,3.1593,3.1527,3.1296,3.1013,3.0738,3.0479,3.0078,2.9601,2.9518,2.9415,2.8996,2.9311,2.957,2.9937,2.9853,2.9722,2.9669,2.9422,2.9227,2.9185,2.9089,2.9115,2.9079,2.9009,2.8834,2.8727,2.8611,2.8541,2.8488,2.8381,2.8301,2.8301,2.8262,2.8184,2.8161,2.792,2.7751,2.7438,2.6963,2.642,2.5806,2.5708,2.5708,2.5708,2.5708,2.5708,2.5708,2.5708,2.5708,2.5708,2.5708,2.5708,2.5708,2.5708,2.5367,2.5064,2.4932,2.4735,2.4276,2.3879,2.3555,2.3021,2.2358,2.1852,2.142,2.1121,2.0891,2.0822,2.0822,2.0814,2.0789,2.0686,2.0617,3.1593,3.1593,3.1593,3.1593,3.1593,3.1593,3.1593,3.1593,3.1593,3.1593,3.1593,3.1593,3.1593,3.1593,3.1593,3.1593,3.1593,3.1593,3.1593,3.1593,3.1567,3.1593,3.1593,3.1593,3.1593,3.1593,3.1593,3.1593,3.1593,3.1593,3.1593,3.1593,3.1593,3.1593,3.1593,3.1593,3.1593,3.1593,3.1593,3.1593,3.1593,3.1593,3.1593,3.1501,3.1255,3.0908,3.0531,3.0227,2.9657,2.914,2.9032,2.8928,2.8599,2.8817,2.891,2.9188,2.9186,2.9113,2.9096,2.9061,2.8979,2.8867,2.8661,2.8664,2.8664,2.8638,2.8568,2.8514,2.8408,2.8301,2.8301,2.8301,2.8301,2.8301,2.8174,2.8064,2.7868,2.7633,2.7379,2.7096,2.6641,2.6118,2.5791,2.5747,2.5708,2.5708,2.5708,2.5708,2.5708,2.5708,2.5708,2.5708,2.5708,2.5708,2.5708,2.5659,2.5357,2.5113,2.4941,2.4695,2.4251,2.3755,2.3297,2.2745,2.2131,2.1674,2.1241,2.107,2.0865,2.0771,2.0617,2.0565,2.0506,2.0395,2.0344,3.1593,3.1593,3.1593,3.1593,3.1593,3.1593,3.1593,3.1593,3.1593,3.1593,3.1593,3.1593,3.1593,3.1593,3.1593,3.1593,3.1542,3.1542,3.1501,3.1553,3.1501,3.1501,3.1527,3.1593,3.1593,3.1593,3.1593,3.1593,3.1593,3.1593,3.1593,3.1593,3.1593,3.1593,3.1593,3.1593,3.1593,3.1593,3.1593,3.1593,3.1593,3.1593,3.1578,3.1476,3.1073,3.0606,3.0117,2.9606,2.9073,2.8742,2.8556,2.852,2.84,2.8225,2.8201,2.8269,2.8405,2.8403,2.842,2.8356,2.843,2.8367,2.8333,2.8153,2.8055,2.8356,2.8388,2.8408,2.8301,2.8174,2.8135,2.8066,2.8047,2.79,2.7715,2.7637,2.7519,2.7217,2.6855,2.6582,2.6269,2.5815,2.5776,2.5708,2.5708,2.5708,2.5708,2.5708,2.5708,2.5708,2.5708,2.5708,2.5708,2.5708,2.5708,2.5611,2.5382,2.5162,2.4966,2.4671,2.4285,2.3655,2.2996,2.2434,2.1878,2.1504,2.1147,2.0968,2.0814,2.0617,2.0462,2.0333,2.0223,2.0086,2.006,3.1593,3.1593,3.1593,3.1593,3.1593,3.1593,3.1593,3.1593,3.1593,3.1578,3.1593,3.1593,3.1567,3.1542,3.1553,3.1553,3.1516,3.1347,3.1296,3.127,3.127,3.1322,3.1347,3.1476,3.1553,3.1593,3.1593,3.1593,3.1593,3.1593,3.1593,3.1593,3.1593,3.1593,3.1593,3.1593,3.1593,3.1593,3.1593,3.1578,3.1553,3.1553,3.1527,3.1307,3.0914,3.0418,2.9943,2.9489,2.8808,2.8251,2.8107,2.7992,2.7834,2.7583,2.7652,2.7864,2.7748,2.7701,2.7678,2.7653,2.7632,2.7541,2.7434,2.7344,2.75,2.7988,2.8242,2.8242,2.8184,2.8027,2.79,2.7822,2.7751,2.749,2.7246,2.7207,2.7158,2.6768,2.6332,2.6079,2.5815,2.5737,2.5718,2.5708,2.5708,2.5708,2.5708,2.5708,2.5708,2.5708,2.5708,2.5708,2.5708,2.5708,2.5708,2.5611,2.5406,2.5162,2.4941,2.4621,2.426,2.3705,2.3046,2.2257,2.1649,2.1377,2.1147,2.0968,2.0796,2.0514,2.0333,2.0171,1.9887,1.9698,1.9706,3.1593,3.1593,3.1593,3.1593,3.1593,3.1593,3.1593,3.1578,3.1476,3.1424,3.145,3.1527,3.1542,3.145,3.1424,3.1322,3.127,3.1112,3.1023,3.1023,3.1023,3.1127,3.123,3.1358,3.1501,3.1553,3.1578,3.1593,3.1593,3.1593,3.1593,3.1593,3.1593,3.1593,3.1593,3.1593,3.1593,3.1593,3.1567,3.1527,3.145,3.141,3.1373,3.1127,3.0768,3.0298,2.9782,2.9267,2.8612,2.7965,2.7668,2.7341,2.7126,2.6868,2.6857,2.6958,2.6978,2.6946,2.6934,2.6947,2.6934,2.6934,2.6982,2.7074,2.7103,2.7549,2.7552,2.7552,2.7552,2.7441,2.7422,2.7363,2.7334,2.7187,2.6875,2.6689,2.6489,2.6176,2.5981,2.5884,2.5728,2.5728,2.5708,2.5708,2.5708,2.5708,2.5708,2.5708,2.5708,2.5708,2.5708,2.5708,2.5708,2.5708,2.5708,2.5611,2.5455,2.5211,2.4917,2.4424,2.4003,2.363,2.3122,2.2232,2.1623,2.142,2.1198,2.0968,2.0634,2.0351,2.0171,2.0009,1.9706,1.942,1.9472,3.1578,3.1553,3.1553,3.1501,3.149,3.1476,3.1476,3.145,3.1255,3.1163,3.1189,3.1373,3.1322,3.1204,3.1127,3.0983,3.0853,3.0801,3.0776,3.075,3.075,3.0817,3.0972,3.1178,3.1373,3.1527,3.1567,3.1593,3.1593,3.1593,3.1593,3.1593,3.1593,3.1593,3.1593,3.1593,3.1593,3.1578,3.1527,3.141,3.1307,3.1178,3.1152,3.0961,3.0634,3.0139,2.9582,2.9029,2.8433,2.7869,2.7364,2.6897,2.6583,2.6331,2.62,2.6261,2.635,2.6344,2.6372,2.6558,2.6645,2.6752,2.683,2.683,2.682,2.683,2.6859,2.6889,2.6889,2.6967,2.6947,2.6908,2.6889,2.6762,2.644,2.6206,2.5962,2.5742,2.5713,2.5708,2.5708,2.5708,2.5708,2.5708,2.5708,2.5708,2.5708,2.5708,2.5708,2.5708,2.5708,2.5708,2.5708,2.5708,2.5708,2.5635,2.5504,2.5162,2.4818,2.4242,2.3771,2.3522,2.2996,2.208,2.1598,2.142,2.1198,2.095,2.0583,2.0241,2.0112,1.9983,1.9576,1.935,1.9324,3.1476,3.127,3.127,3.1152,3.0983,3.0972,3.0957,3.0957,3.0905,3.089,3.0879,3.0905,3.0905,3.0879,3.0879,3.0776,3.0672,3.0568,3.0479,3.0469,3.0479,3.0531,3.0687,3.0998,3.1322,3.1476,3.1553,3.1593,3.1593,3.1593,3.1593,3.1593,3.1593,3.1593,3.1593,3.1567,3.1501,3.145,3.1347,3.1204,3.1204,3.1075,3.0884,3.0703,3.0432,2.9968,2.9481,2.9055,2.8599,2.805,2.7355,2.6762,2.6347,2.6068,2.5937,2.5864,2.5908,2.5918,2.602,2.6079,2.6186,2.6147,2.6157,2.6128,2.6108,2.6098,2.6157,2.6235,2.6323,2.6621,2.6641,2.6533,2.6475,2.6196,2.5893,2.5884,2.5767,2.5703,2.5718,2.5708,2.5708,2.5708,2.5708,2.5708,2.5708,2.5708,2.5708,2.5708,2.5708,2.5708,2.5708,2.5708,2.5708,2.5708,2.5708,2.5684,2.5538,2.5162,2.4745,2.4192,2.3771,2.3506,2.2896,2.2055,2.1674,2.1496,2.1224,2.0942,2.0609,2.0292,2.0163,1.9957,1.9532,1.9298,1.9298]},{"header":{"parameterUnit":"m.s-1","parameterCategory":1,"la1":31.0,"la2":29.5877,"lo1":-88.7671,"lo2":-86.6584,"dy":0.0162,"dx":0.0185,"nx":115,"ny":88,"refTime":"2024-09-03T12:00:00:Z","depth":0,"parameterNumber":3,"parameterNumberName":"V-component_of_WINDS"},"data":[0.0,0.0,0.0,0.0,0.0,0.0,0.0,0.0,0.0,0.0,0.0,0.0,0.0,0.0,0.0,0.0,0.0,0.0,0.0,0.0,0.0,0.0,0.0,0.0,0.0,0.0,0.0,0.0,0.0,0.0,0.0,0.0,0.0,0.0,0.0,0.0,0.0,0.0,0.0,0.0,0.0,0.0,0.0,0.0,0.0,0.0,0.0,0.0,0.0,0.0,0.0,0.0,0.0,0.0,0.0,0.0,0.0,0.0,0.0,0.0,0.0,0.0,0.0,0.0,0.0,0.0,0.0,0.0,0.0,0.0,0.0,0.0,0.0,0.0,0.0,0.0,0.0,0.0,0.0,0.0,0.0,0.0,0.0,0.0,0.0,0.0,0.0,0.0,0.0,0.0,0.0,0.0,0.0,0.0,0.0,0.0,0.0,0.0,0.0,0.0,0.0,0.0,0.0,0.0,0.0,0.0,0.0,0.0,0.0,0.0,0.0,0.0,0.0,0.0,0.0,0.0,0.0,0.0,0.0,0.0,0.0,0.0,0.0,0.0,0.0,0.0,0.0,0.0,0.0,0.0,0.0,0.0,0.0,0.0,0.0,0.0,0.0,0.0,0.0,0.0,0.0,0.0,0.0,0.0,0.0,0.0,0.0,0.0,0.0,0.0,0.0,0.0,0.0,0.0,0.0,0.0,0.0,0.0,0.0,0.0,0.0,0.0,0.0,0.0,0.0,0.0,0.0,0.0,0.0,0.0,0.0,0.0,0.0,0.0,0.0,0.0,0.0,0.0,0.0,0.0,0.0,0.0,0.0,0.0,0.0,0.0,0.0,0.0,0.0,0.0,0.0,0.0,0.0,0.0,0.0,0.0,0.0,0.0,0.0,0.0,0.0,0.0,0.0,0.0,0.0,0.0,0.0,0.0,0.0,0.0,0.0,0.0,0.0,0.0,0.0,0.0,0.0,0.0,0.0,0.0,0.0,0.0,0.0,0.0,0.0,0.0,0.0,0.0,0.0,0.0,0.0,0.0,0.0,0.0,0.0,0.0,0.0,0.0,0.0,0.0,0.0,0.0,0.0,0.0,0.0,0.0,0.0,0.0,0.0,0.0,0.0,0.0,0.0,0.0,0.0,0.0,0.0,0.0,0.0,0.0,0.0,0.0,0.0,0.0,0.0,0.0,0.0,0.0,0.0,0.0,0.0,0.0,0.0,0.0,0.0,0.0,0.0,0.0,0.0,0.0,0.0,0.0,0.0,0.0,0.0,0.0,0.0,0.0,0.0,0.0,0.0,0.0,0.0,0.0,0.0,0.0,0.0,0.0,0.0,0.0,0.0,0.0,0.0,0.0,0.0,0.0,0.0,0.0,0.0,0.0,0.0,0.0,0.0,0.0,0.0,0.0,0.0,0.0,0.0,0.0,0.0,0.0,0.0,0.0,0.0,0.0,0.0,0.0,0.0,0.0,0.0,0.0,0.0,0.0,0.0,0.0,0.0,0.0,0.0,0.0,0.0,0.0,0.0,0.0,0.0,0.0,0.0,0.0,0.0,0.0,0.0,0.0,0.0,0.0,0.0,0.0,0.0,0.0,0.0,0.0,0.0,0.0,0.0,0.0,0.0,0.0,0.0,0.0,0.0,0.0,0.0,0.0,0.0,0.0,0.0,0.0,0.0,0.0,0.0,0.0,0.0,0.0,0.0,0.0,0.0,0.0,0.0,0.0,0.0,0.0,0.0,0.0,0.0,0.0,0.0,0.0,0.0,0.0,0.0,0.0,0.0,0.0,0.0,0.0,0.0,0.0,0.0,0.0,0.0,0.0,0.0,0.0,0.0,0.0,0.0,0.0,0.0,0.0,0.0,0.0,0.0,0.0,0.0,0.0,0.0,0.0,0.0,0.0,0.0,0.0,0.0,0.0,0.0,0.0,0.0,0.0,0.0,0.0,0.0,0.0,0.0,0.0,0.0,0.0,0.0,0.0,0.0,0.0,0.0,0.0,0.0,0.0,0.0,0.0,0.0,0.0,0.0,0.0,0.0,0.0,0.0,0.0,0.0,0.0,0.0,0.0,0.0,0.0,0.0,0.0,0.0,0.0,0.0,0.0,0.0,0.0,0.0,0.0,0.0,0.0,0.0,0.0,0.0,0.0,0.0,0.0,0.0,0.0,0.0,0.0,0.0,0.0,0.0,0.0,0.0,0.0,0.0,0.0,0.0,0.0,0.0,0.0,0.0,0.0,0.0,0.0,0.0,0.0,0.0,0.0,0.0,0.0,0.0,0.0,0.0,0.0,0.0,0.0,0.0,0.0,0.0,0.0,0.0,0.0,0.0,0.0,0.0,0.0,0.0,0.0,0.0,0.0,0.0,0.0,0.0,0.0,0.0,0.0,0.0,0.0,0.0,0.0,0.0,0.0,0.0,0.0,0.0,0.0,0.0,0.0,0.0,0.0,0.0,0.0,0.0,0.0,0.0,0.0,0.0,0.0,0.0,0.0,0.0,0.0,0.0,0.0,0.0,0.0,0.0,0.0,0.0,0.0,0.0,0.0,0.0,0.0,0.0,0.0,0.0,0.0,0.0,0.0,0.0,0.0,0.0,0.0,0.0,0.0,0.0,0.0,0.0,0.0,0.0,0.0,0.0,0.0,0.0,0.0,0.0,0.0,0.0,0.0,0.0,0.0,0.0,0.0,0.0,0.0,0.0,0.0,0.0,0.0,0.0,0.0,0.0,0.0,0.0,0.0,0.0,0.0,0.0,0.0,0.0,0.0,0.0,0.0,0.0,0.0,0.0,0.0,0.0,0.0,0.0,0.0,0.0,0.0,0.0,0.0,0.0,0.0,0.0,0.0,0.0,0.0,0.0,0.0,0.0,0.0,0.0,0.0,0.0,0.0,0.0,0.0,0.0,0.0,0.0,0.0,0.0,0.0,0.0,0.0,0.0,0.0,0.0,0.0,0.0,0.0,0.0,0.0,0.0,0.0,0.0,0.0,0.0,0.0,0.0,0.0,0.0,0.0,0.0,0.0,0.0,0.0,0.0,0.0,0.0,0.0,0.0,0.0,0.0,0.0,0.0,0.0,0.0,0.0,0.0,0.0,0.0,0.0,0.0,0.0,0.0,0.0,0.0,0.0,0.0,0.0,0.0,0.0,0.0,0.0,0.0,0.0,0.0,0.0,0.0,0.0,0.0,0.0,0.0,0.0,0.0,0.0,0.0,0.0,0.0,0.0,0.0,0.0,0.0,0.0,0.0,0.0,0.0,0.0,0.0,0.0,0.0,0.0,0.0,0.0,0.0,0.0,0.0,0.0,0.0,0.0,0.0,0.0,0.0,0.0,0.0,0.0,0.0,0.0,0.0,0.0,0.0,0.0,0.0,0.0,0.0,0.0,0.0,0.0,0.0,0.0,0.0,0.0,0.0,0.0,0.0,0.0,0.0,0.0,0.0,0.0,0.0,0.0,0.0,0.0,0.0,0.0,0.0,0.0,0.0,0.0,0.0,0.0,0.0,0.0,0.0,0.0,0.0,0.0,0.0,0.0,0.0,0.0,0.0,0.0,0.0,0.0,0.0,0.0,0.0,0.0,0.0,0.0,0.0,0.0,0.0,0.0,0.0,0.0,0.0,0.0,0.0,0.0,0.0,0.0,0.0,0.0,0.0,0.0,0.0,0.0,0.0,0.0,0.0,0.0,0.0,0.0,0.0,0.0,0.0,0.0,0.0,0.0,0.0,0.0,0.0,0.0,0.0,0.0,0.0,0.0,0.0,0.0,0.0,0.0,0.0,0.0,0.0,0.0,0.0,0.0,0.0,0.0,0.0,0.0,0.0,0.0,0.0,0.0,0.0,0.0,0.0,0.0,0.0,0.0,0.0,0.0,0.0,0.0,0.0,0.0,0.0,0.0,0.0,0.0,0.0,0.0,0.0,0.0,0.0,0.0,0.0,0.0,0.0,0.0,0.0,0.0,0.0,0.0,0.0,0.0,0.0,0.0,0.0,0.0,0.0,0.0,0.0,0.0,0.0,0.0,0.0,0.0,0.0,0.0,0.0,0.0,0.0,0.0,0.0,0.0,0.0,0.0,0.0,0.0,0.0,0.0,0.0,0.0,0.0,0.0,0.0,0.0,0.0,0.0,0.0,0.0,0.0,0.0,0.0,0.0,0.0,0.0,0.0,0.0,0.0,0.0,0.0,0.0,0.0,0.0,0.0,0.0,0.0,0.0,0.0,0.0,0.0,0.0,0.0,0.0,0.0,0.0,0.0,0.0,0.0,0.0,0.0,0.0,0.6246,0.0,0.0,0.0,0.0,0.0,0.0,0.0,0.0,0.0,0.0,0.0,0.0,0.0,0.0,0.0,0.0,0.0,0.0,0.0,0.0,0.0,0.0,0.0,0.0,0.0,0.0,0.0,0.0,0.0,0.0,0.0,0.0,0.0,0.0,0.0,0.0,0.0,0.0,0.0,0.0,0.0,0.0,0.0,0.0,0.0,0.0,0.0,0.0,0.0,0.0,0.0,0.0,0.0,0.0,0.0,0.0,0.0,0.0,0.0,0.0,0.0,0.0,0.0,0.0,0.0,0.0,0.0,0.0,0.0,0.0,0.0,0.0,0.0,0.0,0.0,0.0,0.0,0.0,0.0,0.0,0.0,0.0,0.0,0.0,0.0,0.0,0.0,0.0,0.0,0.0,0.0,0.0,0.0,0.0,0.0,0.0,0.0,0.0,0.0,0.0,0.0,0.0,0.0,0.0,0.0,0.0,0.0,0.0,0.0,0.0,0.6444,0.6721,0.6787,0.6778,0.6708,0.0,0.0,0.0,0.0,0.0,0.0,0.0,0.0,0.0,0.0,0.0,0.0,0.0,0.0,0.0,0.0,0.0,0.0,0.0,0.0,0.0,0.0,0.0,0.0,0.0,0.0,0.0,0.0,0.0,0.0,0.0,0.0,0.0,0.0,0.0,0.0,0.0,0.0,0.0,0.0,0.0,0.0,0.0,0.0,0.0,0.0,0.0,0.0,0.0,0.0,0.0,0.0,0.0,0.0,0.0,0.0,0.0,0.0,0.0,0.0,0.0,0.0,0.0,0.0,0.0,0.0,0.0,0.0,0.0,0.0,0.0,0.0,0.0,0.0,0.0,0.0,0.0,0.0,0.0,0.0,0.0,0.0,0.0,0.0,0.0,0.0,0.0,0.0,0.0,0.0,0.0,0.0,0.0,0.0,0.0,0.0,0.0,0.0,0.0,0.0,0.0,0.0,0.0,0.0,0.0,0.0,0.0,0.0,0.0,0.0,0.0,0.0,0.7473,0.7305,0.6916,0.0,0.0,0.0,0.0,0.0,0.0,0.0,0.0,0.0,0.0,0.0,0.0,0.0,0.0,0.0,0.0,0.0,0.0,0.0,0.0,0.0,0.0,0.0,0.0,0.0,0.0,0.0,0.0,0.0,0.0,0.0,0.0,0.0,0.0,0.0,0.0,0.0,0.0,0.0,0.0,0.0,0.0,0.0,0.0,0.0,0.0,0.0,0.0,0.0,0.0,0.0,0.0,0.0,0.0,0.0,0.0,0.0,0.0,0.0,0.0,0.0,0.0,0.0,0.0,0.0,0.0,0.0,0.0,0.0,0.0,0.0,0.0,0.0,0.0,0.0,0.0,0.0,0.0,0.0,0.0,0.0,0.0,0.0,0.0,0.0,0.0,0.0,0.0,0.0,0.0,0.0,0.0,0.0,0.0,0.0,0.0,0.0,0.0,0.0,0.0,0.0,0.0,0.0,0.0,0.0,0.0,0.0,0.0,0.0,0.0,0.7414,0.7903,0.7656,0.0,0.6671,0.0,0.0,0.0,0.0,0.0,0.0,0.0,0.0,0.0,0.0,0.0,0.0,0.0,0.0,0.0,0.0,0.0,0.0,0.0,0.0,0.0,0.0,0.0,0.0,0.0,0.0,0.0,0.0,0.0,0.0,0.0,0.0,0.0,0.0,0.0,0.0,0.0,0.0,0.0,0.0,0.0,0.0,0.0,0.0,0.0,0.0,0.0,0.0,0.0,0.0,0.0,0.0,0.0,0.0,0.0,0.0,0.0,0.0,0.0,0.0,0.0,0.0,0.0,0.0,0.0,0.0,0.0,0.0,0.0,0.0,0.0,0.0,0.0,0.0,0.0,0.0,0.0,0.0,0.0,0.0,0.0,0.0,0.0,0.0,0.0,0.0,0.0,0.0,0.0,0.0,0.0,0.0,0.0,0.0,0.0,0.0,0.0,0.0,0.0,0.0,0.0,0.0,0.0,0.0,0.0,0.0,0.0,0.0,0.0,0.0,0.0,0.8475,0.8281,0.7856,0.0,0.0,0.0,0.0,0.0,0.0,0.0,0.0,0.0,0.0,0.0,0.0,0.0,0.0,0.0,0.0,0.0,0.0,0.0,0.0,0.0,0.0,0.0,0.0,0.0,0.0,0.0,0.0,0.0,0.0,0.0,0.0,0.0,0.0,0.0,0.0,0.0,0.0,0.0,0.0,0.0,0.0,0.0,0.0,0.0,0.0,0.0,0.0,0.0,0.0,0.0,0.0,0.0,0.0,0.0,0.0,0.0,0.0,0.0,0.0,0.0,0.0,0.0,0.0,0.0,0.0,0.0,0.0,0.0,0.0,0.0,0.0,0.0,0.0,0.0,0.0,0.0,0.0,0.0,0.0,0.0,0.0,0.0,0.0,0.0,0.0,0.0,0.0,0.0,0.0,0.0,0.0,0.0,0.0,0.0,0.0,0.0,0.0,0.0,0.0,0.0,0.0,0.0,0.0,0.0,0.0,0.0,0.0,0.0,0.0,0.8128,0.0,0.889,0.8854,0.8478,0.7755,0.0,0.0,0.0,0.0,0.0,0.0,0.0,0.0,0.0,0.0,0.0,0.0,0.0,0.0,0.0,0.0,0.0,0.0,0.0,0.0,0.0,0.0,0.0,0.0,0.0,0.0,0.0,0.0,0.0,0.0,0.0,0.0,0.0,0.0,0.0,0.0,0.0,0.0,0.0,0.0,0.0,0.0,0.0,0.0,0.0,0.0,0.0,0.0,0.0,0.0,0.0,0.0,0.0,0.0,0.0,0.0,0.0,0.0,0.0,0.0,0.0,0.0,0.0,0.0,0.0,0.0,0.0,0.0,0.0,0.0,0.0,0.0,0.0,0.0,0.0,0.0,0.0,0.0,0.0,0.0,0.0,0.0,0.0,0.0,0.0,0.0,0.0,0.0,0.0,0.0,0.0,0.0,0.0,0.0,0.0,0.0,0.0,0.0,0.0,0.0,0.0,0.0,0.0,0.0,0.0,0.0,0.0,0.0,0.0,0.8509,0.8909,0.9202,0.9317,0.8874,0.0,0.0,0.0,0.0,0.0,0.0,0.0,0.0,0.0,0.0,0.0,0.0,0.0,0.0,0.0,0.0,0.0,0.0,0.0,0.0,0.0,0.0,0.0,0.0,0.0,0.0,0.0,0.0,0.0,0.0,0.0,0.0,0.0,0.0,0.0,0.0,0.0,0.0,0.0,0.0,0.0,0.0,0.0,0.0,0.0,0.0,0.0,0.0,0.0,0.0,0.0,0.0,0.0,0.0,0.0,0.0,0.0,0.0,0.0,0.0,0.0,0.0,0.0,0.0,0.0,0.0,0.0,0.0,0.0,0.0,0.0,0.0,0.0,0.0,0.0,0.0,0.0,0.0,0.0,0.0,0.0,0.0,0.0,0.0,0.0,0.0,0.0,0.0,0.0,0.0,0.0,0.0,0.0,0.0,0.0,0.0,0.0,0.0,0.0,0.0,0.0,0.0,0.0,0.0,0.0,0.0,0.0,0.0,0.0,0.8019,0.8851,0.9537,0.9991,0.9616,0.911,0.0,0.0,0.0,0.0,0.0,0.0,0.0,0.0,0.0,0.0,0.0,0.0,0.0,0.0,0.0,0.0,0.0,0.0,0.0,0.0,0.0,0.0,0.0,0.0,0.0,0.0,0.0,0.0,0.0,0.0,0.0,0.0,0.0,0.0,0.0,0.0,0.0,0.0,0.0,0.0,0.0,0.0,0.0,0.0,0.0,0.0,0.0,0.0,0.0,0.0,0.0,0.0,0.0,0.0,0.0,0.0,0.0,0.0,0.0,0.0,0.0,0.0,0.0,0.0,0.0,0.0,0.0,0.0,0.0,0.0,0.0,0.0,0.0,0.0,0.0,0.0,0.0,0.0,0.0,0.0,0.0,0.0,0.0,0.0,0.0,0.0,0.0,0.0,0.0,0.0,0.0,0.0,0.0,0.0,0.0,0.0,0.0,0.0,0.0,0.0,0.0,0.0,0.0,0.0,0.0,0.0,0.0,0.0,0.0,0.8703,0.0,1.0216,0.0,1.012,0.9591,0.0,0.0,0.0,0.0,0.0,0.0,0.0,0.0,0.0,0.0,0.0,0.0,0.0,0.0,0.0,0.0,0.0,0.0,0.0,0.0,0.0,0.0,0.0,0.0,0.0,0.0,0.0,0.0,0.0,0.0,0.0,0.0,0.0,0.0,0.0,0.0,0.0,0.0,0.0,0.0,0.0,0.0,0.0,0.0,0.0,0.0,0.0,0.0,0.0,0.0,0.0,0.0,0.0,0.0,0.0,0.0,0.0,0.0,0.0,0.0,0.0,0.0,0.0,0.0,0.0,0.0,0.0,0.0,0.0,0.0,0.0,0.0,0.0,0.0,0.0,0.0,0.0,0.0,0.0,0.0,0.0,0.0,0.0,0.0,0.0,0.0,0.0,0.0,0.0,0.0,0.0,0.0,0.0,0.0,0.0,0.0,0.0,0.0,0.0,0.0,0.0,0.0,0.0,0.0,0.0,0.0,0.0,0.0,0.8742,1.0142,1.0587,1.0902,1.1022,1.0814,1.0339,0.0,0.0,0.0,0.0,0.0,0.0,0.0,0.0,0.0,0.0,0.0,0.0,0.0,0.0,0.0,0.0,0.0,0.0,0.0,0.0,0.0,0.0,0.0,0.0,0.0,0.0,0.0,0.0,0.0,0.0,0.0,0.0,0.0,0.0,0.0,0.0,0.0,0.0,0.0,0.0,0.0,0.0,0.0,0.0,0.0,0.0,0.0,0.0,0.0,0.0,0.0,0.0,0.0,0.0,0.0,0.0,0.0,0.0,0.0,0.0,0.0,0.0,0.0,0.0,0.0,0.0,0.0,0.0,0.0,0.0,0.0,0.0,0.0,0.0,0.0,0.0,0.0,0.0,0.0,0.0,0.0,0.0,0.0,0.0,0.0,0.0,0.0,0.0,0.0,0.0,0.0,0.0,0.0,0.0,0.0,0.0,0.0,0.0,0.0,0.0,0.0,0.0,0.0,0.0,0.0,0.0,0.0,0.0,0.0,1.0861,1.1426,1.191,1.2335,1.1786,1.1118,0.0,0.0,0.0,0.0,0.0,0.0,0.0,0.0,0.0,0.0,0.0,0.0,0.0,0.0,0.0,0.0,0.0,0.0,0.0,0.0,0.0,0.0,0.0,0.0,0.0,0.0,0.0,0.0,0.0,0.0,0.0,0.0,0.0,0.0,0.0,0.0,0.0,0.0,0.0,0.0,0.0,0.0,0.0,0.0,0.0,0.0,0.0,0.0,0.0,0.0,0.0,0.0,0.0,0.0,0.0,0.0,0.0,0.0,0.0,0.0,0.0,0.0,0.0,0.0,0.0,0.0,0.0,0.0,0.0,0.0,0.0,0.0,0.0,0.0,0.0,0.0,0.0,0.0,0.0,0.0,0.0,0.0,0.0,0.0,0.0,0.0,0.0,0.0,0.0,0.0,0.0,0.0,0.0,0.0,0.0,0.0,0.0,0.0,0.0,0.0,0.0,0.0,0.0,0.0,0.0,0.0,0.0,0.0,0.0,1.2089,1.2431,1.2778,1.3177,1.2579,1.1849,1.0985,0.0,0.0,0.0,0.0,0.0,0.0,0.0,0.0,0.0,0.0,0.0,0.0,0.0,0.0,0.0,0.0,0.0,0.0,0.0,0.0,0.0,0.0,0.0,0.0,0.0,0.0,0.0,0.0,0.0,0.0,0.0,0.0,0.0,0.0,0.0,0.0,0.0,0.0,0.0,0.0,0.0,0.0,0.0,0.0,0.0,0.0,0.0,0.0,0.0,0.0,0.0,0.0,0.0,0.0,0.0,0.0,0.0,0.0,0.0,0.0,0.0,0.0,0.0,0.0,0.0,0.0,0.0,0.0,0.0,0.0,0.0,0.0,0.0,0.0,0.0,0.0,0.0,0.0,0.0,0.0,0.0,0.0,0.0,0.0,0.0,0.0,0.0,0.0,0.0,0.0,0.0,0.0,0.0,0.0,0.0,0.0,0.0,0.0,0.0,0.0,0.0,0.0,0.0,0.0,0.0,0.0,0.0,0.0,1.3754,1.3649,1.3626,1.3651,1.3284,1.258,0.0,0.0,0.0,0.0,0.0,0.0,0.0,0.0,0.0,0.0,0.0,0.0,0.0,0.0,0.0,0.0,0.0,0.0,0.0,0.0,0.0,0.0,0.0,0.0,0.0,0.0,0.0,0.0,0.0,0.0,0.0,0.0,0.0,0.0,0.0,0.0,0.0,0.0,0.0,0.0,0.0,0.0,0.0,0.0,0.0,0.0,0.0,0.0,0.0,0.0,0.0,0.0,0.0,0.0,0.0,0.0,0.0,0.0,0.0,0.0,0.0,0.0,0.0,0.0,0.0,0.0,0.0,0.0,0.0,0.0,0.0,0.0,0.0,0.0,0.0,0.0,0.0,0.0,0.0,0.0,0.0,0.0,0.0,0.0,0.0,0.0,0.0,0.0,0.0,0.0,0.0,0.0,0.0,0.0,0.0,0.0,0.0,0.0,0.0,0.0,0.0,0.0,0.0,0.0,0.0,0.0,0.0,0.0,0.0,1.4478,1.5366,1.5672,1.5343,1.4511,1.3537,0.0,0.0,0.0,0.0,0.0,0.0,0.0,0.0,0.0,0.0,0.0,0.0,0.0,0.0,0.0,0.0,0.0,0.0,0.0,0.0,0.0,0.0,0.0,0.0,0.0,0.0,0.0,0.0,0.0,0.0,0.0,0.0,0.0,0.0,0.0,0.0,0.0,0.0,0.0,0.0,0.0,0.0,0.0,0.0,0.0,0.0,0.0,0.0,0.0,0.0,0.0,0.0,0.0,0.0,0.0,0.0,0.0,0.0,0.0,0.0,0.0,0.0,0.0,0.0,0.0,0.0,0.0,0.0,0.0,0.0,0.0,0.0,0.0,0.0,0.0,0.0,0.0,0.0,0.0,0.0,0.0,0.0,0.0,0.0,0.0,0.0,0.0,0.0,0.0,0.0,0.0,0.0,0.0,0.0,0.0,0.0,0.0,0.0,0.0,0.0,0.0,0.0,0.0,0.0,0.0,0.0,0.0,0.0,1.3742,1.5204,1.6416,1.6993,1.6894,1.5682,1.4502,0.0,0.0,0.0,0.0,0.0,0.0,0.0,0.0,0.0,0.0,0.0,0.0,0.0,0.0,0.0,0.0,0.0,0.0,0.0,0.0,0.0,0.0,0.0,0.0,0.0,0.0,0.0,0.0,0.0,0.0,0.0,0.0,0.0,0.0,0.0,0.0,0.0,0.0,0.0,0.0,0.0,0.0,0.0,0.0,0.0,0.0,0.0,0.0,0.0,0.0,0.0,0.0,0.0,0.0,0.0,0.0,0.0,0.0,0.0,0.0,0.0,0.0,0.0,0.0,0.0,0.0,0.0,0.0,0.0,0.0,0.0,0.0,0.0,0.0,0.0,0.0,0.0,0.0,0.0,0.0,0.0,0.0,0.0,0.0,0.0,0.0,0.0,0.0,0.0,0.0,0.0,0.0,0.0,0.0,0.0,0.0,0.0,0.0,0.0,0.0,0.0,0.0,0.0,0.0,0.0,0.0,0.0,0.0,1.4437,1.5956,1.7023,1.7764,1.8158,1.6767,1.5429,0.0,0.0,0.0,0.0,0.0,0.0,0.0,0.0,0.0,0.0,0.0,0.0,0.0,0.0,0.0,0.0,0.0,0.0,0.0,0.0,0.0,0.0,0.0,0.0,0.0,0.0,0.0,0.0,0.0,0.0,0.0,0.0,0.0,0.0,0.0,0.0,0.0,0.0,0.0,0.0,0.0,0.0,0.0,0.0,0.0,0.0,0.0,0.0,0.0,0.0,0.0,0.0,0.0,0.0,0.0,0.0,0.0,0.0,0.0,0.0,0.0,0.0,0.0,0.0,0.0,0.0,0.0,0.0,0.0,0.0,0.0,0.0,0.0,0.0,0.0,0.0,0.0,0.0,0.0,0.0,0.0,0.0,0.0,0.0,0.0,0.0,0.0,0.0,0.0,0.0,0.0,0.0,0.0,0.0,0.0,0.0,0.0,0.0,0.0,0.0,0.0,0.0,0.0,0.0,0.0,0.0,0.0,0.0,1.5254,1.7176,1.7715,1.8299,1.893,1.7385,1.6044,0.0,0.0,0.0,0.0,0.0,0.0,0.0,0.0,0.0,0.0,0.0,0.0,0.0,0.0,0.0,0.0,0.0,0.0,0.0,0.0,0.0,0.0,0.0,0.0,0.0,0.0,0.0,0.0,0.0,0.0,0.0,0.0,0.0,0.0,0.0,0.0,0.0,0.0,0.0,0.0,0.0,0.0,0.0,0.0,0.0,0.0,0.0,0.0,0.7768,0.0,0.0,0.0,0.0,0.0,0.0,0.0,0.0,0.0,0.0,0.0,0.0,0.0,0.0,0.0,0.0,0.0,0.0,0.0,0.0,0.0,0.0,0.0,0.0,0.0,0.0,0.0,0.0,0.0,0.0,0.0,0.0,0.0,0.0,0.0,0.0,0.0,0.0,0.0,0.0,0.0,0.0,0.0,0.0,0.0,0.0,0.0,0.0,0.0,0.0,0.0,0.0,0.0,0.0,0.0,0.0,0.0,0.0,0.0,1.5699,1.749,1.8149,1.874,1.9227,1.8244,1.7073,0.0,0.0,0.0,0.0,0.0,0.0,0.0,0.0,0.0,0.0,0.0,0.0,0.0,0.0,0.0,0.0,0.0,0.0,0.0,0.0,0.0,0.0,0.0,0.0,0.0,0.0,0.0,0.0,0.0,0.0,0.0,0.0,0.0,0.0,0.0,0.0,0.0,0.0,0.0,0.0,0.0,0.0,0.0,0.0,0.0,0.0,0.0,0.0,0.0,0.0,0.0,0.0,0.0,0.0,0.0,0.0,0.0,0.0,0.0,0.0,0.0,0.0,0.0,0.0,0.0,0.0,0.0,0.0,0.0,0.0,0.0,0.0,0.0,0.0,0.0,0.0,0.0,0.0,0.0,0.0,0.0,0.0,0.0,0.0,0.0,0.0,0.0,0.0,0.0,0.0,0.0,0.0,0.0,0.0,0.0,0.0,0.0,0.0,0.0,0.0,0.0,0.0,0.0,0.0,0.0,0.0,0.0,1.4681,1.6105,1.7577,1.8453,1.9095,1.9475,1.9041,1.8047,1.6545,0.0,0.0,0.0,0.0,0.0,0.0,0.0,0.0,0.0,0.0,0.0,0.0,0.0,0.0,0.0,0.0,0.0,0.0,0.0,0.0,0.0,0.0,0.0,0.0,0.0,0.0,0.0,0.0,0.0,0.0,0.0,0.0,0.0,0.0,0.0,0.0,0.0,0.0,0.6372,0.7298,0.0,0.0,0.0,0.0,0.0,0.0,0.0,0.0,0.8683,0.0,0.0,0.0,0.0,0.0,0.0,0.0,0.0,0.0,0.0,0.0,0.0,0.0,0.0,0.0,0.0,0.0,0.0,0.0,0.0,0.0,0.0,0.0,0.0,0.0,0.0,0.0,0.0,0.0,0.0,0.0,0.0,0.0,0.0,0.0,0.0,0.0,0.0,0.0,0.0,0.0,0.0,0.0,0.0,0.0,0.0,0.0,0.0,0.0,0.0,0.0,0.0,0.0,0.0,0.0,0.0,1.3788,1.5277,1.6728,1.8121,1.8593,1.9219,1.9994,1.9184,1.8301,1.7374,0.0,0.0,0.0,0.0,0.0,0.0,0.0,0.0,0.0,0.0,0.0,0.0,0.0,0.0,0.0,0.0,0.0,0.0,0.0,0.0,0.0,0.0,0.0,0.0,0.0,0.0,0.0,0.0,0.0,0.0,0.0,0.0,0.0,0.0,0.0,0.0,0.0,0.0,0.0,0.8384,0.9041,0.0,0.0,0.0,0.0,0.0,0.0,0.0,0.0,0.9054,0.0,0.0,0.0,0.0,0.0,0.0,0.0,0.0,0.0,0.0,0.0,0.0,0.0,0.0,0.0,0.0,0.0,0.0,0.0,0.0,0.0,0.0,0.0,0.0,0.0,0.0,0.0,0.0,0.0,0.0,0.0,0.0,0.0,0.0,0.0,0.0,0.0,0.0,0.0,0.0,0.0,0.0,0.0,0.0,0.0,0.0,0.0,0.0,0.0,0.0,0.0,0.0,0.0,0.0,0.0,1.4242,1.5736,1.7146,1.8404,1.9122,1.9639,1.9949,1.9122,1.8302,0.0,0.0,0.0,0.0,0.0,0.0,0.0,0.0,0.0,0.0,0.0,0.0,0.0,0.0,0.0,0.0,0.0,0.0,0.0,0.0,0.0,0.0,0.0,0.0,0.0,0.0,0.0,0.0,0.0,0.0,0.0,0.0,0.0,0.0,0.0,0.0,0.0,0.0,0.0,0.0,0.8991,0.9634,0.998,0.0,0.0,0.0,0.0,0.0,0.0,1.0242,1.0043,0.0,0.0,0.0,0.0,0.0,0.0,0.0,0.0,0.0,0.0,0.0,0.0,0.0,0.0,0.0,0.0,0.0,0.0,0.0,0.0,0.0,0.0,0.0,0.0,0.0,0.0,0.0,0.0,0.0,0.0,0.0,0.0,0.0,0.0,0.0,0.0,0.0,0.0,0.0,0.0,0.0,0.0,0.0,0.0,0.0,0.0,0.0,0.0,0.0,0.0,0.0,0.0,0.0,0.0,0.0,1.4568,1.6141,1.752,1.8654,1.9732,2.0182,2.0,1.9164,1.8343,0.0,0.0,0.0,0.0,0.0,0.0,0.0,0.0,0.0,0.0,0.0,0.0,0.0,0.0,0.0,0.0,0.0,0.0,0.0,0.0,0.0,0.0,0.0,0.0,0.0,0.0,0.0,0.0,0.0,0.0,0.0,0.0,0.0,0.0,0.0,0.0,0.0,0.0,0.0,0.0,0.0,1.0184,1.0775,1.1082,0.0,0.0,0.0,0.0,1.1172,1.1218,0.0,0.0,0.0,0.0,0.0,0.0,0.0,0.0,0.0,0.0,0.0,0.0,0.0,0.0,0.0,0.0,0.0,0.0,0.0,0.0,0.0,0.0,0.0,0.0,0.0,0.0,0.0,0.0,0.0,0.0,0.0,0.0,0.0,0.0,0.0,0.0,0.0,0.0,0.0,0.0,0.0,0.0,0.0,0.0,0.0,0.0,0.0,0.0,0.0,0.0,0.0,0.0,0.0,0.0,0.0,0.0,1.46,1.651,1.7962,1.8941,2.0165,2.076,2.0687,1.9677,1.8607,0.0,0.0,0.0,0.0,0.0,0.0,0.0,0.0,0.0,0.0,0.0,0.0,0.0,0.0,0.0,0.0,0.0,0.0,0.0,0.0,0.0,0.0,0.0,0.0,0.0,0.0,0.0,0.0,0.0,0.0,0.0,0.0,0.0,0.0,0.0,0.0,0.0,0.0,0.0,0.0,0.0,1.0973,1.1063,1.1447,1.1576,0.0,0.0,1.1694,1.133,1.1577,0.0,0.0,0.0,0.0,0.0,0.0,0.0,0.0,0.0,0.0,0.0,0.0,0.0,0.0,0.0,0.0,0.0,0.0,0.0,0.0,0.0,0.0,0.0,0.0,0.0,0.0,0.0,0.0,0.0,0.0,0.0,0.0,0.0,0.0,0.0,0.0,0.0,0.0,0.0,0.0,0.0,0.0,0.0,0.0,0.0,0.0,0.0,0.0,0.0,0.0,0.0,0.0,0.0,0.0,0.0,1.324,1.5627,1.7145,1.8601,2.0033,2.1101,2.141,2.0932,1.9805,1.88,0.0,0.0,0.0,0.0,0.0,0.0,0.0,0.0,0.0,0.0,0.0,0.0,0.0,0.0,0.0,0.0,0.0,0.0,0.0,0.0,0.0,0.0,0.0,0.0,0.0,0.0,0.0,0.0,0.0,0.0,0.0,0.0,0.0,0.0,0.0,0.0,0.0,0.0,0.0,0.0,0.0,0.0,1.2186,1.2749,0.0,0.0,0.0,1.3301,1.3152,0.0,0.0,0.0,0.0,0.0,0.0,0.0,0.0,0.0,0.0,0.0,0.0,0.0,0.0,0.0,0.0,0.0,0.0,0.0,0.0,0.0,0.0,0.0,0.0,0.0,0.0,0.0,0.0,0.0,0.0,0.0,0.0,0.0,0.0,0.0,0.0,0.0,0.0,0.0,0.0,0.0,0.0,0.0,0.0,0.0,0.0,0.0,0.0,0.0,0.0,0.0,0.0,0.0,0.0,0.0,0.0,0.0,1.6592,1.7841,1.934,2.1099,2.2034,2.2089,2.1239,2.0256,0.0,0.0,0.0,0.0,0.0,0.0,0.0,0.0,0.0,0.0,0.0,0.0,0.0,0.0,0.0,0.0,0.0,0.0,0.0,0.0,0.0,0.0,0.0,0.0,0.0,0.0,0.0,0.5265,0.0,0.0,0.0,0.0,0.0,0.0,0.0,0.0,0.0,0.0,0.0,0.0,0.0,0.0,1.2844,1.3494,1.4065,1.4412,0.0,0.0,1.4719,1.4634,1.4338,1.3871,0.0,0.0,0.0,0.0,0.0,0.0,0.0,0.0,0.0,0.0,0.0,0.0,0.0,0.0,0.0,0.0,0.0,0.0,0.0,0.0,0.0,0.0,0.0,0.0,0.0,0.0,0.0,0.0,0.0,0.0,0.0,0.0,0.0,0.0,0.0,0.0,0.0,0.0,0.0,0.0,0.0,0.0,0.0,0.0,0.0,0.0,0.0,0.0,0.0,0.0,0.0,0.0,0.0,0.0,0.0,1.7004,1.8612,2.0193,2.179,2.2817,2.2857,2.1868,2.1402,2.0214,0.0,0.0,0.0,0.0,0.0,0.0,0.0,0.0,0.0,0.0,0.0,0.0,0.0,0.0,0.0,0.0,0.0,0.0,0.0,0.0,0.0,0.0,0.0,0.0,0.0,0.0,0.0,0.0,0.0,0.0,0.0,0.0,0.0,0.0,0.0,0.0,0.0,0.0,0.0,0.0,0.0,1.3602,1.4807,1.4955,1.5001,0.0,0.0,1.5329,1.5013,1.4788,1.4383,1.3663,0.0,0.0,0.0,0.0,0.0,0.0,0.0,0.0,0.0,0.0,0.0,0.0,0.0,0.0,0.0,0.0,0.0,0.0,0.0,0.0,0.0,0.0,0.0,0.0,0.0,0.0,0.0,0.0,0.0,0.0,0.0,0.0,0.0,0.0,0.0,0.0,0.0,0.0,0.0,0.0,0.0,0.0,0.0,0.0,0.0,0.0,0.0,0.0,0.0,0.0,0.0,0.0,0.0,1.5368,1.8103,1.9397,2.0994,2.2867,2.3515,2.3534,2.2896,2.2009,2.0879,0.0,0.0,0.0,0.0,0.0,0.0,0.0,0.0,0.0,0.0,0.0,0.0,0.0,0.0,0.0,0.0,0.0,0.0,0.0,0.0,0.0,0.0,0.0,0.0,0.0,0.0,0.0,0.0,0.7222,0.7556,0.7846,0.0,0.0,0.0,0.0,0.0,0.0,0.0,0.0,0.0,0.0,1.5077,1.5627,1.6325,0.0,0.0,1.6316,1.6254,1.5755,1.5417,1.4995,1.4387,1.3416,0.0,0.0,0.0,0.0,0.0,0.0,0.0,0.0,0.0,0.0,0.0,0.0,0.0,0.0,0.0,0.0,0.0,0.0,0.0,0.0,0.0,0.0,0.0,0.0,0.0,0.0,0.0,0.0,0.0,0.0,0.0,0.0,0.0,0.0,0.0,0.0,0.0,0.0,0.0,0.0,0.0,0.0,0.0,0.0,0.0,0.0,0.0,0.0,0.0,0.0,0.0,0.0,1.6317,1.9017,2.0193,2.1801,2.3769,2.4175,2.4114,2.3613,2.2884,2.1882,0.0,0.0,0.0,0.0,0.0,0.0,0.0,0.0,0.0,0.0,0.0,0.0,0.0,0.0,0.0,0.0,0.0,0.0,0.0,0.0,0.0,0.0,0.0,0.0,0.0,0.0,0.0,0.0,0.7994,0.8326,0.8661,0.0,0.0,0.0,0.0,0.0,0.0,0.0,0.0,0.0,0.0,1.6475,1.6838,1.7559,1.7841,1.7308,1.7123,1.6884,1.6422,1.5878,1.5357,1.5013,0.0,0.0,0.0,0.0,0.0,0.0,0.0,0.0,0.0,0.0,0.0,0.0,0.0,0.0,0.0,0.0,0.0,0.0,0.0,0.0,0.0,0.0,0.0,0.0,0.0,0.0,0.0,0.7861,0.0,0.0,0.7294,0.0,0.0,0.0,0.0,0.0,0.0,0.0,0.0,0.0,0.0,0.0,0.0,0.0,0.0,0.0,0.0,0.0,0.0,0.0,0.0,0.0,0.0,1.7169,1.9553,2.1039,2.2591,2.4238,2.475,2.4622,2.3958,2.4123,2.3332,2.1426,0.0,0.0,0.0,0.0,0.0,0.0,0.0,0.0,0.0,0.0,0.0,0.0,0.0,0.0,0.0,0.0,0.0,0.0,0.0,0.0,0.0,0.0,0.0,0.0,0.0,0.0,0.9015,0.9361,0.9564,0.0,0.0,0.0,0.0,0.0,0.0,0.0,0.0,0.0,0.0,1.6457,1.7633,1.8578,1.8545,1.8406,1.8326,1.7684,1.7135,1.6891,1.6132,1.5504,0.0,0.0,0.0,0.0,0.0,0.0,0.0,0.0,0.0,0.0,0.0,0.0,0.0,0.0,0.0,0.0,0.0,0.0,0.0,0.0,0.0,0.0,0.0,0.0,0.0,0.0,0.0,0.9696,0.9656,0.0,0.0,0.0,0.0,0.0,0.0,0.0,0.0,0.0,0.0,0.0,1.3895,1.4275,0.0,0.0,0.0,0.0,0.0,0.0,0.0,0.0,0.0,0.0,0.0,0.0,1.8519,2.0496,2.2022,2.3443,2.4723,2.5005,2.5078,2.4956,2.4654,2.3543,2.1526,0.0,0.0,0.0,0.0,0.0,0.0,0.0,0.0,0.0,0.0,0.0,0.0,0.0,0.0,0.0,0.0,0.0,0.0,0.0,0.0,0.0,0.0,0.0,0.0,0.0,0.9697,0.0,0.0,0.0,0.0,0.0,0.0,0.0,0.0,0.0,0.0,0.0,1.554,1.6773,1.7943,1.8751,1.8927,1.9191,1.9112,0.0,0.0,0.0,0.0,0.0,0.0,0.0,0.0,0.0,0.0,0.0,0.0,0.0,0.0,1.6799,1.5991,1.5902,1.5989,1.6063,0.0,0.0,0.0,0.0,0.0,0.0,0.0,0.0,0.0,0.0,0.0,0.0,0.0,0.0,1.1907,0.0,1.1201,0.0,0.0,0.0,0.0,0.0,0.0,0.0,0.0,1.4601,1.5376,1.6515,1.6814,1.713,0.0,1.7136,1.6199,0.0,0.0,0.0,0.0,0.0,0.0,0.0,0.0,1.9646,2.1197,2.2718,2.4006,2.502,2.5258,2.5411,2.5481,2.4846,2.3679,2.1937,2.028,1.8562,0.0,0.0,0.0,0.0,0.0,0.0,0.0,0.0,0.0,0.0,0.0,0.0,0.0,0.0,0.0,0.0,0.0,0.0,0.0,0.0,0.0,0.0,0.0,1.1141,0.0,0.0,0.0,0.0,0.0,0.0,0.0,0.0,0.0,1.5177,1.6119,1.7252,1.8355,1.9268,1.9765,1.9583,0.0,0.0,0.0,0.0,0.0,0.0,0.0,1.7748,1.7678,1.7888,1.8082,1.8079,1.8277,1.8767,1.9777,0.0,0.0,1.8288,1.811,1.8173,1.8131,1.8815,1.9659,2.0597,2.1804,2.2957,0.0,0.0,0.0,0.0,0.0,0.0,0.0,0.0,1.4508,1.444,0.0,1.314,0.0,0.0,0.0,0.0,0.0,1.4165,0.0,0.0,1.7357,1.8136,1.9058,1.9308,1.9472,1.9567,1.9025,1.8843,1.8894,1.5991,0.0,0.0,0.0,0.0,0.0,0.0,2.0579,2.1694,2.3178,2.438,2.523,2.555,2.5633,2.5495,2.4764,2.3846,2.272,2.1665,2.0019,1.7652,1.6573,0.0,0.0,0.0,0.0,0.0,0.0,0.0,0.0,0.0,0.0,0.0,0.0,0.0,0.0,0.0,0.0,0.0,0.0,0.0,0.0,1.2639,0.0,0.0,0.0,0.0,0.0,0.0,0.0,0.0,0.0,0.0,1.7421,1.8122,1.904,1.9998,0.0,0.0,0.0,0.0,2.0126,1.9466,1.9576,1.9605,1.9219,1.8989,1.9024,1.9491,0.0,0.0,2.0634,2.0596,2.0811,2.1868,2.2205,2.1846,2.0219,2.0058,2.0022,1.9771,2.0303,2.1127,2.2412,2.3562,2.4532,1.7866,0.0,0.0,0.0,0.0,1.6036,1.6161,1.6221,1.634,1.6321,1.6167,1.562,0.0,0.0,0.0,0.0,0.0,0.0,1.7833,1.9399,1.9834,2.0455,2.1299,2.1587,2.1885,2.2169,2.151,2.1284,2.1395,1.9566,1.8223,1.7389,0.0,0.0,0.0,0.0,2.1694,2.3057,2.4147,2.5144,2.6045,2.5814,2.5729,2.577,2.5466,2.4899,2.4045,2.2732,2.1413,2.0072,1.805,0.0,0.0,0.0,0.0,0.0,0.0,0.0,0.0,0.0,0.0,0.0,0.0,0.0,0.0,0.0,0.0,0.0,0.0,0.0,1.3987,1.4912,1.5335,0.0,0.0,0.0,0.0,0.0,0.0,0.0,0.0,0.0,2.1906,2.139,2.1407,0.0,0.0,2.2181,2.205,2.1707,2.1271,2.08,2.0636,0.0,2.0422,2.0493,2.0669,2.0956,2.1235,2.161,2.217,2.2331,2.2664,2.3421,2.3728,2.3784,2.3662,2.2992,2.2555,2.261,2.3282,2.4195,2.5203,2.64,2.7563,2.1526,1.9981,1.849,1.788,1.7962,1.8294,1.8432,1.8509,1.8671,1.8621,1.8349,1.7867,1.7413,1.6978,1.6947,0.0,0.0,0.0,2.0074,2.1476,2.1912,2.2497,2.3167,2.3351,2.3621,2.4001,2.3478,2.3361,2.3626,2.2636,2.1718,2.0809,0.0,0.0,2.0925,2.1851,2.2803,2.385,2.4748,2.5506,2.6105,2.5897,2.5825,2.5893,2.5784,2.5354,2.4623,2.341,2.2268,2.1221,1.9383,1.778,0.0,0.0,0.0,0.0,0.0,0.0,0.0,0.0,0.0,0.0,0.0,1.1239,1.1644,0.0,0.0,0.0,1.4429,1.553,1.6432,1.7366,0.0,0.0,0.0,0.0,0.0,0.0,0.0,2.2278,2.3716,2.4924,2.5582,2.5121,2.4561,2.4129,2.3636,2.3213,2.2991,0.0,2.2154,2.1722,2.1752,2.1774,2.1704,2.189,2.2161,2.2463,2.2842,2.3276,2.3701,2.3918,2.4177,2.4638,2.4931,2.5179,2.552,2.5238,2.4842,2.4633,2.5229,2.6061,2.6858,2.8026,2.9098,2.4761,2.448,2.1483,2.0119,2.0042,2.0734,2.0926,2.0791,2.1203,2.1056,2.0464,1.9936,1.9474,1.9155,1.9264,0.0,2.076,2.134,2.2166,2.3144,2.3705,2.4278,2.4773,2.4691,2.4852,2.5251,2.5031,2.5122,2.5462,2.5109,2.5003,2.5086,2.269,2.1859,2.2573,2.3349,2.3904,2.4286,2.508,2.5578,2.5715,2.5895,2.595,2.5907,2.577,2.5396,2.4678,2.3805,2.2738,2.1482,2.0529,1.9194,1.7425,0.0,0.0,0.0,0.0,0.0,0.0,0.0,0.0,0.0,0.0,0.0,0.0,0.0,0.0,0.0,1.7031,0.0,1.931,2.0074,0.0,0.0,0.0,2.2256,2.2439,2.332,2.4318,2.5467,0.0,0.0,2.8437,2.8756,2.8013,2.5548,2.463,2.414,2.3867,2.3524,2.3002,2.2659,2.3012,2.3284,2.3115,2.3214,2.3469,2.3877,2.4313,2.4638,2.5052,2.521,2.5359,2.5569,2.5833,2.601,2.6218,2.6707,2.6947,2.6112,2.6442,2.7057,2.7916,2.8851,2.9715,2.6133,2.6028,2.4963,2.3662,2.2364,2.2238,2.2149,2.214,2.224,2.2292,2.2279,2.2138,2.2116,2.2157,2.2144,2.2699,2.3703,2.4134,2.4618,2.5129,2.5408,2.5558,2.5606,2.5733,2.6055,2.6511,2.6191,2.621,2.6521,2.6299,2.6235,2.6344,2.5891,2.5114,2.4107,2.4025,2.4571,2.5681,2.5674,2.5715,2.5866,2.6329,2.6371,2.5921,2.5866,2.5673,2.5273,2.4197,2.33,2.2599,2.104,1.985,1.9171,1.7471,0.0,0.0,0.0,0.0,0.0,0.0,0.0,0.0,0.0,1.4791,1.5897,0.0,1.7253,0.0,1.9613,2.1317,2.2675,2.3519,0.0,0.0,2.5492,2.6124,2.5764,2.7047,2.8032,2.8184,2.9025,2.9707,2.9977,2.9888,2.957,2.889,2.782,2.7003,2.6745,2.5978,2.5376,2.5048,2.481,2.4652,2.4474,2.4452,2.4608,2.4851,2.4967,2.5137,2.5475,2.5644,2.5791,2.6021,2.6271,2.6539,2.6889,2.7237,2.7602,2.7953,2.8309,2.8776,2.96,3.0431,3.1207,2.7535,2.7492,2.7115,2.6344,2.5311,2.4226,2.3698,2.3618,2.3618,2.3681,2.379,2.3761,2.3844,2.4064,2.4324,2.48,2.5479,2.5953,2.6293,2.6472,2.6773,2.6807,2.6624,2.6821,2.7079,2.7347,2.7285,2.7398,2.7656,2.7685,2.7754,2.7817,2.7661,2.7105,2.6227,2.5761,2.5932,2.6765,2.6399,2.6077,2.5907,2.6231,2.6231,2.5921,2.5839,2.5716,2.5495,2.428,2.345,2.3082,2.154,2.0445,1.9988,1.8623,1.7514,0.0,0.0,0.0,0.0,0.0,0.0,0.0,0.0,0.0,0.0,0.0,2.0153,2.1364,2.2764,2.424,2.5724,2.6687,2.7365,2.7756,2.8786,2.9265,2.8835,3.0002,3.0754,3.0572,3.1092,3.1478,3.1478,3.1266,3.1086,3.0967,3.0255,2.9283,2.8172,2.7315,2.6693,2.6425,2.6099,2.5821,2.572,2.5701,2.5784,2.5958,2.6087,2.6271,2.6486,2.6535,2.6603,2.6791,2.6862,2.6992,2.7397,2.7834,2.8315,2.891,2.947,2.9985,3.0527,3.1172,3.1909,2.884,2.883,2.8493,2.8329,2.8163,2.6469,2.5504,2.5105,2.5094,2.5082,2.5147,2.5141,2.5256,2.5472,2.6124,2.654,2.6769,2.7335,2.7543,2.7569,2.7928,2.7957,2.7753,2.7956,2.8096,2.8146,2.845,2.8706,2.8899,2.9139,2.9255,2.9214,2.8662,2.8387,2.8346,2.7864,2.7564,2.7543,2.7128,2.6638,2.6034,2.5936,2.5907,2.5893,2.5784,2.5661,2.5481,2.431,2.3521,2.323,2.2088,2.1131,2.0527,1.9832,1.9169,0.0,1.791,0.0,0.0,0.0,0.0,0.0,0.0,0.0,0.0,2.2272,2.3448,2.5345,2.6173,2.7187,2.8607,2.9629,3.0486,3.1146,3.1695,3.1902,3.17,3.2334,3.2759,3.2563,3.2703,3.2819,3.2803,3.2649,3.2376,3.2118,3.1775,3.0914,2.9223,2.8275,2.77,2.7334,2.7056,2.6876,2.689,2.6859,2.6873,2.7084,2.7283,2.7558,2.7689,2.7606,2.7561,2.7738,2.7725,2.7746,2.8071,2.8711,2.9243,2.9678,3.0394,3.0953,3.1043,3.1524,3.2164,2.9668,2.968,2.9772,2.9579,2.9214,2.8843,2.7765,2.627,2.6047,2.6162,2.6528,2.6843,2.7076,2.7325,2.783,2.8257,2.8597,2.8869,2.8942,2.8843,2.9072,2.9103,2.8989,2.9337,2.9653,2.9906,3.013,3.0329,3.0449,3.0197,3.0074,3.006,2.9572,2.9325,2.9325,0.0,0.0,0.0,2.7664,2.7299,2.6638,2.6146,2.5907,2.5907,2.588,0.0,2.5495,2.4776,2.4135,2.362,2.2898,0.0,0.0,0.0,0.0,0.0,0.0,0.0,0.0,0.0,0.0,0.0,2.5437,2.5114,2.4818,2.5933,2.7244,2.8574,2.9369,3.033,3.1557,3.2426,3.3056,3.3357,3.3862,3.3979,3.3501,3.3794,3.3991,3.3795,3.3632,3.3513,3.3492,3.3219,3.2952,3.2853,3.2329,3.1741,3.1153,3.0074,2.933,2.9046,2.8328,2.7928,2.8063,2.7789,2.7701,2.7832,2.792,2.8073,2.8291,2.8451,2.8586,2.8786,2.9066,2.9424,2.9894,3.0491,3.0906,3.106,3.1768,3.2153,3.1625,3.2051,3.2757,3.0443,0.0,3.0657,3.0606,0.0,3.0245,2.9617,2.8674,2.7664,2.7364,2.7554,2.7966,2.8255,2.8462,2.8914,2.93,2.9599,2.9908,3.0005,2.9977,3.0349,3.0398,3.0144,3.0501,3.067,3.0654,3.0844,3.0962,3.1032,3.095,3.0725,3.0401,3.0159,2.9896,2.9617,2.9602,2.9153,2.8255,2.824,2.7762,2.6849,2.6835,2.6666,2.6357,2.6287,0.0,0.0,0.0,0.0,0.0,0.0,0.0,0.0,0.0,0.0,2.3781,2.385,2.4253,2.5057,2.5326,2.6228,2.7994,2.8963,2.8954,2.7763,2.9006,3.0206,3.1096,3.1885,3.2692,3.3591,3.4325,3.4773,3.4881,3.5231,3.5249,3.4895,3.4845,3.4812,3.4618,3.4364,3.4155,3.405,3.3781,3.3484,3.3283,3.284,3.2438,3.2145,3.1172,3.0273,2.992,2.9511,2.9184,2.9252,2.9128,2.8947,2.9103,2.9236,2.9414,2.9601,2.9645,2.9764,3.005,3.0242,3.0471,3.105,3.1638,3.2106,3.2437,3.3091,3.3596,3.3357,3.3276,3.3357,3.1174,3.1184,3.1407,3.1496,3.1482,3.1313,3.121,3.1074,0.0,0.0,0.0,2.8892,2.9138,2.9365,2.9779,3.0088,3.0324,3.0647,3.0849,3.0924,3.1458,3.154,3.1267,3.1625,3.164,3.1342,3.1565,3.1666,3.1682,3.1715,3.1472,3.0946,3.0821,3.0453,2.986,2.9705,2.938,2.8901,2.8745,2.8183,2.7172,2.758,2.7552,2.7003,2.6861,2.679,2.6762,2.5536,2.5052,2.549,2.4842,2.4674,2.5175,2.5354,2.552,2.5629,2.5839,2.6459,2.7525,2.7745,2.851,3.0165,3.1655,3.1912,3.0479,3.1567,3.2555,3.3183,3.3925,3.4575,3.5059,3.5669,3.5994,3.5964,3.6101,3.6112,3.5831,3.5602,3.5379,3.5216,3.4936,3.4709,3.4543,3.4348,3.4042,3.3662,3.3398,3.3167,3.2754,3.1825,3.0959,3.06,3.0464,3.0442,3.0453,3.0441,3.0465,3.0429,3.0609,3.087,3.1057,3.0993,3.1057,3.1504,3.142,3.1672,3.2204,3.2891,3.3317,3.3715,3.4388,3.5059,3.5224,3.4825,3.4522,3.1857,3.1879,3.2135,3.2235,3.2245,3.2376,3.2411,3.2223,3.0454,2.982,3.0007,2.996,3.0024,3.0235,3.0457,3.0779,3.1123,3.1185,3.1416,3.1743,3.2,3.2151,3.224,3.2784,3.3021,3.2989,3.3336,3.3522,3.3465,3.2953,3.2642,3.2499,3.2046,3.1381,3.0642,3.006,2.9686,2.9462,2.8956,2.862,2.8422,2.8016,2.7763,2.7664,2.7636,2.7534,2.736,2.715,2.6989,2.6849,2.6736,2.6679,2.6774,2.7268,2.785,2.8467,2.9024,2.9603,3.0279,3.053,3.1029,3.2002,3.336,3.3737,3.2772,3.3387,3.4149,3.4806,3.5419,3.5826,3.5967,3.6453,3.6741,3.6588,3.6593,3.653,3.6292,3.5938,3.5663,3.5609,3.5277,3.5052,3.499,3.4791,3.4564,3.4293,3.4042,3.3802,3.3279,3.2469,3.1825,3.155,3.1484,3.1472,3.145,3.1484,3.1461,3.1484,3.1528,3.1715,3.2098,3.2122,3.2318,3.2948,3.3115,3.3476,3.4112,3.4826,3.5107,3.5264,3.5844,3.6378,3.6324,3.6517,3.6643,3.2838,3.2602,3.2828,3.2927,3.2961,3.315,3.331,3.3319,3.236,3.1711,3.14,3.1054,3.1048,3.1367,3.1249,3.1341,3.1619,3.1813,3.1982,3.2196,3.2602,3.2834,3.2927,3.3396,3.3623,3.364,3.381,3.3914,3.3885,3.3582,3.3268,3.288,3.2313,3.1809,3.1429,3.0817,3.0486,3.0394,2.9613,2.9026,2.8703,2.8761,2.862,2.8297,2.8283,2.8253,2.8135,2.7739,2.7593,2.7806,2.7728,2.7847,2.8193,2.8866,2.9418,2.9743,3.0422,3.1068,3.1667,3.2218,3.279,3.3483,3.4228,3.4789,3.5056,3.5358,3.5682,3.5999,3.6561,3.6878,3.6763,3.6998,3.709,3.6875,3.6766,3.6662,3.6563,3.6278,3.6078,3.6072,3.5918,3.5696,3.546,3.5325,3.512,3.4846,3.4585,3.4272,3.3865,3.3441,3.2914,3.2394,3.2232,3.2232,3.2232,3.2254,3.2286,3.2373,3.2394,3.2599,3.2988,3.3095,3.3394,3.3945,3.4293,3.4696,3.5298,3.5944,3.6355,3.6717,3.7281,3.7725,3.7984,3.8202,3.8016,3.3783,3.3383,3.3513,3.3598,3.3704,3.3873,3.4084,3.4288,3.4097,3.3678,3.3086,3.2339,3.2218,3.2549,3.219,3.212,3.2322,3.2467,3.2574,3.2664,3.3122,3.3413,3.3504,3.3848,3.4037,3.4085,3.4105,3.414,3.4122,3.4122,3.3863,3.3331,3.276,3.2425,3.2329,3.1728,3.1381,3.1257,3.0532,2.9752,2.9003,2.9379,2.9362,2.8942,2.8901,2.89,2.8872,2.8288,2.8256,2.8813,2.8775,2.9004,2.9598,3.0232,3.0634,3.0802,3.1398,3.2047,3.2701,3.3446,3.4072,3.453,3.5075,3.5787,3.6687,3.7053,3.7069,3.6991,3.7306,3.75,3.7371,3.7347,3.7303,3.709,3.6929,3.6845,3.6766,3.6603,3.6464,3.6451,3.6411,3.6232,3.5978,3.5878,3.5683,3.5311,3.5018,3.4729,3.441,3.4327,3.3958,3.3394,3.3022,3.2957,3.2979,3.3022,3.312,3.3266,3.3322,3.3543,3.386,3.4021,3.4288,3.4902,3.5209,3.5636,3.6243,3.6867,3.7371,3.7753,3.8432,3.9142,3.9645,3.9626,3.9172,3.4506,3.4409,3.4182,3.4251,3.4551,3.4605,3.475,3.5011,3.5162,3.5325,3.519,3.4041,3.3628,3.3764,3.3409,3.334,3.3473,3.3127,3.3037,3.3224,3.3466,3.373,3.4025,3.4247,3.4448,3.4614,3.4733,3.4769,3.4785,3.4802,3.4774,3.4657,3.41,3.3646,3.3313,3.27,3.2222,3.1915,3.1823,3.11,2.9792,2.9623,2.9574,2.9517,2.9503,2.9532,2.9518,2.9446,2.9684,3.0229,3.0269,3.0577,3.1171,3.1356,3.1637,3.2143,3.2439,3.2936,3.3685,3.4336,3.4728,3.4871,3.6202,3.7085,3.7302,3.8077,3.8269,3.7738,3.7587,3.761,3.7572,3.7586,3.7476,3.7303,3.7245,3.7187,3.6993,3.6792,3.6668,3.6648,3.6563,3.6371,3.6331,3.6292,3.6118,3.5723,3.5501,3.5277,3.5052,3.499,3.4908,3.4468,3.4029,3.3776,3.3873,3.3971,3.4034,3.4209,3.4272,3.4481,3.4791,3.4977,3.5223,3.5904,3.6149,3.65,3.7197,3.782,3.8206,3.8653,3.931,4.0076,4.0826,4.0941,4.0385,3.6039,3.5409,3.5265,3.5088,3.4962,3.5059,3.5243,3.5467,3.5683,3.5965,3.6249,3.5825,3.5444,3.5051,3.4645,3.4357,3.4161,3.4104,3.3952,3.3813,3.3971,3.4193,3.4448,3.4601,3.4785,3.4983,3.5065,3.5133,3.517,3.5203,3.5152,3.5083,3.4802,3.4584,3.4296,3.3695,3.3323,3.3165,3.2592,3.1985,3.1386,3.0682,3.0125,2.9813,2.9987,3.0134,3.0163,3.0502,3.0825,3.1078,3.1176,3.1323,3.1608,3.2061,3.2437,3.269,3.3144,3.3713,3.4385,3.4882,3.5483,3.6205,3.7117,3.7784,3.8154,3.8576,3.8649,3.8371,3.8202,3.8085,3.7957,3.7872,3.7701,3.7515,3.749,3.7399,3.7206,3.7109,3.7026,3.6889,3.6811,3.6693,3.6589,3.6451,3.6331,3.6152,3.6018,3.5898,3.5683,3.5629,3.5528,3.5325,3.5025,3.4833,3.4743,3.4681,3.4825,3.5059,3.5161,3.5325,3.5696,3.5803,3.6084,3.6925,3.7042,3.7376,3.815,3.8616,3.9038,3.9508,4.0287,4.1123,4.1818,4.177,4.1267,3.7442,3.6686,3.6413,3.6065,3.5716,3.567,3.5784,3.5991,3.6191,3.6502,3.6875,3.707,3.6927,3.6414,3.5892,3.5433,3.5206,3.5218,3.496,3.4568,3.4763,3.4892,3.4929,3.5067,3.5231,3.5393,3.5411,3.5477,3.556,3.556,3.551,3.5442,3.5426,3.5328,3.509,3.4627,3.4371,3.4277,3.3547,3.308,3.2829,3.2041,3.1194,3.051,3.0738,3.0912,3.0926,3.138,3.1721,3.1874,3.1976,3.2113,3.2298,3.2841,3.3216,3.336,3.3936,3.4551,3.507,3.5712,3.6485,3.7418,3.8001,3.8524,3.8934,3.909,3.9126,3.9123,3.8885,3.8645,3.8389,3.8179,3.7986,3.7782,3.7706,3.7605,3.7419,3.738,3.7336,3.7187,3.7167,3.7109,3.6968,3.6831,3.6733,3.6668,3.6648,3.6555,3.6363,3.627,3.6211,3.6071,3.6051,3.5831,3.546,3.5406,3.5602,3.5864,3.6011,3.6197,3.6559,3.6657,3.6936,3.7696,3.7844,3.824,3.8929,3.9418,3.9955,4.051,4.1207,4.1964,4.2444,4.2439,4.216,3.8342,3.8168,3.7323,3.7044,3.7125,3.6613,3.6476,3.6646,3.6861,3.7076,3.7303,3.7495,3.7772,3.794,3.7083,3.6741,3.68,3.6432,3.5997,3.5622,3.5948,3.5889,3.5487,3.559,3.5767,3.5926,3.5926,3.5973,3.5974,3.5989,3.5973,3.5957,3.5926,3.5878,3.5639,3.5448,3.5316,3.5096,3.4825,3.4489,3.399,3.368,3.3004,3.2065,3.1925,3.1923,3.1938,3.1966,3.2266,3.2806,3.2851,3.3139,3.3696,3.3831,3.4002,3.4361,3.4934,3.5484,3.5962,3.7025,3.7836,3.8148,3.8832,3.9385,3.9577,3.9732,3.9836,3.9922,3.955,3.9195,3.8833,3.859,3.8366,3.8165,3.7991,3.783,3.7625,3.7586,3.7572,3.7553,3.7515,3.7476,3.7515,3.7534,3.738,3.7264,3.7245,3.7167,3.6973,3.6934,3.692,3.692,3.6861,3.6724,3.6151,3.6157,3.6362,3.6598,3.6847,3.7056,3.7341,3.7644,3.8071,3.8449,3.8634,3.9038,3.9687,4.0305,4.0905,4.1474,4.1948,4.2571,4.296,4.3327,4.3074,3.9206,3.8788,3.8256,3.7812,3.751,3.759,3.7425,3.7109,3.7429,3.7692,3.7896,3.8085,3.8315,3.8564,3.8355,3.8,3.7601,3.7484,3.7219,3.6864,3.7043,3.69,3.6493,3.6514,3.6433,3.6319,3.632,3.6429,3.6616,3.6647,3.6523,3.6336,3.6336,3.6179,3.5926,3.5846,3.5781,3.5702,3.5509,3.5275,3.4968,3.4759,3.4396,3.3882,3.3147,3.27,3.2582,3.2968,3.3378,3.3664,3.3797,3.4016,3.4366,3.4481,3.4789,3.529,3.5588,3.6192,3.7203,3.7845,3.8495,3.9094,3.9528,3.9785,3.9889,3.996,4.0011,3.9975,3.9907,3.9661,3.9376,3.898,3.8612,3.8422,3.8329,3.8137,3.7891,3.7777,3.7758,3.7644,3.7591,3.7591,3.761,3.7591,3.7572,3.7515,3.7495,3.7457,3.7419,3.738,3.7457,3.7558,3.7596,3.7544,3.7505,3.7211,3.7211,3.7429,3.7653,3.7924,3.8202,3.8333,3.8671,3.922,3.9436,3.9831,4.0476,4.1108,4.172,4.2174,4.2696,4.3007,4.3388,4.3743,4.3595,4.0228,3.9802,3.9368,3.8944,3.8591,3.8734,3.8471,3.7992,3.826,3.841,3.8437,3.8608,3.8811,3.8998,3.9213,3.9077,3.8603,3.86,3.8412,3.8032,3.8179,3.8,3.7583,3.7621,3.7583,3.7342,3.7064,3.7018,3.6984,3.6984,3.6877,3.6662,3.6647,3.6554,3.6351,3.621,3.6147,3.6131,3.5926,3.575,3.5636,3.5523,3.5346,3.5091,3.4394,3.3847,3.3563,3.3994,3.4261,3.4366,3.4484,3.4633,3.4781,3.5124,3.5538,3.6035,3.6548,3.7233,3.8242,3.8725,3.9214,3.9814,4.0051,4.0174,4.0259,4.0327,4.0329,4.0277,4.0189,4.0086,3.9841,3.9397,3.898,3.8738,3.8571,3.8404,3.8123,3.8062,3.7934,3.7844,3.782,3.782,3.7815,3.7801,3.7839,3.7891,3.791,3.791,3.7972,3.7995,3.8014,3.8169,3.8202,3.8296,3.8352,3.8258,3.8071,3.8225,3.8337,3.8668,3.8929,3.9056,3.9331,3.9882,4.037,4.0749,4.1257,4.1867,4.2349,4.2789,4.3098,4.3417,4.3787,4.4176,4.4004,4.1381,4.1232,4.0759,4.0451,4.0271,4.0026,3.9647,3.93,3.938,3.9241,3.9033,3.9065,3.9232,3.9409,3.9643,3.9773,3.9816,3.9733,3.9435,3.9061,3.9322,3.9138,3.8573,3.8833,3.8948,3.8824,3.8325,3.7701,3.7263,3.7263,3.7233,3.7062,3.7078,3.7032,3.6969,3.6631,3.6507,3.6445,3.6226,3.6068,3.6005,3.5989,3.5878,3.5704,3.5563,3.5306,3.4876,3.487,3.487,3.4902,3.4935,3.4918,3.5149,3.5791,3.633,3.6797,3.7867,3.8655,3.9055,3.9586,3.9995,4.0296,4.0453,4.0576,4.0713,4.0882,4.0932,4.0763,4.0591,4.0436,4.0244,3.9927,3.9502,3.9141,3.8793,3.8553,3.846,3.8315,3.8221,3.8188,3.8217,3.8202,3.8202,3.8202,3.8258,3.8385,3.8422,3.8478,3.8575,3.8616,3.8741,3.8778,3.8815,3.8889,3.9086,3.9228,3.9086,3.8998,3.909,3.9271,3.9577,3.974,4.0041,4.0543,4.1073,4.1457,4.1851,4.2429,4.2836,4.3236,4.3522,4.3787,4.4133,4.4437,4.4545,4.1813,4.1819,4.1825,4.1523,4.1171,4.1133,4.0896,4.0476,4.0251,4.0129,4.0063,3.9838,3.9765,3.9872,4.0121,4.0296,4.0366,4.0539,4.0433,4.013,4.0404,4.0233,3.9722,3.9727,3.9592,3.9282,3.9125,3.8936,3.8732,3.8685,3.8465,3.7996,3.7902,3.7574,3.7093,3.6892,3.6847,3.6831,3.6754,3.6631,3.6492,3.6398,3.6257,3.6054,3.5958,3.5814,3.5669,3.5397,3.5317,3.5459,3.5446,3.572,3.633,3.703,3.7656,3.8192,3.8607,3.9293,3.9931,4.0213,4.0487,4.0761,4.0896,4.0932,4.1,4.1068,4.1085,4.0984,4.0831,4.0627,4.0453,4.0261,3.9877,3.9373,3.9083,3.8848,3.8719,3.8631,3.8631,3.8598,3.8631,3.8612,3.8612,3.8612,3.8631,3.869,3.8723,3.8778,3.8819,3.898,3.9068,3.9174,3.9304,3.9454,3.9663,3.9841,3.9826,3.974,3.9793,3.9864,4.0143,4.0422,4.0732,4.114,4.1671,4.211,4.2523,4.2882,4.3266,4.3626,4.3889,4.4179,4.446,4.4661,4.4814,4.2272,4.2293,4.2526,4.2407,4.2044,4.2288,4.2133,4.169,4.146,4.1214,4.0913,4.0667,4.0456,4.0377,4.0608,4.0729,4.0746,4.1035,4.1052,4.085,4.102,4.0937,4.0594,4.0629,4.035,3.9881,3.9866,3.9756,3.9503,3.9471,3.9251,3.881,3.8747,3.8512,3.7965,3.7887,3.7856,3.7825,3.7826,3.7717,3.7608,3.7529,3.7404,3.7294,3.7214,3.7166,3.7119,3.6912,3.6581,3.6348,3.6469,3.6946,3.7501,3.8227,3.8877,3.9246,3.9634,4.0076,4.0633,4.0713,4.0797,4.1049,4.1152,4.117,4.1187,4.1236,4.1271,4.117,4.1053,4.0918,4.0729,4.0489,4.0191,3.9874,3.9445,3.9123,3.8874,3.88,3.8782,3.8764,3.8782,3.88,3.88,3.8889,3.8943,3.8998,3.909,3.9195,3.9235,3.9358,3.9517,3.9661,3.9755,3.9985,4.0229,4.0403,4.0526,4.0526,4.051,4.0578,4.0732,4.097,4.124,4.172,4.2238,4.2586,4.2959,4.3236,4.3583,4.3921,4.425,4.4474,4.4738,4.5052,4.5225,4.2769,4.2804,4.2975,4.3061,4.3056,4.3373,4.3253,4.2882,4.2887,4.2428,4.1727,4.161,4.1353,4.1,4.1156,4.1192,4.1135,4.124,4.1323,4.1273,4.1323,4.126,4.1247,4.1362,4.1113,4.0703,4.064,4.0324,3.9882,3.9835,3.9582,3.955,3.955,3.9487,3.9266,3.9314,3.9157,3.9094,3.9077,3.8998,3.8982,3.8997,3.8981,3.8949,3.887,3.8839,3.8775,3.8821,3.8362,3.7447,3.791,3.836,3.8577,3.9349,3.9869,3.9945,4.0658,4.0894,4.1085,4.1068,4.1102,4.1169,4.1272,4.1306,4.134,4.144,4.1473,4.1356,4.1273,4.1222,4.1035,4.078,4.0557,4.042,3.9874,3.9355,3.8962,3.8929,3.9002,3.8965,3.8892,3.8874,3.8984,3.9108,3.925,3.9394,3.9574,3.9735,3.9841,3.9912,4.0071,4.0194,4.0266,4.0457,4.0696,4.0851,4.0987,4.1138,4.1139,4.1206,4.129,4.1506,4.1736,4.2222,4.2696,4.3037,4.3327,4.3567,4.3891,4.4219,4.4502,4.4752,4.5012,4.5323,4.5516,4.366,4.366,4.3719,4.3738,4.3758,4.3856,4.3997,4.4002,4.3603,4.3442,4.3265,4.2938,4.2367,4.1814,4.1938,4.1788,4.1447,4.144,4.1522,4.1522,4.1522,4.1522,4.1522,4.1572,4.151,4.1304,4.1257,4.1257,4.1051,4.0941,4.0751,4.0324,4.0293,4.0008,3.9582,3.9535,3.9456,3.944,3.944,3.9424,3.9424,3.9345,3.9235,3.9235,3.9202,3.9153,3.9168,3.9589,3.9462,3.8709,3.9221,3.961,3.9672,4.0299,4.0708,4.0787,4.0929,4.1152,4.1222,4.1255,4.1322,4.1455,4.1505,4.1522,4.1522,4.1556,4.1572,4.1489,4.139,4.129,4.1239,4.1052,4.0882,4.0679,4.0209,3.9818,3.9679,3.9694,3.9679,3.9679,3.9643,3.9628,3.9628,3.9699,3.9768,3.9872,3.9998,4.0124,4.0246,4.0437,4.0593,4.0662,4.0765,4.0935,4.1105,4.129,4.1472,4.1669,4.1719,4.1785,4.1883,4.2061,4.2254,4.2555,4.3007,4.3388,4.3611,4.3864,4.4193,4.4499,4.4725,4.4961,4.5243,4.5537,4.5718,4.4046,4.4127,4.4205,4.4301,4.4377,4.4469,4.4641,4.4752,4.4449,4.4259,4.42,4.3877,4.3351,4.2796,4.2601,4.2304,4.1913,4.1698,4.1588,4.1588,4.1588,4.1588,4.1588,4.1588,4.1588,4.1588,4.1605,4.1573,4.1557,4.1588,4.1367,4.1083,4.1004,4.0799,4.0482,4.0372,4.0388,4.0403,4.0388,4.0388,4.0372,4.0307,4.0291,4.0243,4.0178,4.0145,4.0224,4.0634,4.0475,3.9889,4.0169,4.0593,4.0641,4.1036,4.1304,4.1321,4.1304,4.1356,4.1406,4.1505,4.1604,4.1703,4.1768,4.1802,4.1818,4.1802,4.1802,4.1802,4.1703,4.1621,4.1522,4.1338,4.112,4.0933,4.0641,4.0364,4.0156,4.0013,4.0011,4.0013,4.0033,4.0071,4.0104,4.0226,4.0314,4.0366,4.0505,4.0576,4.0645,4.0851,4.1038,4.1138,4.1255,4.1422,4.1555,4.1703,4.1867,4.2061,4.2286,4.2334,4.2397,4.2539,4.2743,4.2959,4.3373,4.3673,4.3879,4.4109,4.4421,4.4683,4.492,4.515,4.5446,4.5628,4.5825,4.4239,4.4396,4.4572,4.4776,4.4927,4.5111,4.5129,4.522,4.5173,4.4956,4.4665,4.456,4.4254,4.3766,4.3291,4.29,4.2758,4.2126,4.1747,4.1652,4.1605,4.1621,4.1654,4.1621,4.1637,4.1654,4.1654,4.1687,4.1703,4.1687,4.1671,4.1593,4.1608,4.1655,4.1466,4.1545,4.1639,4.1529,4.1466,4.1466,4.145,4.145,4.1402,4.1402,4.1417,4.1417,4.1513,4.1673,4.137,4.0361,4.1025,4.1313,4.1392,4.1556,4.1638,4.1654,4.1654,4.1654,4.1687,4.1801,4.1898,4.1947,4.2013,4.2093,4.2045,4.2029,4.2029,4.2029,4.2077,4.206,4.2121,4.181,4.1832,4.1792,4.1564,4.1182,4.0693,4.032,4.0101,4.0101,4.0246,4.0301,4.0372,4.0578,4.085,4.0799,4.0967,4.1137,4.1188,4.134,4.1489,4.1604,4.1752,4.1899,4.2029,4.2109,4.2286,4.2461,4.2728,4.2837,4.2806,4.2945,4.316,4.3402,4.3643,4.3864,4.4066,4.4321,4.4631,4.4838,4.5032,4.53,4.555,4.568,4.5851,4.4961,4.4999,4.5055,4.5092,4.5145,4.5167,4.5294,4.5423,4.5442,4.5442,4.5462,4.5464,4.509,4.4478,4.4243,4.4006,4.3453,4.2774,4.2206,4.1604,4.1588,4.1719,4.1784,4.1735,4.1719,4.1801,4.1833,4.1899,4.1948,4.1948,4.1997,4.1964,4.1948,4.198,4.1964,4.1948,4.1997,4.198,4.198,4.1964,4.1948,4.1964,4.1948,4.1948,4.1964,4.198,4.1981,4.2029,4.1917,4.1788,4.1788,4.1899,4.1867,4.1916,4.1948,4.1948,4.1964,4.198,4.1997,4.2013,4.2061,4.2077,4.2109,4.2093,4.2109,4.2109,4.2109,4.2093,4.2093,4.2413,4.286,4.337,4.3381,4.3296,4.3243,4.3205,4.2941,4.1792,4.1003,4.0893,4.0896,4.0899,4.0916,4.1039,4.1206,4.1255,4.1438,4.1669,4.1752,4.1785,4.1899,4.2013,4.2142,4.2286,4.2381,4.2492,4.2618,4.279,4.3022,4.3267,4.3237,4.3251,4.3432,4.3628,4.3852,4.4039,4.4239,4.4508,4.48,4.4964,4.514,4.5393,4.5615,4.5749,4.5889,4.5257,4.5315,4.5331,4.5371,4.5478,4.5478,4.5534,4.5625,4.5643,4.5698,4.5787,4.5807,4.5568,4.5189,4.4841,4.4447,4.4083,4.35,4.303,4.2686,4.245,4.2342,4.2362,4.2074,4.1899,4.1996,4.1996,4.2045,4.2077,4.2093,4.2077,4.2093,4.2093,4.2061,4.2093,4.2093,4.2077,4.2077,4.2093,4.2093,4.2093,4.2093,4.2093,4.2093,4.2093,4.2093,4.2077,4.2174,4.2222,4.227,4.2302,4.2238,4.2126,4.2093,4.2093,4.2093,4.2093,4.2093,4.2093,4.219,4.2254,4.2254,4.2286,4.2317,4.2333,4.2349,4.2542,4.2752,4.2912,4.3138,4.3714,4.4,4.4305,4.4287,4.4219,4.4169,4.3925,4.2792,4.1857,4.1812,4.1641,4.1532,4.152,4.1555,4.1654,4.1736,4.1753,4.1964,4.2045,4.2093,4.2254,4.2365,4.2523,4.2649,4.2743,4.2836,4.296,4.3099,4.3236,4.348,4.3585,4.3615,4.3658,4.3835,4.3996,4.4196,4.4409,4.4689,4.494,4.51,4.5287,4.5498,4.568,4.5821,4.596,4.5386,4.5552,4.5534,4.5643,4.5789,4.5789,4.5787,4.5789,4.5807,4.5789,4.5807,4.5807,4.5758,4.5631,4.5173,4.4875,4.4579,4.4248,4.3893,4.3747,4.3333,4.3258,4.3214,4.2766,4.243,4.2318,4.2206,4.219,4.219,4.219,4.2238,4.219,4.219,4.2222,4.219,4.2174,4.2222,4.2238,4.2222,4.2222,4.2206,4.2206,4.2206,4.2206,4.2222,4.2222,4.2254,4.2333,4.2429,4.2461,4.2539,4.2445,4.227,4.2174,4.2174,4.2174,4.2206,4.2222,4.2254,4.2349,4.2429,4.2429,4.2685,4.2765,4.2797,4.3024,4.3347,4.3687,4.3978,4.4236,4.4636,4.494,4.4889,4.4873,4.4825,4.476,4.4614,4.3883,4.3415,4.264,4.2165,4.1832,4.1915,4.1996,4.2109,4.2206,4.2206,4.2238,4.2317,4.2413,4.2586,4.268,4.2805,4.2929,4.3021,4.3067,4.3205,4.3342,4.3479,4.3645,4.3853,4.3908,4.3935,4.3993,4.4152,4.4336,4.4561,4.4841,4.5046,4.5203,4.5393,4.5576,4.5744,4.5897,4.6035,4.5716,4.575,4.5735,4.5787,4.5807,4.5807,4.5807,4.5807,4.5807,4.5807,4.5807,4.5807,4.5807,4.576,4.571,4.5373,4.5038,4.4837,4.4655,4.4443,4.4141,4.4145,4.4118,4.3604,4.3331,4.3186,4.2816,4.2478,4.2476,4.2524,4.2461,4.2492,4.2492,4.2492,4.2476,4.2508,4.2476,4.2461,4.2444,4.2444,4.2476,4.2476,4.246,4.246,4.2461,4.2476,4.2492,4.2539,4.2571,4.2571,4.2602,4.2571,4.2492,4.2492,4.2492,4.2476,4.2476,4.2461,4.2476,4.2556,4.2571,4.27,4.3153,4.3492,4.3638,4.401,4.4318,4.4691,4.5129,4.55,4.5563,4.5951,4.6456,4.659,4.6526,4.6577,4.6564,4.5944,4.477,4.3585,4.2782,4.2142,4.2286,4.2397,4.2476,4.2571,4.2617,4.268,4.2742,4.2835,4.2959,4.3006,4.3036,4.3174,4.3312,4.3342,4.3402,4.3553,4.3673,4.3807,4.3983,4.4124,4.4207,4.4281,4.4367,4.4505,4.4742,4.4974,4.511,4.5243,4.5446,4.5658,4.58,4.5922,4.6048,4.5807,4.5807,4.5807,4.5807,4.5807,4.5807,4.5807,4.5807,4.5807,4.5807,4.5807,4.5807,4.5807,4.5825,4.5932,4.5822,4.5708,4.5681,4.5578,4.5447,4.5177,4.5036,4.5074,4.4494,4.4268,4.4042,4.3476,4.2863,4.2635,4.2587,4.2602,4.2602,4.2602,4.2602,4.2602,4.2587,4.2602,4.2602,4.2602,4.2602,4.2602,4.2602,4.2602,4.2602,4.2602,4.2602,4.2602,4.2602,4.2602,4.2602,4.2602,4.2602,4.2602,4.2602,4.2619,4.2635,4.2619,4.2619,4.2716,4.2893,4.3201,4.325,4.3848,4.4237,4.4367,4.4675,4.5195,4.5668,4.6255,4.6679,4.6695,4.7004,4.7218,4.7319,4.7352,4.7403,4.7323,4.6815,4.5685,4.4432,4.3815,4.3231,4.2696,4.2774,4.2852,4.2929,4.3021,4.3081,4.3127,4.3189,4.325,4.328,4.3295,4.3402,4.3539,4.3598,4.3613,4.3732,4.3864,4.3983,4.4097,4.4253,4.4423,4.4567,4.4648,4.4714,4.4852,4.5056,4.5163,4.5296,4.5524,4.5736,4.5838,4.5952,4.6073,4.5807,4.5807,4.5807,4.5807,4.5807,4.5807,4.5807,4.5807,4.5807,4.5825,4.5862,4.5862,4.5898,4.5936,4.6062,4.6207,4.6351,4.6337,4.6396,4.6408,4.6088,4.5915,4.5806,4.5386,4.4982,4.4868,4.4253,4.3541,4.299,4.2699,4.2602,4.2602,4.2602,4.2602,4.2602,4.2602,4.2602,4.2602,4.2602,4.2602,4.2602,4.2602,4.2602,4.2602,4.2602,4.2602,4.2602,4.2602,4.2602,4.2602,4.2602,4.2602,4.2618,4.2649,4.273,4.2811,4.2731,4.2683,4.2974,4.3282,4.3702,4.3994,4.4659,4.4999,4.5276,4.5554,4.5963,4.6569,4.7044,4.7388,4.7305,4.7454,4.7487,4.7537,4.7537,4.7538,4.7489,4.7128,4.6454,4.5503,4.4911,4.4094,4.3282,4.3067,4.3098,4.316,4.3235,4.3296,4.3325,4.3387,4.3432,4.3507,4.3583,4.3658,4.3747,4.3852,4.3866,4.391,4.4025,4.414,4.427,4.4381,4.4567,4.4734,4.4869,4.4934,4.5042,4.5136,4.5287,4.5446,4.5641,4.5795,4.5897,4.6015,4.6152,4.5807,4.5807,4.5807,4.5807,4.5807,4.5807,4.5807,4.5807,4.5807,4.5914,4.6058,4.6076,4.6116,4.6225,4.6245,4.6386,4.6511,4.6581,4.6667,4.6759,4.6663,4.6615,4.6634,4.6035,4.5726,4.5565,4.4998,4.4302,4.367,4.3071,4.2683,4.2699,4.2651,4.2602,4.2602,4.2602,4.2602,4.2602,4.2602,4.2602,4.2602,4.2602,4.2602,4.2602,4.2602,4.2602,4.2602,4.2618,4.2634,4.2634,4.2618,4.2602,4.2618,4.2774,4.3243,4.3375,4.3215,4.2877,4.3508,4.3897,4.4285,4.4903,4.557,4.5979,4.6241,4.665,4.7044,4.729,4.7504,4.7537,4.7554,4.752,4.7571,4.7638,4.7688,4.777,4.777,4.7622,4.6929,4.6086,4.5327,4.4362,4.3466,4.3395,4.334,4.3402,4.3447,4.3492,4.3553,4.3613,4.3658,4.3732,4.3776,4.3852,4.3908,4.4027,4.407,4.4085,4.4184,4.4296,4.4423,4.4536,4.4692,4.4858,4.5005,4.5123,4.5203,4.5314,4.5437,4.5581,4.5761,4.5859,4.5972,4.6085,4.6202,4.5807,4.5807,4.5807,4.5807,4.5807,4.5807,4.5862,4.595,4.597,4.606,4.6187,4.6223,4.6314,4.6457,4.6476,4.6581,4.6738,4.6772,4.6807,4.6892,4.6893,4.6893,4.6829,4.6602,4.6423,4.6196,4.5759,4.5305,4.4593,4.3832,4.3233,4.3168,4.2813,4.2602,4.2651,4.2619,4.2602,4.2602,4.2602,4.2602,4.2602,4.2602,4.2602,4.2602,4.2602,4.2602,4.2634,4.2728,4.2759,4.2774,4.282,4.2882,4.3012,4.3319,4.3839,4.4002,4.4184,4.4315,4.4609,4.4968,4.5359,4.5816,4.6454,4.6946,4.7177,4.7391,4.7671,4.777,4.777,4.777,4.777,4.7787,4.7803,4.7836,4.7836,4.7886,4.7951,4.7885,4.7471,4.6625,4.5727,4.4823,4.3955,4.3639,4.3598,4.3658,4.3702,4.3747,4.382,4.3891,4.3937,4.3967,4.3981,4.4027,4.4068,4.414,4.4212,4.4255,4.4372,4.4483,4.4595,4.472,4.4845,4.5009,4.5194,4.5296,4.5393,4.5472,4.5567,4.5697,4.5838,4.5922,4.6023,4.6097,4.6184,4.5934,4.5918,4.5825,4.5825,4.5862,4.5878,4.5988,4.6132,4.615,4.6241,4.6367,4.6439,4.6546,4.6651,4.6686,4.6755,4.6893,4.6893,4.6893,4.6893,4.6893,4.6893,4.6877,4.6845,4.6845,4.6893,4.6375,4.605,4.5678,4.4965,4.4221,4.3945,4.3314,4.3007,4.2845,4.2699,4.2602,4.2602,4.2602,4.2602,4.2602,4.2602,4.2602,4.2602,4.2602,4.2602,4.2681,4.2806,4.2884,4.296,4.3267,4.3443,4.3509,4.4128,4.4715,4.501,4.5371,4.5764,4.5945,4.6192,4.652,4.6848,4.7177,4.7572,4.7688,4.777,4.7803,4.7952,4.7952,4.7968,4.8001,4.7984,4.7968,4.7968,4.7984,4.8001,4.8017,4.8016,4.7766,4.6951,4.6148,4.5442,4.465,4.4025,4.3839,4.391,4.3954,4.4012,4.4056,4.4112,4.414,4.414,4.4155,4.42,4.4286,4.4327,4.4369,4.4412,4.4511,4.4623,4.4706,4.4831,4.4954,4.5127,4.5353,4.5485,4.5576,4.5628,4.5697,4.5825,4.5922,4.5985,4.6073,4.6147,4.6196,4.6262,4.6243,4.5936,4.5932,4.606,4.6094,4.6168,4.6296,4.6296,4.6388,4.6581,4.6738,4.6807,4.6875,4.6842,4.6859,4.6893,4.6893,4.6893,4.6893,4.6893,4.6893,4.6893,4.6893,4.6893,4.6893,4.6683,4.6715,4.6634,4.5937,4.5257,4.4706,4.4026,4.3751,4.3492,4.3217,4.2877,4.2813,4.2764,4.2667,4.2635,4.2602,4.2602,4.2602,4.2618,4.2681,4.2853,4.2899,4.3106,4.3213,4.3732,4.4158,4.4336,4.5022,4.5662,4.6089,4.6483,4.6895,4.7209,4.693,4.6898,4.7408,4.777,4.7902,4.7919,4.7968,4.8001,4.8001,4.8001,4.8001,4.8001,4.8001,4.8001,4.805,4.8082,4.8099,4.8131,4.8196,4.7878,4.7226,4.652,4.5793,4.5114,4.4422,4.4044,4.4099,4.4172,4.4215,4.4186,4.4212,4.4255,4.427,4.4298,4.4369,4.4514,4.4542,4.4483,4.4511,4.4581,4.4709,4.4806,4.4913,4.5063,4.5264,4.5459,4.5602,4.5744,4.5808,4.5871,4.5935,4.601,4.6073,4.6135,4.6209,4.6216,4.6298,4.628,4.6154,4.6136,4.6241,4.6223,4.6315,4.6476,4.6493,4.6598,4.679,4.6859,4.6893,4.6893,4.6893,4.6893,4.6893,4.6893,4.6893,4.6893,4.6893,4.6893,4.6893,4.6893,4.6893,4.6893,4.6893,4.6893,4.6812,4.6521,4.644,4.5824,4.4933,4.4512,4.4221,4.401,4.3686,4.333,4.3233,4.312,4.2635,4.2602,4.2602,4.2602,4.2602,4.2696,4.2868,4.2976,4.3391,4.3891,4.4327,4.4737,4.5199,4.5954,4.6481,4.6894,4.724,4.7669,4.7885,4.7589,4.7605,4.7704,4.7935,4.8001,4.8001,4.8001,4.8001,4.8001,4.8001,4.8017,4.8001,4.8017,4.8033,4.8098,4.8147,4.8196,4.826,4.834,4.8171,4.76,4.684,4.609,4.5427,4.4764,4.4469,4.427,4.4344,4.44,4.4358,4.4344,4.4369,4.4398,4.4426,4.444,4.457,4.4584,4.4584,4.4626,4.4651,4.4776,4.4886,4.5032,4.5194,4.538,4.5576,4.5744,4.5884,4.5968,4.6043,4.6092,4.6122,4.6147,4.6209,4.6295,4.6301,4.6474,4.6474,4.6458,4.6439,4.6404,4.6386,4.6511,4.6652,4.6703,4.6755,4.691,4.6893,4.6893,4.6893,4.6893,4.6893,4.6893,4.6893,4.6893,4.6893,4.6893,4.6893,4.6893,4.6893,4.6893,4.6893,4.6893,4.6893,4.6893,4.6893,4.6796,4.6472,4.5969,4.55,4.5046,4.4836,4.4545,4.4156,4.3978,4.3848,4.333,4.333,4.3346,4.3363,4.3395,4.3555,4.3761,4.3951,4.4237,4.4786,4.524,4.5649,4.6179,4.6725,4.7139,4.7404,4.7636,4.7984,4.8001,4.8001,4.8001,4.7984,4.7984,4.8001,4.8001,4.8001,4.8001,4.8017,4.8017,4.8049,4.8066,4.8131,4.8212,4.8308,4.8324,4.8357,4.8436,4.8499,4.8313,4.8008,4.7192,4.6372,4.5828,4.518,4.4626,4.4412,4.4457,4.4499,4.4499,4.4499,4.4528,4.4542,4.4556,4.457,4.4584,4.4584,4.4612,4.4709,4.4748,4.4869,4.5005,4.5136,4.5314,4.5485,4.568,4.5871,4.6018,4.6142,4.6204,4.624,4.6277,4.6331,4.6362,4.6435,4.6447,4.6876,4.6892,4.6892,4.6755,4.6582,4.6582,4.6704,4.6859,4.6859,4.6876,4.691,4.6893,4.6893,4.6893,4.6893,4.6893,4.6893,4.6893,4.6893,4.6893,4.6893,4.6893,4.6893,4.6893,4.6893,4.6893,4.6893,4.6893,4.6893,4.6893,4.6893,4.6893,4.6586,4.631,4.5775,4.5144,4.4836,4.4771,4.4771,4.4674,4.4512,4.4431,4.4399,4.4383,4.4366,4.4448,4.4689,4.4784,4.5089,4.5671,4.6213,4.6576,4.6908,4.7471,4.7802,4.7885,4.7934,4.8001,4.8001,4.8001,4.8001,4.8001,4.8001,4.8001,4.8001,4.8001,4.8033,4.8066,4.8131,4.8179,4.8243,4.8323,4.842,4.8483,4.85,4.8548,4.8627,4.869,4.8535,4.8265,4.746,4.6669,4.6177,4.5585,4.4874,4.457,4.4584,4.4584,4.4584,4.4584,4.4584,4.4584,4.4584,4.4584,4.4584,4.4584,4.4626,4.4737,4.4862,4.4951,4.5113,4.5287,4.5446,4.5589,4.5782,4.5972,4.6142,4.6308,4.6386,4.6459,4.6495,4.653,4.6578,4.659,4.6602,4.6893,4.6893,4.6893,4.6859,4.6807,4.6807,4.6842,4.6876,4.6893,4.6893,4.6893,4.6893,4.6893,4.6893,4.6893,4.6893,4.6893,4.6893,4.6893,4.6893,4.6893,4.6893,4.6893,4.6893,4.6893,4.6893,4.6893,4.6893,4.6893,4.6893,4.6893,4.6893,4.6893,4.6763,4.6569,4.6197,4.6019,4.5548,4.5419,4.5257,4.4885,4.4852,4.4868,4.4885,4.4917,4.5114,4.5423,4.5488,4.5844,4.6429,4.6941,4.7139,4.7454,4.7984,4.7984,4.8001,4.8001,4.8001,4.8001,4.8001,4.8001,4.8001,4.8017,4.8017,4.8001,4.8082,4.8131,4.8179,4.8308,4.8372,4.8436,4.8452,4.8532,4.8675,4.8722,4.8768,4.8831,4.8877,4.8806,4.8417,4.7784,4.6346,4.5514,4.5345,4.4787,4.4584,4.4584,4.4584,4.4584,4.4584,4.4584,4.4584,4.4584,4.4584,4.4584,4.4584,4.4651,4.4789,4.4913,4.5036,4.5194,4.5393,4.555,4.571,4.5884,4.6073,4.6289,4.6506,4.6613,4.6684,4.6684,4.6661,4.6649,4.6684,4.6749,4.6893,4.6893,4.6893,4.6893,4.6893,4.6893,4.6893,4.6893,4.6893,4.6893,4.6893,4.6893,4.6893,4.6893,4.6893,4.6893,4.6893,4.6893,4.6893,4.6893,4.6893,4.6893,4.6893,4.6893,4.6893,4.6893,4.6893,4.6893,4.6893,4.6893,4.6893,4.6893,4.6893,4.6861,4.6829,4.6731,4.6618,4.6228,4.6131,4.6034,4.576,4.563,4.5614,4.563,4.5714,4.5864,4.6012,4.6192,4.6436,4.7026,4.7322,4.7454,4.7835,4.8001,4.8001,4.8001,4.8001,4.8001,4.8001,4.8066,4.8082,4.8082,4.8066,4.8082,4.8098,4.8228,4.8292,4.8372,4.8499,4.8579,4.8611,4.8611,4.8706,4.8864,4.8879,4.8924,4.894,4.897,4.8717,4.836,4.7614,4.6174,4.4956,4.4821,4.4601,4.4584,4.4584,4.4584,4.4584,4.4584,4.4584,4.4584,4.4584,4.4584,4.4584,4.4584,4.4679,4.4828,4.4951,4.5046,4.5287,4.5485,4.5658,4.5838,4.6035,4.6253,4.6495,4.6672,4.6784,4.683,4.683,4.6795,4.6731,4.6795,4.6865,4.6893,4.6893,4.6893,4.6893,4.6893,4.6893,4.6893,4.6893,4.6893,4.6893,4.6893,4.6893,4.6893,4.6893,4.6893,4.6893,4.6893,4.6893,4.6893,4.6893,4.6893,4.6893,4.6893,4.6893,4.6893,4.6893,4.6893,4.6893,4.6893,4.6893,4.6893,4.6893,4.6893,4.6893,4.6893,4.6877,4.6829,4.6699,4.6667,4.6586,4.644,4.6602,4.6521,4.6539,4.6674,4.6876,4.7077,4.7292,4.7473,4.7704,4.7819,4.7835,4.7885,4.7951,4.7968,4.8001,4.8001,4.8033,4.8066,4.8147,4.8211,4.8227,4.826,4.8244,4.826,4.8388,4.85,4.8564,4.8674,4.8738,4.8802,4.8879,4.894,4.8987,4.8987,4.8986,4.8969,4.8817,4.8496,4.7971,4.7192,4.6073,4.4973,4.4584,4.4584,4.4584,4.4584,4.4584,4.4584,4.4584,4.4584,4.4584,4.4584,4.4584,4.4584,4.4584,4.472,4.4899,4.4951,4.5073,4.5327,4.5567,4.571,4.5897,4.6191,4.6417,4.6637,4.6807,4.6934,4.6945,4.6934,4.6922,4.6888,4.6945,4.702,4.6893,4.6893,4.6893,4.6893,4.6893,4.6893,4.6893,4.6893,4.6893,4.6893,4.6893,4.6893,4.6893,4.6893,4.6893,4.6893,4.6893,4.6893,4.6893,4.6893,4.6893,4.6893,4.6893,4.6893,4.6893,4.6893,4.6893,4.6893,4.6893,4.6893,4.6893,4.6893,4.6893,4.6893,4.6893,4.6893,4.6893,4.6893,4.6893,4.6893,4.6893,4.6893,4.6893,4.6961,4.7115,4.7302,4.7388,4.7555,4.7556,4.7256,4.7239,4.7073,4.646,4.6908,4.7322,4.7967,4.8066,4.8147,4.8179,4.8308,4.8403,4.8452,4.8532,4.8516,4.8515,4.8579,4.8707,4.8769,4.8815,4.8879,4.891,4.8972,4.9018,4.9018,4.8951,4.8815,4.8715,4.8359,4.8005,4.7464,4.6701,4.5819,4.4753,4.4584,4.4584,4.4584,4.4584,4.4584,4.4584,4.4584,4.4584,4.4584,4.4584,4.4584,4.4584,4.4584,4.4779,4.4927,4.4978,4.5086,4.5357,4.5567,4.5736,4.5985,4.6289,4.653,4.6731,4.6888,4.6991,4.7043,4.7043,4.7025,4.7037,4.7082,4.7133,4.6893,4.6893,4.6893,4.6893,4.6893,4.6893,4.6893,4.6893,4.6893,4.6893,4.6893,4.6893,4.6893,4.6893,4.6893,4.6893,4.6893,4.6893,4.6893,4.6893,4.6911,4.6893,4.6893,4.6893,4.6893,4.6893,4.6893,4.6893,4.6893,4.6893,4.6893,4.6893,4.6893,4.6893,4.6893,4.6893,4.6893,4.6893,4.6893,4.6893,4.6893,4.6893,4.6893,4.6978,4.7166,4.7254,4.7127,4.7276,4.706,4.6577,4.646,4.6295,4.5879,4.6341,4.6605,4.7168,4.7628,4.7741,4.7889,4.8366,4.8529,4.8642,4.8718,4.8784,4.8784,4.88,4.8863,4.8894,4.8956,4.9018,4.9018,4.9018,4.9018,4.9018,4.8798,4.8546,4.8208,4.7802,4.7363,4.6872,4.6143,4.5294,4.4784,4.4651,4.4584,4.4584,4.4584,4.4584,4.4584,4.4584,4.4584,4.4584,4.4584,4.4584,4.4584,4.4612,4.4762,4.4899,4.4995,4.513,4.5371,4.5632,4.5846,4.6122,4.6398,4.6613,4.6812,4.6911,4.7002,4.7066,4.7133,4.7156,4.716,4.7187,4.7209,4.6893,4.6893,4.6893,4.6893,4.6893,4.6893,4.6893,4.6893,4.6893,4.6893,4.6893,4.6893,4.6893,4.6893,4.6893,4.6893,4.6928,4.6928,4.6978,4.6944,4.6978,4.6978,4.6961,4.6893,4.6893,4.6893,4.6893,4.6893,4.6893,4.6893,4.6893,4.6893,4.6893,4.6893,4.6893,4.6893,4.6893,4.6893,4.6893,4.6893,4.6893,4.6893,4.6927,4.6996,4.7169,4.7241,4.6766,4.6583,4.6527,4.5997,4.5698,4.5697,4.5726,4.5834,4.5964,4.6357,4.6983,4.7212,4.7475,4.79,4.8265,4.846,4.8706,4.8517,4.8348,4.8806,4.8923,4.8956,4.9018,4.8798,4.8731,4.8612,4.8578,4.8325,4.8003,4.7868,4.7665,4.7141,4.6515,4.6041,4.55,4.477,4.4702,4.4584,4.4584,4.4584,4.4584,4.4584,4.4584,4.4584,4.4584,4.4584,4.4584,4.4584,4.4584,4.464,4.4748,4.4872,4.4981,4.5144,4.5375,4.5684,4.5998,4.6253,4.6518,4.6714,4.6876,4.6957,4.7025,4.7133,4.7201,4.7256,4.7283,4.732,4.7331,4.6893,4.6893,4.6893,4.6893,4.6893,4.6893,4.6893,4.6893,4.6893,4.6927,4.6893,4.6893,4.6911,4.6928,4.6944,4.6944,4.6945,4.7081,4.7115,4.7132,4.7132,4.7098,4.7081,4.6996,4.6944,4.6893,4.6893,4.6893,4.6893,4.6893,4.6893,4.6893,4.6893,4.6893,4.6893,4.6893,4.6893,4.6893,4.6893,4.6927,4.6944,4.6944,4.6961,4.7132,4.732,4.7177,4.6832,4.6681,4.6047,4.5267,4.5035,4.5014,4.5089,4.5289,4.5681,4.6146,4.6467,4.6676,4.6871,4.7181,4.7442,4.7404,4.7398,4.7361,4.7631,4.8477,4.8917,4.8917,4.8815,4.8545,4.8325,4.8189,4.8005,4.7614,4.7192,4.7124,4.7039,4.6363,4.5667,4.5227,4.477,4.4635,4.4601,4.4584,4.4584,4.4584,4.4584,4.4584,4.4584,4.4584,4.4584,4.4584,4.4584,4.4584,4.4584,4.464,4.4734,4.4872,4.4995,4.5171,4.5388,4.5658,4.5972,4.6338,4.6625,4.6772,4.6876,4.6957,4.7054,4.7178,4.7256,4.7305,4.7425,4.7482,4.75,4.6893,4.6893,4.6893,4.6893,4.6893,4.6893,4.6893,4.6927,4.6996,4.703,4.7013,4.6961,4.6928,4.7013,4.703,4.7098,4.7132,4.7284,4.7319,4.7319,4.7319,4.7251,4.7183,4.7098,4.6978,4.6944,4.6927,4.6893,4.6893,4.6893,4.6893,4.6893,4.6893,4.6893,4.6893,4.6893,4.6893,4.6893,4.6911,4.6961,4.7013,4.7063,4.7064,4.7251,4.7322,4.7161,4.6749,4.6497,4.5733,4.4916,4.4548,4.4452,4.4538,4.4717,4.4974,4.5368,4.5742,4.6146,4.6243,4.6439,4.665,4.665,4.6735,4.6953,4.7003,4.7716,4.7782,4.7782,4.7782,4.753,4.7496,4.7394,4.7344,4.709,4.6549,4.6227,4.5937,4.5396,4.5058,4.4888,4.4618,4.4618,4.4584,4.4584,4.4584,4.4584,4.4584,4.4584,4.4584,4.4584,4.4584,4.4584,4.4584,4.4584,4.4584,4.464,4.4706,4.4845,4.5009,4.5278,4.5502,4.5697,4.5935,4.635,4.6637,4.6731,4.6853,4.6957,4.7104,4.7227,4.7305,4.7352,4.75,4.7618,4.7597,4.6927,4.6944,4.6944,4.6978,4.6962,4.6996,4.6996,4.7013,4.7166,4.725,4.7233,4.7064,4.7098,4.72,4.7251,4.7369,4.7453,4.7487,4.7504,4.752,4.752,4.7454,4.7352,4.7217,4.7064,4.6961,4.6911,4.6893,4.6893,4.6893,4.6893,4.6893,4.6893,4.6893,4.6893,4.6893,4.6893,4.6927,4.6961,4.7063,4.7132,4.7217,4.7234,4.7336,4.7455,4.7309,4.6714,4.6231,4.5614,4.509,4.4599,4.438,4.4296,4.4423,4.4478,4.4805,4.5183,4.5457,4.5621,4.5942,4.6208,4.6394,4.653,4.653,4.6513,4.653,4.658,4.6631,4.6631,4.6766,4.6733,4.6665,4.6631,4.6411,4.5853,4.5447,4.5024,4.4699,4.4649,4.4584,4.4584,4.4584,4.4584,4.4584,4.4584,4.4584,4.4584,4.4584,4.4584,4.4584,4.4584,4.4584,4.4584,4.4584,4.4584,4.4626,4.4679,4.4872,4.5063,4.5353,4.5602,4.5731,4.5998,4.6423,4.6649,4.6731,4.6853,4.6986,4.7127,4.7254,4.7309,4.7363,4.7554,4.7668,4.7678,4.6996,4.7132,4.7132,4.7234,4.7369,4.7352,4.7386,4.7386,4.7419,4.7453,4.7436,4.7419,4.7419,4.7436,4.7436,4.7504,4.7571,4.7637,4.7671,4.7654,4.7671,4.7638,4.7537,4.7336,4.7098,4.6996,4.6944,4.6893,4.6893,4.6893,4.6893,4.6893,4.6893,4.6893,4.6893,4.6911,4.6978,4.7013,4.7081,4.72,4.72,4.7285,4.7387,4.7504,4.7655,4.7325,4.7008,4.6952,4.6499,4.5942,4.5358,4.4871,4.4618,4.4533,4.4587,4.4516,4.4874,4.4891,4.5125,4.5227,4.5413,4.5345,4.5362,4.5311,4.5277,4.5261,4.5362,4.5497,4.565,4.6109,4.6143,4.5957,4.5855,4.543,4.4905,4.4888,4.4685,4.4632,4.4601,4.4584,4.4584,4.4584,4.4584,4.4584,4.4584,4.4584,4.4584,4.4584,4.4584,4.4584,4.4584,4.4584,4.4584,4.4584,4.4584,4.4598,4.4682,4.4872,4.5103,4.538,4.5602,4.5761,4.6048,4.6435,4.6613,4.6696,4.6842,4.6968,4.7116,4.7232,4.7287,4.7374,4.7593,4.7689,4.7689]}]]